[[[{"header":{"parameterUnit":"kt","parameterCategory":2,"dx":1,"dy":1,"la1":29.285339999999998,"la2":30.599998999999997,"lo1":-89.70041500000002,"lo2":-87.6738589999976,"nx":112,"ny":82,"refTime":"2022-11-02T00:00:00:Z","depth":0,"parameterNumber":1,"parameterNumberName":"U-component_of_WINDS"},"data":[-5.0489,-4.8598,-4.697,-4.5748,-4.3509,-4.1415,-4.0579,-3.9386,-3.7925,-3.618,-3.5769,-3.5507,-3.4577,-3.3733,-3.3007,-3.2542,-3.0771,-2.9285,0.0,-2.9488,0.0,0.0,0.0,0.0,0.0,0.0,0.0,0.0,0.0,0.0,0.0,0.0,-6.3314,-6.5059,-6.7183,-6.852,-6.9015,-6.9015,-6.9015,-6.9015,-6.9015,-6.9015,-6.9015,-6.9015,-6.9015,-6.9044,-6.948,-7.0411,-7.1661,-7.2883,-7.4163,-7.5413,-7.6286,-7.6564,-7.6564,-7.6564,-7.6564,-7.6564,-7.6564,-7.6564,-7.6564,-7.6564,-7.6564,-7.6564,-7.6564,-7.6564,-7.6564,-7.6564,-7.6564,-7.6564,-7.6564,-7.6564,-7.6564,-7.6564,-7.6564,-7.6564,-7.6564,-7.6564,-7.6564,-7.6564,-7.6564,-7.6564,-7.6564,-7.6564,-7.6564,-7.6564,-7.6564,-7.6564,-7.6564,-7.6564,-7.6564,-7.6564,-7.6564,-7.5386,-7.2468,-6.738,-6.4388,-6.4388,-6.4388,-6.4388,-6.4388,-6.4388,-6.4388,-6.4388,-6.4388,-6.4388,-6.4388,-6.4388,-6.4388,-6.4314,-6.1473,-5.9375,-4.7173,-4.5312,-4.3683,-4.2471,-4.0513,-3.8594,-3.7285,-3.6325,-3.5333,-3.3994,-3.3733,-3.3617,-3.3242,-3.2427,-3.1701,-3.1265,-3.0218,-2.9285,0.0,0.0,0.0,0.0,0.0,0.0,0.0,0.0,0.0,0.0,0.0,0.0,0.0,-6.2442,-6.4449,-6.5699,-6.7881,-6.9015,-6.9015,-6.9015,-6.9015,-6.9015,-6.9015,-6.9015,-6.9015,-6.9015,-6.9015,-6.9015,-6.9015,-6.9742,-7.1022,-7.2214,-7.3494,-7.4773,-7.6111,-7.6564,-7.6564,-7.6564,-7.6564,-7.6564,-7.6564,-7.6564,-7.6564,-7.6564,-7.6564,-7.6564,-7.6564,-7.6564,-7.6564,-7.6564,-7.6564,-7.6564,-7.6564,-7.6564,-7.6564,-7.6564,-7.6564,-7.6564,-7.6564,-7.6564,-7.6564,-7.6564,-7.6564,-7.6564,-7.6564,-7.6564,-7.6564,-7.6564,-7.6564,-7.6564,-7.6564,-7.6564,-7.6564,-7.6564,-7.6564,-7.6564,-7.6564,-6.9073,-6.4388,-6.4388,-6.4388,-6.4388,-6.4388,-6.4388,-6.4388,-6.4388,-6.4388,-6.4388,-6.4388,-6.4388,-6.3655,-6.2059,-5.9228,-5.791,-4.4276,-4.2084,-3.9873,-3.8512,-3.7227,-3.5947,-3.4665,-3.4345,-3.3965,-3.2688,-3.2397,-3.2078,-3.0944,-3.0768,-3.036,-2.9139,-3.0012,0.0,0.0,0.0,0.0,0.0,0.0,0.0,0.0,0.0,0.0,0.0,0.0,0.0,-6.1106,-6.3751,-6.5699,-6.704,-6.8317,-6.9015,-6.9015,-6.9015,-6.9015,-6.9015,-6.9015,-6.9015,-6.9015,-6.9015,-6.9015,-6.9015,-6.9015,-6.9713,-7.0963,-7.2156,-7.3406,-7.4686,-7.6053,-7.6576,-7.6564,-7.6564,-7.6564,-7.6564,-7.6564,-7.6564,-7.6564,-7.6564,-7.6564,-7.6564,-7.6564,-7.6564,-7.6564,-7.6564,-7.6564,-7.6564,-7.6564,-7.6564,-7.6564,-7.6564,-7.6448,-7.6303,-7.6303,-7.6303,-7.6361,-7.6535,-7.6564,-7.6564,-7.6564,-7.6564,-7.6564,-7.6564,-7.6564,-7.6564,-7.6564,-7.6564,-7.6564,-7.6564,-7.6564,-7.6564,-7.6564,-6.9308,-6.4613,-6.4388,-6.4388,-6.4388,-6.4388,-6.4388,-6.4388,-6.4388,-6.4388,-6.4314,-6.4168,-6.4168,-6.1961,-5.791,-5.791,-5.791,-4.0492,-3.9386,-3.8274,-3.6063,-3.5217,-3.4607,-3.3297,-3.2977,-3.2659,-3.1439,-3.1206,0.0,0.0,0.0,-3.2195,-3.2776,0.0,-3.33,0.0,-3.3473,0.0,0.0,0.0,0.0,0.0,0.0,0.0,0.0,0.0,-5.9563,-6.2472,-6.4216,-6.5699,-6.704,-6.8317,-6.9015,-6.9015,-6.9015,-6.9015,-6.9015,-6.9015,-6.9015,-6.9015,-6.9015,-6.9015,-6.9015,-6.9015,-6.9218,-6.9626,-7.0905,-7.2127,-7.3377,-7.4657,-7.5762,-7.6564,-7.6564,-7.6564,-7.6564,-7.6564,-7.6564,-7.6564,-7.6564,-7.6564,-7.6564,-7.6564,-7.6564,-7.6564,-7.6564,-7.6564,-7.6564,-7.6564,-7.6564,-7.6564,-7.6564,-7.3784,-7.1109,-7.1109,-7.1109,-7.2185,-7.5838,-7.6564,-7.6564,-7.6564,-7.6564,-7.6564,-7.6564,-7.6564,-7.6564,-7.6564,-7.6564,-7.6564,-7.6564,-7.6564,-7.6564,-7.6564,-7.4538,-7.07,-6.4697,-6.4388,-6.4388,-6.4388,-6.4388,-6.4388,-6.4388,-6.4388,-6.2767,-5.9667,-5.9667,-5.9057,-5.791,-5.791,-5.791,-3.7372,-3.6674,-3.618,-3.4081,-3.3588,-3.3268,-3.2021,-3.173,-3.1643,-3.1497,0.0,0.0,0.0,0.0,0.0,0.0,-3.4519,0.0,0.0,0.0,-3.8093,0.0,0.0,0.0,0.0,0.0,0.0,0.0,-5.901,-6.1279,-6.3867,-6.5205,-6.6574,-6.7822,-6.8608,-6.9015,-6.9015,-6.9015,-6.9015,-6.9015,-6.9015,-6.9015,-6.9015,-6.9015,-6.9015,-6.9015,-6.9015,-6.9015,-6.9102,-7.0382,-7.1632,-7.2796,-7.3523,-7.4628,-7.5849,-7.6431,-7.6564,-7.6564,-7.6564,-7.6564,-7.6564,-7.6564,-7.6564,-7.6564,-7.6564,-7.6564,-7.6564,-7.6564,-7.6564,-7.6564,-7.6564,-7.5035,-7.3435,-7.3435,-7.1167,-6.9015,-6.9015,-6.9015,-6.9887,-7.2854,-7.5151,-7.6564,-7.6564,-7.6564,-7.6564,-7.6564,-7.6564,-7.6564,-7.6564,-7.6564,-7.6564,-7.6564,-7.6564,-7.6564,-7.6564,-7.3386,-6.9386,-6.4613,-6.4388,-6.4388,-6.4388,-6.4388,-6.4388,-6.4388,-6.2604,-6.0399,-5.791,-5.791,-5.791,-5.791,-5.791,-5.791,-3.4868,-3.4168,-3.3878,-3.2572,-3.2281,-3.202,-3.1119,0.0,-3.1264,-3.2456,0.0,-3.3094,-3.4403,0.0,0.0,0.0,0.0,0.0,-3.5449,-3.8645,-4.2025,-4.448,-4.6853,-4.8379,0.0,-5.1827,-5.5396,-5.901,-6.0612,-6.2501,-6.4972,-6.64,-6.7648,-6.8986,-6.9015,-6.9015,-6.9015,-6.9015,-6.9015,-6.9015,-6.9015,-6.9015,-6.9015,-6.9015,-6.9015,-6.9015,-6.9015,-6.9015,-6.9102,-7.0236,-7.1429,-7.2534,-7.265,-7.3494,-7.4773,-7.614,-7.6564,-7.6564,-7.6564,-7.6564,-7.6564,-7.6564,-7.6564,-7.6564,-7.6564,-7.6564,-7.6564,-7.6564,-7.6564,-7.6564,-7.6564,-7.2854,-6.9015,-6.9015,-6.9015,-6.9015,-6.9015,-6.9015,-6.9015,-6.9015,-7.265,-7.5937,-7.6448,-7.6564,-7.6564,-7.6564,-7.6564,-7.6564,-7.6564,-7.6564,-7.6564,-7.6564,-7.6564,-7.6564,-7.6564,-6.993,-6.531,-6.4363,-6.4388,-6.4388,-6.4388,-6.4388,-6.4143,-6.3655,-5.9838,-5.791,-5.791,-5.791,-5.791,-5.791,-5.791,-5.791,-3.3268,-3.2833,-3.2543,-3.1352,-3.1031,-3.1236,0.0,0.0,0.0,-3.3762,-3.4023,-3.4401,-3.5711,-3.6849,0.0,-3.8616,0.0,0.0,0.0,-4.3934,0.0,-4.8511,-5.0023,-5.1768,-5.3891,-5.4764,-5.6334,-5.9068,-6.1482,-6.3518,-6.503,-6.64,-6.7648,-6.8986,-6.9015,-6.9015,-6.9015,-6.9015,-6.9015,-6.9015,-6.9015,-6.9015,-6.9015,-6.9015,-6.9015,-6.9015,-6.9015,-6.9015,-6.9044,-6.9277,-7.012,-7.1371,-7.233,-7.3494,-7.4773,-7.614,-7.6564,-7.6564,-7.6564,-7.6564,-7.6564,-7.6564,-7.6564,-7.6564,-7.6564,-7.6564,-7.6564,-7.6564,-7.6564,-7.6564,-7.6564,-7.2854,-6.9015,-6.9015,-6.9015,-6.9015,-6.9015,-6.9015,-6.9015,-6.9015,-6.98,-7.1778,-7.5908,-7.6564,-7.6564,-7.6564,-7.6564,-7.6564,-7.6564,-7.6564,-7.6564,-7.6564,-7.6564,-7.6564,-7.6564,-7.5171,-7.1386,-6.4755,-6.4388,-6.4388,-6.4388,-6.4388,-6.2669,-5.9204,-5.835,-5.791,-5.791,-5.791,-5.791,-5.791,-5.791,-5.791,-3.0945,-3.0626,-3.0626,-3.0682,-3.1177,0.0,0.0,-3.2978,-3.3791,-3.5101,-3.5918,-3.6761,-3.8035,-3.935,-4.0659,-4.1967,-4.2723,-4.4072,-4.6592,-4.9151,-5.1216,-5.2554,-5.3833,-5.5113,-5.6422,-5.7091,-5.7963,-5.9185,-6.2297,-6.471,-6.605,-6.7299,-6.8317,-6.8986,-6.9015,-6.9015,-6.9015,-6.9015,-6.9015,-6.9015,-6.9015,-6.9015,-6.9015,-6.9015,-6.9015,-6.9015,-6.9015,-6.9015,-6.9015,-6.9015,-6.9393,-7.0091,-7.1341,-7.2592,-7.3814,-7.5151,-7.6053,-7.6564,-7.6564,-7.6564,-7.6564,-7.6564,-7.6564,-7.6564,-7.6564,-7.6564,-7.6564,-7.6564,-7.6564,-7.6564,-7.6564,-7.2854,-6.9015,-6.9015,-6.9015,-6.9015,-6.9015,-6.9015,-6.9015,-6.9015,-6.9015,-6.9829,-7.2388,-7.4879,-7.6564,-7.6564,-7.6564,-7.6564,-7.6564,-7.6564,-7.6564,-7.6564,-7.6564,-7.6564,-7.6564,-7.6564,-7.4855,-7.0777,-6.6625,-6.4388,-6.4388,-6.4388,-6.2279,-5.7984,-5.791,-5.791,-5.791,-5.791,-5.791,-5.791,-5.791,-5.791,-2.8994,-2.879,-2.9139,-3.0682,-3.1904,0.0,-3.3125,-3.4354,-3.5734,-3.6882,-3.8128,-3.9473,-4.0775,-4.2055,-4.3305,-4.4655,-4.5062,-4.7013,-5.2117,-5.3766,-5.4901,-5.616,-5.7236,-5.8016,-5.8225,-5.9126,-5.9708,-5.9708,-6.282,-6.5408,-6.7011,-6.8288,-6.9015,-6.9015,-6.9015,-6.9015,-6.9015,-6.9015,-6.9015,-6.9015,-6.9015,-6.9015,-6.9015,-6.9015,-6.9015,-6.9015,-6.9015,-6.9015,-6.9015,-6.9015,-6.9015,-6.9131,-7.044,-7.1516,-7.2563,-7.4075,-7.5297,-7.6257,-7.6448,-7.6564,-7.6564,-7.6564,-7.6564,-7.6564,-7.6564,-7.6564,-7.6564,-7.6564,-7.6332,-7.6227,-7.6547,-7.2854,-6.9015,-6.9015,-6.9015,-6.9015,-6.9015,-6.9015,-6.9015,-6.9015,-6.9015,-6.9015,-6.9015,-7.3232,-7.6564,-7.6564,-7.6564,-7.6564,-7.6564,-7.6564,-7.6564,-7.6564,-7.6564,-7.6564,-7.6564,-7.6564,-7.6564,-7.6564,-7.0393,-6.63,-6.5278,-6.3882,-6.1424,-5.7984,-5.791,-5.791,-5.791,-5.791,-5.791,-5.791,-5.791,-5.791,-2.8473,-2.879,-2.9345,-3.1672,-3.2955,0.0,-3.5556,-3.7449,-3.9058,-3.9669,-4.0862,-4.2142,-4.3461,-4.4684,-4.5894,-4.7188,-4.835,-5.0954,-5.6182,-5.7026,-5.7498,-5.8748,-5.901,-5.9563,-6.0699,-6.0932,-6.1019,-6.1019,-6.2472,-6.4449,-6.6953,-6.8288,-6.9015,-6.9015,-6.9015,-6.9015,-6.9015,-6.9015,-6.9015,-6.9015,-6.9015,-6.9015,-6.9015,-6.9015,-6.9015,-6.9015,-6.9015,-6.9015,-6.9015,-6.9015,-6.9015,-6.9131,-7.044,-7.1022,-7.14,-7.3755,-7.4715,-7.5035,-7.6198,-7.6564,-7.6564,-7.6564,-7.6564,-7.6564,-7.6564,-7.6564,-7.6564,-7.6564,-7.546,-7.4715,-7.6158,-7.2854,-6.9015,-6.9015,-6.9015,-6.9015,-6.9015,-6.9015,-6.9015,-6.9015,-6.9015,-6.9015,-6.9015,-7.3232,-7.6564,-7.6564,-7.6564,-7.6564,-7.6564,-7.6564,-7.6564,-7.6564,-7.6564,-7.6564,-7.6564,-7.6564,-7.6564,-7.6564,-7.57,-7.3171,-6.8648,-6.2132,-5.8398,-5.791,-5.791,-5.791,-5.791,-5.791,-5.791,-5.791,-5.791,-5.791,-2.7811,-2.8661,-2.9744,-3.1904,0.0,0.0,-3.7154,-3.8728,-4.0396,-4.2131,-4.348,-4.473,-4.6039,-4.79,-4.9674,-5.1012,-5.2932,-5.5258,-5.8138,-5.8545,-5.901,-6.0264,-6.0409,-6.0612,-6.1193,-6.1252,-6.1252,-6.1252,-6.3111,-6.4769,-6.5845,-6.7881,-6.9015,-6.9015,-6.9015,-6.9015,-6.9015,-6.9015,-6.9015,-6.9015,-6.9015,-6.9015,-6.9015,-6.9015,-6.9015,-6.9015,-6.9015,-6.9015,-6.9015,-6.9015,-6.9015,-6.9073,-6.9596,-7.0265,-7.1138,-7.2854,-7.3988,-7.4831,-7.6169,-7.6564,-7.6564,-7.6564,-7.6564,-7.6564,-7.6564,-7.6564,-7.6564,-7.6564,-7.6041,-7.5315,-7.4541,-7.169,-6.9015,-6.9015,-6.9015,-6.9015,-6.9015,-6.9015,-6.9015,-6.9015,-6.9015,-6.9015,-6.9015,-7.0789,-7.3203,-7.61,-7.6564,-7.6564,-7.6564,-7.6564,-7.6564,-7.6564,-7.6564,-7.6564,-7.6564,-7.6564,-7.5355,-7.2388,-7.2185,-7.1225,-6.9102,-6.1877,-5.791,-5.791,-5.791,-5.791,-5.791,-5.791,-5.791,-5.791,-5.791,-5.791,-2.7613,0.0,0.0,0.0,0.0,0.0,-3.9,-4.0995,-4.3081,-4.4709,-4.6044,-4.7348,-4.8641,-5.0721,-5.2922,-5.4901,-5.7062,-5.8865,-5.9737,-5.9854,-6.0147,-6.1135,-6.1252,-6.1252,-6.1252,-6.1252,-6.1252,0.0,-6.3286,-6.474,-6.5089,-6.7241,-6.8637,-6.8986,-6.9015,-6.9015,-6.9015,-6.9015,-6.9015,-6.9015,-6.9015,-6.9015,-6.9015,-6.9015,-6.9015,-6.9015,-6.9015,-6.9015,-6.9015,-6.9015,-6.9015,-6.9015,-6.9015,-6.9596,-7.0556,-7.1778,-7.3028,-7.4279,-7.5617,-7.6315,-7.6564,-7.6564,-7.6564,-7.6564,-7.6564,-7.6564,-7.6564,-7.6564,-7.6373,-7.5559,-7.329,-7.0876,-6.9015,-6.9015,-6.9015,-6.9015,-6.9015,-6.9015,-6.9015,-6.9015,-6.9015,-6.9015,-6.9015,-6.9015,-7.0265,-7.3959,-7.4443,-7.4966,-7.646,-7.6564,-7.6564,-7.6564,-7.5355,-7.4443,-7.4443,-7.4443,-7.2941,-6.9247,-6.9015,-6.9015,-6.9015,-6.3877,-6.0011,-5.7986,-5.791,-5.791,-5.791,-5.791,-5.791,-5.791,-5.791,-5.791,0.0,0.0,0.0,-3.4673,-3.8118,-4.102,-4.1547,-4.5252,-4.8299,-4.7507,-4.8549,-5.0052,-5.1332,-5.2689,-5.4814,-5.8516,-6.0235,-6.1135,-6.1164,-6.1164,-6.1193,-6.1252,-6.1252,-6.1252,-6.1252,-6.1252,-6.1252,-6.1252,-6.2443,-6.3809,-6.5059,-6.6368,-6.7739,-6.8986,-6.9015,-6.9015,-6.9015,-6.9015,-6.9015,-6.9015,-6.9015,-6.9015,-6.9015,-6.9015,-6.9015,-6.9015,-6.9015,-6.9015,-6.9015,-6.9015,-6.9015,-6.9015,-6.9015,-6.9044,-6.9218,-7.0498,-7.1749,-7.297,-7.425,-7.5529,-7.6564,-7.6564,-7.6564,-7.6564,-7.6564,-7.6564,-7.6564,-7.6564,-7.5675,-7.4366,-7.3057,-7.0876,-6.9015,-6.9015,-6.9015,-6.9015,-6.9015,-6.9015,-6.9015,-6.9015,-6.9015,-6.9015,-6.9015,-6.9015,-6.9073,-6.9218,-6.9247,-7.1022,-7.5925,-7.6564,-7.6564,-7.6564,-7.2185,-6.9247,-6.9247,-6.9247,-6.9189,-6.9015,-6.9015,-6.9015,-6.9015,-6.8796,-6.5265,-5.8061,-5.791,-5.791,-5.791,-5.791,-5.791,-5.791,-5.791,-5.791,-3.114,-3.2642,-3.4129,-3.732,-3.9813,-4.2033,-4.4028,-4.6271,-4.8562,-5.094,-5.1238,-5.1964,-5.489,-5.589,-5.691,-5.8952,-6.038,-6.1252,-6.1252,-6.1252,-6.1252,-6.1252,-6.1252,-6.1252,-6.1252,-6.1252,-6.1252,-6.1252,-6.2414,0.0,-6.503,-6.64,-6.7648,-6.8986,-6.9015,-6.9015,-6.9015,-6.9015,-6.9015,-6.9015,-6.9015,-6.9015,-6.9015,-6.9015,-6.9015,-6.9015,-6.9015,-6.9015,-6.9015,-6.9015,-6.9015,-6.9015,-6.9015,-6.9015,-6.916,-7.044,-7.1167,-7.1836,-7.3901,-7.4919,-7.5442,-7.6344,-7.6564,-7.6564,-7.6564,-7.6564,-7.6564,-7.6564,-7.5675,-7.4337,-7.3057,-7.172,-7.0411,-6.9306,-6.9015,-6.9015,-6.9015,-6.9015,-6.9015,-6.9015,-6.9015,-6.9015,-6.9015,-6.9015,-6.9015,-6.9015,-6.9015,-6.9655,-7.1341,-7.1574,-7.1574,-7.1574,-7.0033,-6.9015,-6.9015,-6.9015,-6.9015,-6.9015,-6.9015,-6.9015,-6.9015,-6.4289,-6.0495,-5.7986,-5.791,-5.791,-5.791,-5.791,-5.791,-5.791,-5.791,-5.791,-3.3322,-3.5229,-3.7042,-3.9304,-4.2177,-4.4778,-4.6112,-4.8361,-5.0771,-5.2919,-5.2865,-5.328,-5.6177,-5.7514,-5.8545,-5.9824,-6.067,-6.1252,-6.1252,-6.1252,-6.1252,-6.1252,-6.1252,-6.1252,-6.1252,-6.1252,-6.1252,-6.1252,-6.2007,-6.3285,-6.5001,-6.5903,-6.7153,-6.8957,-6.9015,-6.9015,-6.9015,-6.9015,-6.9015,-6.9015,-6.9015,-6.9015,-6.9015,-6.9015,-6.9015,-6.9015,-6.9015,-6.9015,-6.9015,-6.9015,-6.9015,-6.9015,-6.9015,-6.9015,-6.9102,-6.9945,-7.0527,-7.1167,-7.2767,-7.3872,-7.4773,-7.5617,-7.6227,-7.6564,-7.6564,-7.6564,-7.6564,-7.6564,-7.5326,-7.3755,-7.2941,-7.169,-7.0382,-6.9277,-6.9015,-6.9015,-6.9015,-6.9015,-6.9015,-6.9015,-6.9015,-6.9015,-6.9015,-6.9015,-6.9015,-6.9015,-6.9015,-6.9015,-6.9015,-6.9015,-6.9015,-6.9015,-6.9015,-6.9015,-6.9015,-6.9015,-6.9015,-6.9015,-6.9015,-6.7843,-6.513,-6.0495,-5.791,-5.791,-5.791,-5.791,-5.791,-5.791,-5.791,-5.791,-5.791,-5.791,-3.4786,-3.7704,-4.0675,-4.0893,-4.5126,-4.89,-4.7928,-5.1509,-5.4727,-5.3672,-5.3587,-5.4174,-5.5534,-5.7725,-5.9737,-6.1019,-6.1252,-6.1252,-6.1252,-6.1252,-6.1252,-6.1252,-6.1252,-6.1252,-6.1252,-6.1252,-6.1252,-6.1252,-6.1252,-6.2327,-6.4885,-6.5059,-6.6281,-6.884,-6.8986,-6.9015,-6.9015,-6.9015,-6.9015,-6.9015,-6.9015,-6.9015,-6.9015,-6.9015,-6.9015,-6.9015,-6.9015,-6.9015,-6.9015,-6.9015,-6.9015,-6.9015,-6.9015,-6.9015,-6.9015,-6.9015,-6.9771,-7.0818,-7.0905,-7.2476,-7.4453,-7.457,-7.55,-7.6448,-7.6535,-7.6564,-7.6535,-7.6547,-7.4686,-7.2708,-7.265,-7.0818,-6.9015,-6.9015,-6.9015,-6.9015,-6.9015,-6.9015,-6.9015,-6.9015,-6.9015,-6.9015,-6.9015,-6.9015,-6.9015,-6.9015,-6.9015,-6.9015,-6.9015,-6.9015,-6.9015,-6.9015,-6.9015,-6.9015,-6.9015,-6.9015,-6.9015,-6.9015,-6.9015,-6.5895,-5.8809,-5.8111,-5.8136,-5.8461,-5.8111,-5.791,-5.791,-5.791,-5.791,-5.791,-5.791,-5.791,-3.7507,-3.9556,-4.142,-4.4628,-4.7286,-4.9645,-5.1515,-5.3531,-5.5219,-5.598,-5.5616,-5.5765,-5.793,-5.8882,-5.9737,-6.1019,-6.1252,-6.1252,-6.1252,-6.1252,-6.1252,-6.1252,-6.1252,-6.1252,-6.1252,-6.1252,-6.1252,-6.1252,-6.1252,-6.1949,-6.3605,-6.4594,-6.5874,-6.7473,-6.8491,-6.9015,-6.9015,-6.9015,-6.9015,-6.9015,-6.9015,-6.9015,-6.9015,-6.9015,-6.9015,-6.9015,-6.9015,-6.9015,-6.9015,-6.9015,-6.9015,-6.9015,-6.9015,-6.9015,-6.9015,-6.9015,-6.9218,-6.9655,-7.0585,-7.1341,-7.2185,-7.4017,-7.4861,-7.5326,-7.6315,-7.6564,-7.6431,-7.5413,-7.3959,-7.2505,-7.1632,-7.0207,-6.9015,-6.9015,-6.9015,-6.9015,-6.9015,-6.9015,-6.9015,-6.9015,-6.9015,-6.9015,-6.9015,-6.9015,-6.9015,-6.9015,-6.9015,-6.9015,-6.9015,-6.9015,-6.9015,-6.9015,-6.9015,-6.9015,-6.9015,-6.9015,-6.9015,-6.9015,-6.9015,-6.8193,-6.6227,-6.083,-6.0567,-6.6095,-6.0758,-5.791,-5.791,-5.791,-5.791,-5.791,-5.791,-5.791,-3.8332,-4.0905,-4.3308,-4.6996,-4.9443,-5.1422,-5.3061,-5.5159,-5.6654,-5.6434,-5.6363,-5.7127,-5.9587,-5.9632,-5.9737,-6.1019,-6.1252,-6.1252,-6.1252,-6.1252,-6.1252,-6.1252,-6.1252,-6.1252,-6.1252,-6.1252,-6.1252,-6.1252,-6.1252,-6.1804,-6.3082,-6.442,-6.5699,-6.704,-6.8317,-6.9015,-6.9015,-6.9015,-6.9015,-6.9015,-6.9015,-6.9015,-6.9015,-6.9015,-6.9015,-6.9015,-6.9015,-6.9015,-6.9015,-6.9015,-6.9015,-6.9015,-6.9015,-6.9015,-6.9015,-6.9015,-6.9015,-6.9102,-6.9829,-7.044,-7.1254,-7.3174,-7.4163,-7.489,-7.6227,-7.6564,-7.6344,-7.5006,-7.3697,-7.2447,-7.1254,-6.9975,-6.9015,-6.9015,-6.9015,-6.9015,-6.9015,-6.9015,-6.9015,-6.9015,-6.9015,-6.9015,-6.9015,-6.9015,-6.9015,-6.9015,-6.9015,-6.9015,-6.9015,-6.9015,-6.9015,-6.9015,-6.9015,-6.9015,-6.9015,-6.9015,-6.9015,-6.9015,-6.9015,-6.9015,-6.9015,-6.4995,-6.4792,-6.8952,-6.4928,-6.119,-5.791,-5.791,-5.791,-5.791,-5.791,-5.791,-3.8257,-4.1773,-4.5405,-4.8674,-5.1515,-5.3592,-5.4088,-5.6601,-5.8315,-5.6305,-5.6774,-5.8298,-6.0611,-6.0116,-5.9737,-6.1019,-6.1252,-6.1252,-6.1252,-6.1252,-6.1252,-6.1252,-6.1252,-6.1252,-6.1252,-6.1252,-6.1252,-6.1252,-6.1252,-6.1716,-6.285,-6.4332,-6.5612,-6.6778,-6.823,-6.9015,-6.9015,-6.9015,-6.9015,-6.9015,-6.9015,-6.9015,-6.9015,-6.9015,-6.9015,-6.9015,-6.9015,-6.9015,-6.9015,-6.9015,-6.9015,-6.9015,-6.9015,-6.9015,-6.9015,-6.9015,-6.9015,-6.9015,-6.9015,-6.9742,-7.0876,-7.2098,-7.3348,-7.4599,-7.5937,-7.6373,-7.6082,-7.4744,-7.3465,-7.2214,-7.0992,-6.9858,-6.9015,-6.9015,-6.9015,-6.9015,-6.9015,-6.9015,-6.9015,-6.9015,-6.9015,-6.9015,-6.9015,-6.9015,-6.9015,-6.9015,-6.9015,-6.9015,-6.9015,-6.9015,-6.9015,-6.9015,-6.9015,-6.9015,-6.9015,-6.9015,-6.9015,-6.9015,-6.9015,-6.9015,-6.9015,-6.9015,-6.9015,-6.9015,-6.8036,-6.4357,-5.791,-5.791,-5.791,-5.791,-5.791,-5.791,-3.907,-4.1917,-4.5501,-5.0876,-5.3404,-5.5176,-5.7445,-5.8446,-5.8761,-5.8388,-5.8559,-5.9251,-6.0753,-6.0116,-5.9737,-6.1019,-6.1252,-6.1252,-6.1252,-6.1252,-6.1252,-6.1252,-6.1252,-6.1252,-6.1252,-6.1252,-6.1252,-6.1252,-6.1252,-6.1339,-6.1571,-6.3838,-6.5205,-6.5438,-6.7764,-6.9015,-6.9015,-6.9015,-6.9015,-6.9015,-6.9015,-6.9015,-6.9015,-6.9015,-6.9015,-6.9015,-6.9015,-6.9015,-6.9015,-6.9015,-6.9015,-6.9015,-6.9015,-6.9015,-6.9015,-6.9015,-6.9015,-6.9015,-6.9015,-6.916,-6.9567,-7.0818,-7.2039,-7.329,-7.457,-7.4977,-7.4686,-7.3406,-7.2156,-7.0934,-6.9684,-6.9189,-6.9015,-6.9015,-6.9015,-6.9015,-6.9015,-6.9015,-6.9015,-6.9015,-6.9015,-6.9015,-6.9015,-6.9015,-6.9015,-6.9015,-6.9015,-6.9015,-6.9015,-6.9015,-6.9015,-6.9015,-6.9015,-6.9015,-6.9015,-6.9015,-6.9015,-6.9015,-6.9015,-6.9015,-6.9015,-6.9015,-6.9015,-6.9015,-6.2977,-5.9228,-5.791,-5.791,-5.791,-5.791,-5.791,-5.791,-4.006,-4.2815,-4.582,-4.8609,-5.2076,-5.5542,-5.8285,-5.9363,-5.9793,-5.9793,-5.9388,-5.9224,-5.9883,-5.907,-5.8692,-5.9996,-6.0206,-6.0438,-6.1135,-6.1252,-6.1252,-6.1252,-6.1252,-6.1252,-6.1252,-6.1252,-6.1252,-6.1252,-6.1252,-6.1252,-6.1252,-6.3082,-6.442,-6.5089,-6.6979,-6.8317,-6.9015,-6.9015,-6.9015,-6.9015,-6.9015,-6.9015,-6.9015,-6.9015,-6.9015,-6.9015,-6.9015,-6.9015,-6.9015,-6.9015,-6.9015,-6.9015,-6.9015,-6.9015,-6.9015,-6.9015,-6.9015,-6.9015,-6.9015,-6.9015,-6.9218,-7.0498,-7.1312,-7.201,-7.3261,-7.3639,-7.3377,-7.2127,-7.1371,-7.0643,-6.9335,-6.9015,-6.9015,-6.9015,-6.9015,-6.9015,-6.9015,-6.9015,-6.9015,-6.9015,-6.9015,-6.9015,-6.9015,-6.9015,-6.9015,-6.9015,-6.9015,-6.9015,-6.9015,-6.9015,-6.9015,-6.9015,-6.9015,-6.9015,-6.9015,-6.9015,-6.9015,-6.9015,-6.9015,-6.9015,-6.9015,-6.9015,-6.7843,-6.5198,-6.0422,-5.791,-5.791,-5.791,-5.791,-5.791,-5.791,-5.791,-4.0917,-4.3597,-4.6011,-4.6332,-5.0325,-5.504,-5.8122,-5.9788,-6.0629,-6.0629,-5.9714,-5.8927,-5.9069,-5.8108,-5.7791,-5.908,-5.9301,-5.9766,-6.1048,-6.1252,-6.1252,-6.1252,-6.1252,-6.1252,-6.1252,-6.1252,-6.1252,-6.1252,-6.1252,-6.1252,-6.1252,-6.2443,-6.3809,-6.5059,-6.64,-6.7648,-6.8986,-6.9015,-6.9015,-6.9015,-6.9015,-6.9015,-6.9015,-6.9015,-6.9015,-6.9015,-6.9015,-6.9015,-6.9015,-6.9015,-6.9015,-6.9015,-6.9015,-6.9015,-6.9015,-6.9015,-6.9015,-6.9015,-6.9015,-6.9015,-6.9189,-7.0178,-7.0702,-7.1109,-7.2039,-7.233,-7.2127,-7.1196,-7.0731,-7.0265,-6.9277,-6.9015,-6.9015,-6.9015,-6.9015,-6.9015,-6.9015,-6.9015,-6.9015,-6.9015,-6.9015,-6.9015,-6.9015,-6.9015,-6.9015,-6.9015,-6.9015,-6.9015,-6.9015,-6.9015,-6.9015,-6.9015,-6.9015,-6.9015,-6.9015,-6.9015,-6.9015,-6.9015,-6.9015,-6.9015,-6.9015,-6.8542,-6.6453,-6.2627,-6.0251,-5.8858,-5.8536,-5.8536,-5.8312,-5.791,-5.791,-5.791,-4.1369,-4.372,-4.5878,-4.7158,-4.9849,-5.3295,-5.7557,-5.9633,-6.0629,-6.0629,-5.9714,-5.8927,-5.9069,-5.8108,-5.7791,-5.908,-5.9301,-5.9766,-6.1048,-6.1252,-6.1252,-6.1252,-6.1252,-6.1252,-6.1252,-6.1252,-6.1252,-6.1252,-6.1252,-6.1252,-6.1252,-6.2443,-6.3809,-6.5059,-6.64,-6.7648,-6.8986,-6.9015,-6.9015,-6.9015,-6.9015,-6.9015,-6.9015,-6.9015,-6.9015,-6.9015,-6.9015,-6.9015,-6.9015,-6.9015,-6.9015,-6.9015,-6.9015,-6.9015,-6.9015,-6.9015,-6.9015,-6.9015,-6.9015,-6.9015,-6.9044,-6.916,-6.9975,-7.0934,-7.1051,-7.108,-7.1051,-7.0963,-7.0091,-6.916,-6.9044,-6.9015,-6.9015,-6.9015,-6.9015,-6.9015,-6.9015,-6.9015,-6.9015,-6.9015,-6.9015,-6.9015,-6.9015,-6.9015,-6.9015,-6.9015,-6.9015,-6.9015,-6.9015,-6.9015,-6.9015,-6.9015,-6.9015,-6.9015,-6.9015,-6.9015,-6.9015,-6.9015,-6.9015,-6.9015,-6.9015,-6.6848,-6.564,-6.5651,-6.3865,-6.2056,-6.0392,-6.0392,-5.9521,-5.791,-5.791,-5.791,-4.1025,-4.3442,-4.5834,-4.7277,-4.9778,-5.2837,-5.6388,-5.6947,-5.7177,-5.9018,-5.9662,-5.9757,-5.9087,-5.8014,-5.7435,-5.803,-5.8167,-5.8661,-5.9912,-6.0729,-6.1252,-6.1252,-6.1252,-6.1252,-6.1252,-6.1252,-6.1252,-6.1252,-6.1252,-6.1252,-6.1252,-6.1716,-6.2937,-6.5059,-6.5612,-6.6863,-6.8986,-6.9015,-6.9015,-6.9015,-6.9015,-6.9015,-6.9015,-6.9015,-6.9015,-6.9015,-6.9015,-6.9015,-6.9015,-6.9015,-6.9015,-6.9015,-6.9015,-6.9015,-6.9015,-6.9015,-6.9015,-6.9015,-6.9015,-6.9015,-6.9015,-6.9015,-6.9364,-6.9771,-6.9771,-6.9771,-6.9771,-6.9771,-6.9422,-6.9015,-6.9015,-6.9015,-6.9015,-6.9015,-6.9015,-6.9015,-6.9015,-6.9015,-6.9015,-6.9015,-6.9015,-6.9015,-6.9015,-6.9015,-6.9015,-6.9015,-6.9015,-6.9015,-6.9015,-6.9015,-6.9015,-6.9015,-6.9015,-6.9015,-6.9015,-6.9015,-6.9015,-6.9015,-6.9015,-6.9015,-6.9015,-6.6951,-6.5878,-6.6077,-6.4275,-6.3036,-6.2267,-6.123,-6.0273,-5.9521,-5.8461,-5.791,-4.0796,-4.3,-4.5176,-4.6652,-4.8823,-5.1423,-5.4384,-5.4185,-5.4118,-5.6648,-5.8689,-5.9667,-5.8478,-5.7652,-5.7153,-5.7311,-5.7467,-5.7934,-5.9126,-6.0409,-6.1252,-6.1252,-6.1252,-6.1252,-6.1252,-6.1252,-6.1252,-6.1252,-6.1252,-6.1252,-6.1252,-6.1252,-6.2414,-6.503,-6.5118,-6.6368,-6.8986,-6.9015,-6.9015,-6.9015,-6.9015,-6.9015,-6.9015,-6.9015,-6.9015,-6.9015,-6.9015,-6.9015,-6.9015,-6.9015,-6.9015,-6.9015,-6.9015,-6.9015,-6.9015,-6.9015,-6.9015,-6.9015,-6.9015,-6.9015,-6.9015,-6.9015,-6.9015,-6.9015,-6.9015,-6.9015,-6.9015,-6.9015,-6.9015,-6.9015,-6.9015,-6.9015,-6.9015,-6.9015,-6.9015,-6.9015,-6.9015,-6.9015,-6.9015,-6.9015,-6.9015,-6.9015,-6.9015,-6.9015,-6.9015,-6.9015,-6.9015,-6.9015,-6.9015,-6.9015,-6.9015,-6.9015,-6.9015,-6.9015,-6.9015,-6.9015,-6.9015,-6.9015,-6.9015,-6.9015,-6.9015,-6.7722,-6.6922,-6.6922,-6.5678,-6.4507,-6.3356,-6.2056,-6.0897,-5.9789,-5.8511,-5.791,-4.0796,-4.225,-4.3729,-4.5143,-4.6586,-4.8429,-5.1324,-5.1916,-5.2311,-5.3789,-5.6451,-5.8195,-5.7,-5.699,-5.7153,-5.7311,-5.7467,-5.7934,-5.9126,-6.0409,-6.1252,-6.1252,-6.1252,-6.1252,-6.1252,-6.1252,-6.1252,-6.1252,-6.1252,-6.1252,-6.1252,-6.1252,-6.2414,-6.503,-6.5118,-6.6368,-6.8986,-6.9015,-6.9015,-6.9015,-6.9015,-6.9015,-6.9015,-6.9015,-6.9015,-6.9015,-6.9015,-6.9015,-6.9015,-6.9015,-6.9015,-6.9015,-6.9015,-6.9015,-6.9015,-6.9015,-6.9015,-6.9015,-6.9015,-6.9015,-6.9015,-6.9015,-6.9015,-6.9015,-6.9015,-6.9015,-6.9015,-6.9015,-6.9015,-6.9015,-6.9015,-6.9015,-6.9015,-6.9015,-6.9015,-6.9015,-6.9015,-6.9015,-6.9015,-6.9015,-6.9015,-6.9015,-6.9015,-6.9015,-6.9015,-6.9015,-6.9015,-6.9015,-6.9015,-6.9015,-6.9015,-6.9015,-6.9015,-6.9015,-6.9015,-6.9015,-6.9015,-6.9015,-6.9015,-6.9015,-6.9015,-6.9015,-6.9015,-6.9015,-6.8952,-6.7109,-6.3356,-6.3356,-6.147,-5.791,-5.791,-5.791,-3.92,-4.0737,-4.2474,-4.488,-4.5834,-4.6422,-4.7313,-4.8264,-4.9383,-5.0831,-5.264,-5.4511,-5.6156,-5.6047,-5.5715,-5.5757,-5.5974,-5.6625,-5.7905,-5.9126,-6.0206,-6.1135,-6.1252,-6.1252,-6.1252,-6.1252,-6.1252,-6.1252,-6.1252,-6.1252,-6.1252,-6.1252,-6.2007,-6.3751,-6.4652,-6.5932,-6.7648,-6.8549,-6.9015,-6.9015,-6.9015,-6.9015,-6.9015,-6.9015,-6.9015,-6.9015,-6.9015,-6.9015,-6.9015,-6.9015,-6.9015,-6.9015,-6.9015,-6.9015,-6.9015,-6.9015,-6.9015,-6.9015,-6.9015,-6.9015,-6.9015,-6.9015,-6.9015,-6.9015,-6.9015,-6.9015,-6.9015,-6.9015,-6.9015,-6.9015,-6.9015,-6.9015,-6.9015,-6.9015,-6.9015,-6.9015,-6.9015,-6.9015,-6.9015,-6.9015,-6.9015,-6.9015,-6.9015,-6.9015,-6.9015,-6.9015,-6.9015,-6.9015,-6.9015,-6.9015,-6.9015,-6.9015,-6.9015,-6.9015,-6.9015,-6.9015,-6.9015,-6.9015,-6.9015,-6.9015,-6.9015,-6.9015,-6.9015,-6.9015,-6.9015,-6.775,-6.5249,-6.4002,-6.2152,-5.9716,-5.8536,-5.791,-3.782,-3.9587,-4.1618,-4.3428,-4.4255,-4.4683,-4.4683,-4.5768,-4.708,-4.7971,-4.9286,-5.1028,-5.3462,-5.3964,-5.4192,-5.488,-5.5287,-5.5761,-5.67,-5.8225,-5.9592,-6.038,-6.0932,-6.1252,-6.1252,-6.1252,-6.1252,-6.1252,-6.1252,-6.1252,-6.1252,-6.1252,-6.1833,-6.3169,-6.4449,-6.5728,-6.7069,-6.8346,-6.9015,-6.9015,-6.9015,-6.9015,-6.9015,-6.9015,-6.9015,-6.9015,-6.9015,-6.9015,-6.9015,-6.9015,-6.9015,-6.9015,-6.9015,-6.9015,-6.9015,-6.9015,-6.9015,-6.9015,-6.9015,-6.9015,-6.9015,-6.9015,-6.9015,-6.9015,-6.9015,-6.9015,-6.9015,-6.9015,-6.9015,-6.9015,-6.9015,-6.9015,-6.9015,-6.9015,-6.9015,-6.9015,-6.9015,-6.9015,-6.9015,-6.9015,-6.9015,-6.9015,-6.9015,-6.9015,-6.9015,-6.9015,-6.9015,-6.9015,-6.9015,-6.9015,-6.9015,-6.9015,-6.9015,-6.9015,-6.9015,-6.9015,-6.9015,-6.9015,-6.9015,-6.9015,-6.9015,-6.9015,-6.9015,-6.9015,-6.9015,-6.7722,-6.502,-6.3934,-6.2082,-5.9594,-5.8461,-5.791,-3.6716,-3.8855,-4.1059,-4.1191,-4.2283,-4.334,-4.334,-4.4387,-4.534,-4.534,-4.6488,-4.7869,-4.922,-5.0821,-5.2546,-5.4372,-5.4934,-5.533,-5.5632,-5.7795,-5.9347,-5.9434,-6.0464,-6.1252,-6.1252,-6.1252,-6.1252,-6.1252,-6.1252,-6.1252,-6.1252,-6.1252,-6.1804,-6.2966,-6.4391,-6.567,-6.6924,-6.8288,-6.9015,-6.9015,-6.9015,-6.9015,-6.9015,-6.9015,-6.9015,-6.9015,-6.9015,-6.9015,-6.9015,-6.9015,-6.9015,-6.9015,-6.9015,-6.9015,-6.9015,-6.9015,-6.9015,-6.9015,-6.9015,-6.9015,-6.9015,-6.9015,-6.9015,-6.9015,-6.9015,-6.9015,-6.9015,-6.9015,-6.9015,-6.9015,-6.9015,-6.9015,-6.9015,-6.9015,-6.9015,-6.9015,-6.9015,-6.9015,-6.9015,-6.9015,-6.9015,-6.9015,-6.9015,-6.9015,-6.9015,-6.9015,-6.9015,-6.9015,-6.9015,-6.9015,-6.9015,-6.9015,-6.9015,-6.9015,-6.9015,-6.9015,-6.9015,-6.9015,-6.9015,-6.9015,-6.9015,-6.9015,-6.9015,-6.9015,-6.9015,-6.724,-6.359,-6.359,-6.1683,-5.8111,-5.8111,-5.8036,-3.643,-3.8074,-3.9718,-4.0927,-4.2283,-4.334,-4.334,-4.3603,-4.3861,-4.3861,-4.4979,-4.6093,-4.6425,-4.7723,-4.927,-5.1027,-5.3395,-5.5423,-5.6475,-5.8162,-5.9622,-6.0525,-6.0955,-6.1252,-6.1252,-6.1252,-6.1252,-6.1252,-6.1252,-6.1252,-6.1252,-6.1252,-6.1368,-6.1687,-6.3925,-6.5263,-6.5554,-6.7851,-6.9015,-6.9015,-6.9015,-6.9015,-6.9015,-6.9015,-6.9015,-6.9015,-6.9015,-6.9015,-6.9015,-6.9015,-6.9015,-6.9015,-6.9015,-6.9015,-6.9015,-6.9015,-6.9015,-6.9015,-6.9015,-6.9015,-6.9015,-6.9015,-6.9015,-6.9015,-6.9015,-6.9015,-6.9015,-6.9015,-6.9015,-6.9015,-6.9015,-6.9015,-6.9015,-6.9015,-6.9015,-6.9015,-6.9015,-6.9015,-6.9015,-6.9015,-6.9015,-6.9015,-6.9015,-6.9015,-6.9015,-6.9015,-6.9015,-6.9015,-6.9015,-6.9015,-6.9015,-6.9015,-6.9015,-6.9015,-6.9015,-6.9015,-6.9015,-6.9015,-6.9015,-6.9015,-6.9015,-6.9015,-6.9015,-6.9015,-6.9015,-6.7879,-6.545,-6.545,-6.359,-6.0008,-6.0008,-5.9252,-3.5575,-3.7294,-3.9266,-4.0829,-4.2283,-4.334,-4.334,-4.2842,-4.2348,-4.2348,-4.2973,-4.3527,-4.3527,-4.5237,-4.6967,-4.7844,-5.035,-5.3089,-5.5684,-5.6422,-5.7593,-5.9948,-6.029,-6.0554,-6.1164,-6.1252,-6.1252,-6.1252,-6.1252,-6.1252,-6.1252,-6.1252,-6.1252,-6.1252,-6.378,-6.5118,-6.5118,-6.7706,-6.9015,-6.9015,-6.9015,-6.9015,-6.9015,-6.9015,-6.9015,-6.9015,-6.9015,-6.9015,-6.9015,-6.9015,-6.9015,-6.9015,-6.9015,-6.9015,-6.9015,-6.9015,-6.9015,-6.9015,-6.9015,-6.9015,-6.9015,-6.9015,-6.9015,-6.9015,-6.9015,-6.9015,-6.9015,-6.9015,-6.9015,-6.9015,-6.9015,-6.9015,-6.9015,-6.9015,-6.9015,-6.9015,-6.9015,-6.9015,-6.9015,-6.9015,-6.9015,-6.9015,-6.9015,-6.9015,-6.9015,-6.9015,-6.9015,-6.9015,-6.9015,-6.9015,-6.9015,-6.9015,-6.9015,-6.9015,-6.9015,-6.9015,-6.9015,-6.9015,-6.9015,-6.9015,-6.9015,-6.9015,-6.9015,-6.9015,-6.9015,-6.8072,-6.6077,-6.6077,-6.4207,-6.0681,-6.0681,-5.9668,-3.4929,-3.7031,-3.9562,-4.0862,-4.2118,-4.3039,-4.3039,-4.1888,-4.0862,-4.0862,-4.0862,-4.0862,-4.0862,-4.3033,-4.4908,-4.511,-4.7099,-5.008,-5.4341,-5.4351,-5.5243,-5.8867,-5.9282,-5.977,-6.1106,-6.1252,-6.1252,-6.1252,-6.1252,-6.1252,-6.1252,-6.1252,-6.1252,-6.1252,-6.378,-6.5118,-6.5118,-6.7706,-6.9015,-6.9015,-6.9015,-6.9015,-6.9015,-6.9015,-6.9015,-6.9015,-6.9015,-6.9015,-6.9015,-6.9015,-6.9015,-6.9015,-6.9015,-6.9015,-6.9015,-6.9015,-6.9015,-6.9015,-6.9015,-6.9015,-6.9015,-6.9015,-6.9015,-6.9015,-6.9015,-6.9015,-6.9015,-6.9015,-6.9015,-6.9015,-6.9015,-6.9015,-6.9015,-6.9015,-6.9015,-6.9015,-6.9015,-6.9015,-6.9015,-6.9015,-6.9015,-6.9015,-6.9015,-6.9015,-6.9015,-6.9015,-6.9015,-6.9015,-6.9015,-6.9015,-6.9015,-6.9015,-6.9015,-6.9015,-6.9015,-6.9015,-6.9015,-6.9015,-6.9015,-6.9015,-6.9015,-6.9015,-6.9015,-6.9015,-6.9015,-6.8229,-6.6567,-6.6209,-6.4343,-6.1086,-6.0799,-5.9668,-3.6397,-3.8592,-4.0927,-4.1125,-4.1355,-4.1553,-4.1553,-4.0343,-3.9233,-3.9233,-3.9233,-3.9233,-3.9233,-4.0672,-4.2276,-4.3499,-4.5993,-4.9432,-5.4014,-5.4931,-5.6178,-5.8967,-5.9282,-5.977,-6.1106,-6.1252,-6.1252,-6.1252,-6.1252,-6.1252,-6.1252,-6.1252,-6.1252,-6.1252,-6.378,-6.5118,-6.5118,-6.7706,-6.9015,-6.9015,-6.9015,-6.9015,-6.9015,-6.9015,-6.9015,-6.9015,-6.9015,-6.9015,-6.9015,-6.9015,-6.9015,-6.9015,-6.9015,-6.9015,-6.9015,-6.9015,-6.9015,-6.9015,-6.9015,-6.9015,-6.9015,-6.9015,-6.9015,-6.9015,-6.9015,-6.9015,-6.9015,-6.9015,-6.9015,-6.9015,-6.9015,-6.9015,-6.9015,-6.9015,-6.9015,-6.9015,-6.9015,-6.9015,-6.9015,-6.9015,-6.9015,-6.9015,-6.9015,-6.9015,-6.9015,-6.9015,-6.9015,-6.9015,-6.9015,-6.9015,-6.9015,-6.9015,-6.9015,-6.9015,-6.9015,-6.9015,-6.9015,-6.9015,-6.9015,-6.9015,-6.9015,-6.9015,-6.9015,-6.9015,-6.9015,-6.8859,-6.8576,-6.6922,-6.502,-6.2967,-6.1372,-5.9668,-3.7689,-4.0054,-4.2381,-4.2381,-4.2381,-4.2151,-4.1388,-4.0014,-3.865,-3.7886,-3.7689,-3.7689,-3.7689,-3.9619,-4.1421,-4.2085,-4.4584,-4.7306,-4.9665,-5.1835,-5.4697,-5.8786,-5.8744,-5.9097,-6.1048,-6.1252,-6.1252,-6.1252,-6.1252,-6.1252,-6.1252,-6.1252,-6.1252,-6.1252,-6.378,-6.5118,-6.5118,-6.7706,-6.9015,-6.9015,-6.9015,-6.9015,-6.9015,-6.9015,-6.9015,-6.9015,-6.9015,-6.9015,-6.9015,-6.9015,-6.9015,-6.9015,-6.9015,-6.9015,-6.9015,-6.9015,-6.9015,-6.9015,-6.9015,-6.9015,-6.9015,-6.9015,-6.9015,-6.9015,-6.9015,-6.9015,-6.9015,-6.9015,-6.9015,-6.9015,-6.9015,-6.9015,-6.9015,-6.9015,-6.9015,-6.9015,-6.9015,-6.9015,-6.9015,-6.9015,-6.9015,-6.9015,-6.9015,-6.9015,-6.9015,-6.9015,-6.9015,-6.9015,-6.9015,-6.9015,-6.9015,-6.9015,-6.9015,-6.9015,-6.9015,-6.9015,-6.9015,-6.9015,-6.9015,-6.9015,-6.9015,-6.9015,-6.9015,-6.9015,-6.9015,-6.9015,-6.9015,-6.8072,-6.6171,-6.3356,-6.2548,-6.0635,-3.9529,0.0,-4.334,-4.334,-4.3077,-4.2447,0.0,-3.9488,-3.7984,-3.6529,-3.6233,-3.6233,-3.6233,-3.8666,-4.0664,-4.0664,-4.3368,-4.564,-4.6012,-4.9255,-5.3613,-5.9113,-5.8673,-5.8936,-6.1517,-6.1447,-6.1252,-6.1252,-6.1252,-6.1252,-6.1252,-6.1252,-6.1252,-6.1252,-6.3489,-6.4798,-6.5118,-6.7386,-6.8695,-6.9015,-6.9015,-6.9015,-6.9015,-6.9015,-6.9015,-6.9015,-6.9015,-6.9015,-6.9015,-6.9015,-6.9015,-6.9015,-6.9015,-6.9015,-6.9015,-6.9015,-6.9015,-6.9015,-6.9015,-6.9015,-6.9015,-6.9015,-6.9015,-6.9015,-6.9015,-6.9015,-6.9015,-6.9015,-6.9015,-6.9015,-6.9015,-6.9015,-6.9015,-6.9015,-6.9015,-6.9015,-6.9015,-6.9015,-6.9015,-6.9015,-6.9015,-6.9015,-6.9015,-6.9015,-6.9015,-6.9015,-6.9015,-6.9015,-6.9015,-6.9015,-6.9015,-6.9015,-6.9015,-6.9015,-6.9015,-6.9015,-6.9015,-6.9015,-6.9015,-6.9015,-6.9015,-6.9015,-6.9015,-6.9015,-6.9015,-6.9015,-6.9015,-6.8513,-6.682,-6.4002,-6.3175,-6.147,0.0,-4.3176,-4.334,-4.334,-4.2348,-4.096,-3.9397,-3.7919,0.0,-3.5027,-3.4764,-3.4764,-3.4764,-3.713,-3.9069,-3.9069,-4.265,-4.564,-4.6012,-4.964,-5.4454,-6.0395,-5.9946,-6.0248,-6.2943,-6.1998,-6.1252,-6.1252,-6.1252,-6.1252,-6.1252,-6.1252,-6.1252,-6.1252,-6.2559,-6.3925,-6.5089,-6.6516,-6.7793,-6.9015,-6.9015,-6.9015,-6.9015,-6.9015,-6.9015,-6.9015,-6.9015,-6.9015,-6.9015,-6.9015,-6.9015,-6.9015,-6.9015,-6.9015,-6.9015,-6.9015,-6.9015,-6.9015,-6.9015,-6.9015,-6.9015,-6.9015,-6.9015,-6.9015,-6.9015,-6.9015,-6.9015,-6.9015,-6.9015,-6.9015,-6.9015,-6.9015,-6.9015,-6.9015,-6.9015,-6.9015,-6.9015,-6.9015,-6.9015,-6.9015,-6.9015,-6.9015,-6.9015,-6.9015,-6.9015,-6.9015,-6.9015,-6.9015,-6.9015,-6.9015,-6.9015,-6.9015,-6.9015,-6.9015,-6.9015,-6.9015,-6.9015,-6.9015,-6.9015,-6.9015,-6.9015,-6.9015,-6.9015,-6.9015,-6.9015,-6.9015,-6.9015,-6.7146,-6.6143,-6.5784,-6.2408,-6.1657,-4.3176,-4.334,-4.334,-4.334,-4.2913,-4.2151,-4.0672,-3.9159,-3.7656,-3.6233,-3.5214,-3.46,-3.46,-3.6966,-3.888,-3.888,-4.1862,-4.4832,-4.676,-4.929,-5.2463,-5.6597,-5.8373,-6.0014,-6.1872,-6.1558,-6.1252,-6.1252,-6.1252,-6.1252,-6.1252,-6.1252,-6.1252,-6.1252,-6.2472,-6.3809,-6.5089,-6.6429,-6.7739,-6.9015,-6.9015,-6.9015,-6.9015,-6.9015,-6.9015,-6.9015,-6.9015,-6.9015,0.0,-6.9015,-6.9015,-6.9015,-6.9015,-6.9015,-6.9015,-6.9015,-6.9015,-6.9015,-6.9015,-6.9015,-6.9015,-6.9015,-6.9015,-6.9015,-6.9015,-6.9015,-6.9015,-6.9015,-6.9015,-6.9015,-6.9015,-6.9015,-6.9015,-6.9015,-6.9015,-6.9015,-6.9015,-6.9015,-6.9015,-6.9015,-6.9015,-6.9015,-6.9015,-6.9015,-6.9015,-6.9015,-6.9015,-6.9015,-6.9015,-6.9015,-6.9015,-6.9015,-6.9015,-6.9015,-6.9015,-6.9015,-6.9015,-6.9015,-6.9015,-6.9015,-6.9015,-6.9015,-6.9015,-6.9015,-6.9015,-6.9015,-6.9015,-6.8293,-6.7276,-6.6077,-6.4683,-6.3796,-4.4025,-4.4025,-4.4025,-4.4025,-4.3669,-4.3006,-4.1553,-4.0014,-3.8453,-3.7022,-3.5608,-3.46,-3.46,-3.6966,-3.888,-3.888,-4.1763,-4.488,-4.7277,-4.9459,-5.1896,-5.4841,-5.7952,-6.026,-6.1088,-6.1227,-6.1252,-6.1252,-6.1252,-6.1252,-6.1252,-6.1252,-6.1252,-6.1252,-6.2094,-6.3402,-6.5089,-6.5961,-6.7299,-6.9015,-6.9015,-6.9015,-6.9015,-6.9015,-6.9015,-6.9015,-6.9015,-6.9015,-6.9015,-6.9015,-6.9015,-6.9015,-6.9015,-6.9015,-6.9015,-6.9015,-6.9015,-6.9015,-6.9015,-6.9015,-6.9015,-6.9015,-6.9015,-6.9015,-6.9015,-6.9015,-6.9015,-6.9015,-6.9015,-6.9015,-6.9015,-6.9015,-6.9015,-6.9015,-6.9015,-6.9015,-6.9015,-6.9015,-6.9015,-6.9015,-6.9015,-6.9015,-6.9015,-6.9015,-6.9015,-6.9015,-6.9015,-6.9015,-6.9015,-6.9015,-6.9015,-6.9015,-6.9015,-6.9015,-6.9015,-6.9015,-6.9015,-6.9015,-6.9015,-6.9015,-6.9015,-6.9015,-6.9015,-6.9015,-6.9015,-6.9015,-6.9015,-6.9015,-6.8293,-6.6988,-6.6988,-6.6011,-4.5505,-4.5505,-4.5505,-4.5472,-4.442,-4.3006,-4.1553,-4.0047,-3.851,-3.7055,-3.5608,-3.4633,-3.4633,-3.6942,-3.888,-3.888,-4.2611,-4.5994,-4.7409,-5.0333,-5.3309,-5.6018,-5.9245,-6.1173,-6.1047,-6.1151,-6.1279,-6.1223,-6.1223,-6.1252,-6.1252,-6.1252,-6.1252,-6.1252,-6.1252,-6.2443,-6.5059,-6.5118,-6.6426,-6.8986,-6.9015,-6.9015,-6.9015,-6.9015,-6.9015,-6.9015,-6.9015,-6.9015,-6.9015,-6.9015,-6.9015,-6.9015,-6.9015,-6.9015,-6.9015,-6.9015,-6.9015,-6.9015,-6.9015,-6.9015,-6.9015,-6.9015,-6.9015,-6.9015,-6.9015,-6.9015,-6.9015,-6.9015,-6.9015,-6.9015,-6.9015,-6.9015,-6.9015,-6.9015,-6.9015,-6.9015,-6.9015,-6.9015,-6.9015,-6.9015,-6.9015,-6.9015,-6.9015,-6.9015,-6.9015,-6.9015,-6.9015,-6.9015,-6.9015,-6.9015,-6.9015,-6.9015,-6.9015,-6.9015,-6.9015,-6.9015,-6.9015,-6.9015,-6.9015,-6.9015,-6.9015,-6.9015,-6.9015,-6.9015,-6.9015,-6.9015,-6.9015,-6.9015,-6.9015,-6.9015,-6.8986,-6.7915,-4.6718,-4.6981,-4.6751,-4.5735,-4.5176,-4.4486,-4.3039,-4.1592,-4.008,-3.8576,-3.7097,-3.6101,-3.6101,-3.7623,-3.9233,-4.0343,-4.3302,-4.5994,-4.7409,-5.0333,-5.3309,-5.6018,-5.9245,-6.1173,-6.1047,-6.2935,-6.3704,-6.2785,-6.1807,-6.1252,-6.1252,-6.1252,-6.1252,-6.1252,-6.1252,-6.2036,-6.3751,-6.4652,-6.5961,-6.7619,-6.8549,-6.9015,-6.9015,-6.9015,-6.9015,-6.9015,-6.9015,-6.9015,-6.9015,-6.9015,-6.9015,-6.9015,-6.9015,-6.9015,-6.9015,-6.9015,-6.9015,-6.9015,-6.9015,-6.9015,-6.9015,-6.9015,-6.9015,-6.9015,-6.9015,-6.9015,-6.9015,-6.9015,-6.9015,-6.9015,-6.9015,-6.9015,-6.9015,-6.9015,-6.9015,-6.9015,-6.9015,-6.9015,-6.9015,-6.9015,-6.9015,-6.9015,-6.9015,-6.9015,-6.9015,-6.9015,-6.9015,-6.9015,-6.9015,-6.9015,-6.9015,-6.9015,-6.9015,-6.9015,-6.9015,-6.9015,-6.9015,-6.9015,-6.9015,-6.9015,-6.9015,-6.9015,-6.9015,-6.9015,-6.9015,-6.9015,-6.9015,-6.9015,-6.9015,-6.8986,-6.8055,-6.6692,-4.81,-4.8494,-4.8267,-4.7412,-4.6327,-4.5242,-4.4387,-4.2671,-4.0927,-4.0014,-3.8609,-3.7614,-3.7614,-3.8773,-4.0113,-4.1059,-4.4086,-4.6849,-4.8267,-5.1205,-5.4407,-5.7692,-5.9956,-6.1422,-6.187,-6.3492,-6.3965,-6.2623,-6.1696,-6.1252,-6.1252,-6.1252,-6.1252,-6.1252,-6.1252,-6.1862,-6.3169,-6.4449,-6.5757,-6.7098,-6.8375,-6.9015,-6.9015,-6.9015,-6.9015,-6.9015,-6.9015,-6.9015,-6.9015,-6.9015,-6.9015,-6.9015,-6.9015,-6.9015,-6.9015,-6.9015,-6.9015,-6.9015,-6.9015,-6.9015,-6.9015,-6.9015,-6.9015,-6.9015,-6.9015,-6.9015,-6.9015,-6.9015,-6.9015,-6.9015,-6.9015,-6.9015,-6.9015,-6.9015,-6.9015,-6.9015,-6.9015,-6.9015,-6.9015,-6.9015,-6.9015,-6.9015,-6.9015,-6.9015,-6.9015,-6.9015,-6.9015,-6.9015,-6.9015,-6.9015,-6.9015,-6.9015,-6.9015,-6.9015,-6.9015,-6.9015,-6.9015,-6.9015,-6.9015,-6.9015,-6.9015,-6.9015,-6.9015,-6.9015,-6.9015,-6.8753,-6.823,-6.823,-6.7939,-6.7444,-6.663,-6.5371,-4.9385,-4.9846,-4.9912,-4.9812,-4.7708,-4.5636,-4.5505,-4.3362,-4.1355,-4.1224,-4.008,-3.9077,-3.9077,-4.0244,-4.1289,-4.1553,-4.5106,-4.833,-4.9779,-5.2856,-5.6415,-6.0186,-6.1232,-6.203,-6.3098,-6.351,-6.3023,-6.1335,-6.1335,-6.1391,-6.1252,-6.1252,-6.1252,-6.1252,-6.1252,-6.1804,-6.2966,-6.4303,-6.5583,-6.6924,-6.82,-6.8898,-6.9015,-6.9015,-6.9015,-6.9015,-6.9015,-6.9015,-6.9015,-6.9015,-6.9015,-6.9015,-6.9015,-6.9015,-6.9015,-6.9015,-6.9015,-6.9015,-6.9015,-6.9015,-6.9015,-6.9015,-6.9015,-6.9015,-6.9015,-6.9015,-6.9015,-6.9015,-6.9015,-6.9015,-6.9015,-6.9015,-6.9015,-6.9015,-6.9015,-6.9015,-6.9015,-6.9015,-6.9015,-6.9015,-6.9015,-6.9015,-6.9015,-6.9015,-6.9015,-6.9015,-6.9015,-6.9015,-6.9015,-6.9015,-6.9015,-6.9015,-6.9015,-6.9015,-6.9015,-6.9015,-6.9015,-6.9015,-6.9015,-6.9015,-6.9015,-6.9015,-6.8957,-6.884,-6.884,-6.8171,-6.6895,-6.6895,-6.6312,-6.5118,-6.5001,-6.3957,-4.9385,-5.0601,-5.1193,-5.0011,-4.8464,-4.6882,-4.5735,-4.4157,-4.2579,-4.1454,-4.0927,-4.0697,-4.0697,-4.096,-4.1947,-4.4217,-4.7247,-4.9812,-5.1226,-5.522,-5.8645,-6.0416,-6.2857,-6.4092,-6.3257,-6.5103,-6.4978,-6.1473,-6.2272,-6.2436,-6.1279,-6.1252,-6.1252,-6.1252,-6.1252,-6.1368,-6.1629,-6.2965,-6.4245,-6.5525,-6.6834,-6.7997,-6.9015,-6.9015,-6.9015,-6.9015,-6.9015,-6.9015,-6.9015,-6.9015,-6.9015,-6.9015,-6.9015,-6.9015,-6.9015,-6.9015,-6.9015,-6.9015,-6.9015,-6.9015,-6.9015,-6.9015,-6.9015,-6.9015,-6.9015,-6.9015,-6.9015,-6.9015,-6.9015,-6.9015,-6.9015,-6.9015,-6.9015,-6.9015,-6.9015,-6.9015,-6.9015,-6.9015,-6.9015,-6.9015,-6.9015,-6.9015,-6.9015,-6.9015,-6.9015,-6.9015,-6.9015,-6.9015,-6.9015,-6.9015,-6.9015,-6.9015,-6.9015,-6.9015,-6.9015,-6.9015,-6.9015,-6.9015,-6.9015,-6.9015,-6.9015,-6.9015,-6.852,-6.7506,-6.7506,-6.6804,-6.5525,-6.5525,-6.5379,-6.5089,-6.4071,-6.2697,-4.9187,-5.0305,-5.0864,-5.0798,-4.9713,-4.8267,-4.6849,-4.5406,-4.3959,-4.2513,-4.225,-4.225,-4.225,-4.2803,-4.3757,-4.5242,-4.8464,-5.1292,-5.2738,-5.6833,-6.0472,-6.2457,-6.4743,-6.5867,-6.5202,-6.5849,-6.5178,-6.246,-6.2327,-6.1998,-6.1279,-6.1252,-6.1252,-6.1252,-6.1252,-6.1252,-6.1252,-6.2501,-6.3547,-6.4216,-6.6167,-6.7448,-6.8084,-6.8724,-6.9015,-6.9015,-6.9015,-6.9015,-6.9015,-6.9015,-6.9015,-6.9015,-6.9015,-6.9015,-6.9015,-6.9015,-6.9015,-6.9015,-6.9015,-6.9015,-6.9015,-6.9015,-6.9015,-6.9015,-6.9015,-6.9015,-6.9015,-6.9015,-6.9015,-6.9015,-6.9015,-6.9015,-6.9015,-6.9015,-6.9015,-6.9015,-6.9015,-6.9015,-6.9015,-6.9015,-6.9015,-6.9015,-6.9015,-6.9015,-6.9015,-6.9015,-6.9015,-6.9015,-6.9015,-6.9015,-6.9015,-6.9015,-6.9015,-6.9015,-6.9015,-6.9015,-6.9015,-6.9015,-6.9015,-6.8724,-6.8084,-6.8055,-6.7444,-6.6136,-6.6106,-6.5467,-6.4187,-6.4187,-6.3867,-6.3198,-6.253,-6.178,-4.8661,-4.9582,-5.0141,-5.1555,-5.0831,-4.945,-4.8264,-4.6718,-4.5143,-4.3992,-4.3729,-4.3729,-4.3729,-4.488,-4.5998,-4.6491,-4.9779,-5.287,-5.4578,-5.8624,-6.2273,-6.4673,-6.6215,-6.7059,-6.6926,-6.5724,-6.4399,-6.3077,-6.1917,-6.1252,-6.1252,-6.1252,-6.1252,-6.1252,-6.1252,-6.1252,-6.1252,-6.2298,-6.2908,-6.3169,-6.535,-6.6633,-6.7128,-6.8171,-6.8782,-6.9015,-6.9015,-6.9015,-6.9015,-6.9015,-6.9015,-6.9015,-6.9015,-6.9015,-6.9015,-6.9015,-6.9015,-6.9015,-6.9015,-6.9015,-6.9015,-6.9015,-6.9015,-6.9015,-6.9015,-6.9015,-6.9015,-6.9015,-6.9015,-6.9015,-6.9015,-6.9015,-6.9015,-6.9015,-6.9015,-6.9015,-6.9015,-6.9015,-6.9015,-6.9015,-6.9015,-6.9015,-6.9015,-6.9015,-6.9015,-6.9015,-6.9015,-6.9015,-6.9015,-6.9015,-6.9015,-6.9015,-6.9015,-6.9015,-6.9015,-6.9015,-6.9015,-6.9015,-6.8782,-6.8171,-6.7128,-6.6866,-6.6077,-6.4798,-6.4769,-6.4158,-6.2821,-6.2821,-6.2269,-6.1252,-6.1252,-6.1252,-4.7475,-4.8793,-5.0141,-5.1555,-5.0831,-4.9713,-4.9549,-4.7412,-4.5406,-4.5242,-4.5176,-4.5176,-4.5176,-4.6389,-4.8165,-5.0666,-5.2607,-5.4742,-5.7502,-6.1648,-6.4509,-6.4904,-6.6266,-6.6784,-6.5674,-6.4378,-6.3023,-6.1614,-6.1335,-6.1252,-6.1252,-6.1252,-6.1252,-6.1252,-6.1252,-6.1252,-6.1252,-6.1397,-6.2036,-6.3198,-6.3547,-6.4856,-6.7069,-6.7244,-6.791,-6.9015,-6.9015,-6.9015,-6.9015,-6.9015,-6.9015,-6.9015,-6.9015,-6.9015,-6.9015,-6.9015,-6.9015,-6.9015,-6.9015,-6.9015,-6.9015,-6.9015,-6.9015,-6.9015,-6.9015,-6.9015,-6.9015,-6.9015,-6.9015,-6.9015,-6.9015,-6.9015,-6.9015,-6.9015,-6.9015,-6.9015,-6.9015,-6.9015,-6.9015,-6.9015,-6.9015,-6.9015,-6.9015,-6.9015,-6.9015,-6.9015,-6.9015,-6.9015,-6.9015,-6.9015,-6.9015,-6.9015,-6.9015,-6.9015,-6.9015,-6.9015,-6.9015,-6.9015,-6.791,-6.7244,-6.7069,-6.5932,-6.4769,-6.3489,-6.346,-6.2763,-6.1484,-6.1484,-6.1397,-6.1252,-6.1252,-6.1252,-4.6027,-4.7475,-4.8891,-5.0338,-5.0831,-5.0765,-4.9943,-4.8793,-4.7642,-4.6849,-4.6685,-4.6685,-4.6685,-4.7839,-4.9483,-5.1555,-5.3823,-5.6092,-5.8229,-6.1517,-6.4016,-6.4838,-6.6255,-6.6957,-6.6485,-6.5228,-6.3861,-6.2514,-6.1696,-6.1252,-6.1252,-6.1252,-6.1252,-6.1252,-6.1252,-6.1252,-6.1252,-6.1252,-6.1513,-6.2065,-6.2792,-6.3809,-6.4914,-6.6429,-6.739,-6.7939,-6.8695,-6.9015,-6.9015,-6.9015,-6.9015,-6.9015,-6.9015,-6.9015,-6.9015,-6.9015,-6.9015,-6.9015,-6.9015,-6.9015,-6.9015,-6.9015,-6.9015,-6.9015,-6.9015,-6.9015,-6.9015,-6.9015,-6.9015,-6.9015,-6.9015,-6.9015,-6.9015,-6.9015,-6.9015,-6.9015,-6.9015,-6.9015,-6.9015,-6.9015,-6.9015,-6.9015,-6.9015,-6.9015,-6.9015,-6.9015,-6.9015,-6.9015,-6.9015,-6.9015,-6.9015,-6.9015,-6.9015,-6.9015,-6.9015,-6.9015,-6.8695,-6.7939,-6.739,-6.6429,-6.4943,-6.4332,-6.3431,-6.2094,-6.2065,-6.1804,-6.1252,-6.1252,-6.1252,-6.1252,-6.1252,-6.0742,-4.5077,-4.629,-4.7448,-4.9004,-5.0375,-5.1095,-5.0181,-4.9884,-4.945,-4.8396,-4.8165,-4.8165,-4.8165,-4.9648,-5.1357,-5.2771,-5.5239,-5.7407,-5.8854,-6.1188,-6.3201,-6.4246,-6.5672,-6.6593,-6.6694,-6.5585,-6.4429,-6.3449,-6.2082,-6.1252,-6.1252,-6.1252,-6.1252,-6.1252,-6.1252,-6.1252,-6.1252,-6.1252,-6.1252,-6.1252,-6.221,-6.2821,-6.3198,-6.5176,-6.6223,-6.6662,-6.7939,-6.852,-6.852,-6.8869,-6.9015,-6.9015,-6.9015,-6.9015,-6.9015,-6.9015,-6.9015,-6.9015,-6.9015,-6.9015,-6.9015,-6.9015,-6.9015,-6.9015,-6.9015,-6.9015,-6.9015,-6.9015,-6.9015,-6.9015,-6.9015,-6.9015,-6.9015,-6.9015,-6.9015,-6.9015,-6.9015,-6.9015,-6.9015,-6.9015,-6.9015,-6.9015,-6.9015,-6.9015,-6.9015,-6.9015,-6.9015,-6.9015,-6.9015,-6.9015,-6.9015,-6.9015,-6.9015,-6.8869,-6.852,-6.852,-6.7939,-6.6662,-6.6223,-6.5176,-6.3285,-6.285,-6.221,-6.1252,-6.1252,-6.1252,-6.1252,-6.1252,-6.1252,-6.1252,-6.1252,-6.0628,-4.5077,-4.5538,-4.6023,-4.7843,-4.9075,-4.9984,-5.0422,-5.0115,-4.9746,-4.9649,-4.9648,-4.9648,-4.9648,-5.1949,-5.4315,-5.5897,-5.7407,-5.892,-6.0333,-6.1852,-6.2806,-6.2872,-6.4267,-6.5192,-6.5211,-6.4166,-6.3449,-6.3343,-6.2082,-6.1252,-6.1252,-6.1252,-6.1252,-6.1252,-6.1252,-6.1252,-6.1252,-6.1252,-6.1252,-6.1252,-6.131,-6.1978,-6.3198,-6.3286,-6.4071,-6.5292,-6.6633,-6.7186,-6.7273,-6.8491,-6.9015,-6.9015,-6.9015,-6.9015,-6.9015,-6.9015,-6.9015,-6.9015,-6.9015,-6.9015,-6.9015,-6.9015,-6.9015,-6.9015,-6.9015,-6.9015,-6.9015,-6.9015,-6.9015,-6.9015,-6.9015,-6.9015,-6.9015,-6.9015,-6.9015,-6.9015,-6.9015,-6.9015,-6.9015,-6.9015,-6.9015,-6.9015,-6.9015,-6.9015,-6.9015,-6.9015,-6.9015,-6.9015,-6.9015,-6.9015,-6.9015,-6.9015,-6.9015,-6.8491,-6.7302,-6.7186,-6.6633,-6.5292,-6.4071,-6.3286,-6.3198,-6.1978,-6.131,-6.1252,-6.1252,-6.1252,-6.1252,-6.1252,-6.1252,-6.1252,-6.1252,-6.1166,-4.2504,-4.3511,-4.4776,-4.5434,-4.662,-4.8038,-4.966,-4.9918,-5.0042,-5.093,-5.1127,-5.1423,-5.2344,-5.3329,-5.4841,-5.7341,-5.8196,-5.9018,-6.0432,-6.1095,-6.1753,-6.2674,-6.3298,-6.3986,-6.5045,-6.3892,-6.3149,-6.323,-6.1913,-6.1109,-6.125,-6.1252,-6.1252,-6.1252,-6.1252,-6.1252,-6.1252,-6.1252,-6.1252,-6.1252,-6.1252,-6.1484,-6.1949,-6.2763,-6.346,-6.3954,-6.5234,-6.6312,-6.7128,-6.7593,-6.823,-6.9015,-6.9015,-6.9015,-6.9015,-6.9015,-6.9015,-6.9015,-6.9015,-6.9015,-6.9015,-6.9015,-6.9015,-6.9015,-6.9015,-6.9015,-6.9015,-6.9015,-6.9015,-6.9015,-6.9015,-6.9015,-6.9015,-6.9015,-6.9015,-6.9015,-6.9015,-6.9015,-6.9015,-6.9015,-6.9015,-6.9015,-6.9015,-6.9015,-6.9015,-6.9015,-6.9015,-6.9015,-6.9015,-6.9015,-6.9015,-6.9015,-6.823,-6.7593,-6.7128,-6.6312,-6.5234,-6.3954,-6.346,-6.2792,-6.1949,-6.1484,-6.1252,-6.1252,-6.1252,-6.1252,-6.1252,-6.1252,-6.0685,-5.9769,-5.9769,-5.8574,-3.994,-4.1066,-4.2448,-4.2833,-4.4321,-4.6108,-4.7781,-4.8584,-4.945,-5.0897,-5.1193,-5.162,-5.3034,-5.3691,-5.4841,-5.7374,-5.8196,-5.9018,-6.0432,-6.0629,-6.0991,-6.195,-6.251,-6.3175,-6.4235,-6.3082,-6.2152,-6.1981,-6.1349,-6.0903,-6.0552,-6.099,-6.1252,-6.1252,-6.1252,-6.1252,-6.1252,-6.1252,-6.1252,-6.1252,-6.1252,-6.1252,-6.1281,-6.2123,-6.2501,-6.2559,-6.3925,-6.4943,-6.5757,-6.6194,-6.7153,-6.8346,-6.8346,-6.8608,-6.9015,-6.9015,-6.9015,-6.9015,-6.9015,-6.9015,-6.9015,-6.9015,-6.9015,-6.9015,-6.9015,-6.9015,-6.9015,-6.9015,-6.9015,-6.9015,-6.9015,-6.9015,-6.9015,-6.9015,-6.9015,-6.9015,-6.9015,-6.9015,-6.9015,-6.9015,-6.9015,-6.9015,-6.9015,-6.9015,-6.9015,-6.9015,-6.9015,-6.9015,-6.9015,-6.8608,-6.8346,-6.8346,-6.7153,-6.6194,-6.5787,-6.4972,-6.3925,-6.2588,-6.2501,-6.2123,-6.1281,-6.1252,-6.1252,-6.1252,-6.0685,-6.0429,-6.0429,-5.9884,-5.9072,-5.8039,-5.8661,-5.7351,-3.7593,-3.8256,-3.903,-4.0212,-4.227,-4.4099,-4.4675,-4.6237,-4.7968,-4.9386,-4.9682,-5.0174,-5.162,-5.3001,-5.4512,-5.6127,-5.7571,-5.9018,-6.0399,-6.0558,-6.0591,-6.0629,-6.1846,-6.2668,-6.2628,-6.1478,-6.0356,-5.9501,-6.037,-6.045,-5.9268,-6.0467,-6.1164,-6.1164,-6.1223,-6.1252,-6.1252,-6.1252,-6.1252,-6.1252,-6.1252,-6.1252,-6.1252,-6.1252,-6.1252,-6.131,-6.2559,-6.3169,-6.3285,-6.4536,-6.5787,-6.7011,-6.7011,-6.7764,-6.8957,-6.8898,-6.8898,-6.8898,-6.8957,-6.8957,-6.8957,-6.8986,-6.9015,-6.9015,-6.9015,-6.9015,-6.9015,-6.9015,-6.9015,-6.9015,-6.9015,-6.9015,-6.9015,-6.9015,-6.9015,-6.9015,-6.9015,-6.9015,-6.9015,-6.9015,-6.9015,-6.9015,-6.9015,-6.9015,-6.9015,-6.9015,-6.8986,-6.8957,-6.8957,-6.7793,-6.7011,-6.7011,-6.5816,-6.4565,-6.3314,-6.3111,-6.2559,-6.1253,-6.1252,-6.1252,-6.1166,-6.1252,-6.1252,-6.1166,-5.9682,-5.8896,-5.8837,-5.717,-5.6376,-5.6315,-5.798,-5.786,-3.5093,-3.5993,-3.6803,-3.761,-3.9081,-4.0759,-4.2422,-4.448,-4.6311,-4.7196,-4.78,-4.8988,-5.1455,-5.2212,-5.333,-5.5963,-5.7571,-5.8656,-5.9051,-5.9254,-5.9675,-6.0553,-6.023,-5.9626,-5.8801,-5.8374,-5.8102,-5.7976,-5.8204,-5.8268,-5.804,-5.9185,-5.9854,-5.9854,-6.0729,-6.1252,-6.1252,-6.1252,-6.1252,-6.1252,-6.1252,-6.1252,-6.1252,-6.1252,-6.1252,-6.1252,-6.1629,-6.2298,-6.3169,-6.3576,-6.4478,-6.5641,-6.5641,-6.6426,-6.7506,-6.6514,-6.6194,-6.631,-6.7241,-6.7622,-6.7735,-6.8695,-6.9015,-6.9015,-6.9015,-6.9015,-6.9015,-6.9015,-6.9015,-6.9015,-6.9015,-6.9015,-6.9015,-6.9015,-6.9015,-6.9015,-6.9015,-6.9015,-6.9015,-6.9015,-6.9015,-6.9015,-6.9015,-6.9015,-6.9015,-6.9015,-6.82,-6.7622,-6.7622,-6.6426,-6.5641,-6.5641,-6.4507,-6.3576,-6.3227,-6.2298,-6.1117,-5.9653,-6.0628,-6.0742,-5.9566,-6.0628,-6.0685,-5.9566,-5.9131,-5.8278,-5.7048,-5.6622,-5.5758,-5.4527,-5.5007,-5.44,-3.1004,-3.2016,-3.3051,-3.3942,-3.5695,-3.7487,-3.8638,-4.1095,-4.3428,-4.4528,-4.5514,-4.6982,-4.9616,-5.0601,-5.1752,-5.412,-5.5697,-5.6898,-5.7704,-5.8319,-5.8836,-5.9137,-5.8147,-5.7161,-5.6454,-5.6854,-5.6792,-5.5866,-5.6772,-5.7166,-5.6758,-5.7876,-5.8545,-5.8545,-5.9795,-6.0409,-6.0409,-6.0961,-6.1252,-6.1252,-6.1252,-6.1252,-6.1252,-6.1252,-6.1252,-6.1252,-6.1252,-6.1658,-6.2356,-6.2356,-6.3169,-6.4303,-6.4303,-6.5089,-6.6048,-6.4769,-6.4652,-6.5205,-6.5961,-6.6223,-6.64,-6.7124,-6.7735,-6.8171,-6.8171,-6.8579,-6.9015,-6.9015,-6.9015,-6.9015,-6.9015,-6.9015,-6.9015,-6.9015,-6.9015,-6.9015,-6.9015,-6.9015,-6.9015,-6.9015,-6.9015,-6.9015,-6.9015,-6.9015,-6.8811,-6.8259,-6.7564,-6.6895,-6.6342,-6.5554,-6.4885,-6.4361,-6.3634,-6.2937,-6.2385,-6.106,-6.0143,-5.9884,-6.0114,-5.9884,-5.8955,-5.9769,-5.9508,-5.786,-5.717,-5.6315,-5.5321,-5.4654,-5.385,-5.2865,-5.3528,-5.2491,-2.6442,-2.7251,-2.8401,-2.9692,-3.2095,-3.4127,0.0,-3.6897,-3.9911,-4.1345,-4.2763,-4.4485,-4.6731,-4.8239,-4.9685,-5.139,-5.277,-5.429,-5.6055,-5.7341,-5.771,-5.6657,-5.5699,-5.5178,-5.5188,-5.6139,-5.5867,-5.3816,-5.5673,-5.6502,-5.5425,-5.6596,-5.7347,-5.7347,-5.8458,-5.9097,-5.9097,-6.0351,-6.1019,-6.1019,-6.1164,-6.1252,-6.1252,-6.1252,-6.1252,-6.1252,-6.1252,-6.1252,-6.1252,-6.1252,-6.192,-6.2937,-6.2937,-6.3693,-6.4536,-6.3402,-6.3693,-6.471,-6.4856,-6.4885,-6.4914,-6.5059,-6.5874,-6.6866,-6.6866,-6.7735,-6.8782,-6.8782,-6.8898,-6.9015,-6.9015,-6.9015,-6.9015,-6.9015,-6.9015,-6.9015,-6.9015,-6.9015,-6.9015,-6.9015,-6.9015,-6.9015,-6.9015,-6.9015,-6.8549,-6.7273,-6.6836,-6.6165,-6.503,-6.4769,-6.4245,-6.3053,-6.2937,-6.2415,-6.1084,-5.9508,-5.9131,-6.0315,-5.9276,-5.8459,-5.8143,-5.832,-5.7585,-5.5729,-5.4264,-5.3402,-5.3236,-5.182,-5.1144,-5.121,-5.2553,-5.1243,0.0,0.0,0.0,0.0,0.0,0.0,0.0,-3.4445,-3.7286,-3.6951,-3.9493,-4.2253,-4.3866,-4.475,-4.6321,-4.9652,-5.0865,-5.1875,-5.3259,-5.4746,-5.499,-5.2974,-5.3387,-5.3897,-5.399,-5.4174,-5.4126,-5.3699,-5.4099,-5.4245,-5.4028,-5.5229,-5.5956,-5.5956,-5.7207,-5.7847,-5.7847,-5.9068,-5.9679,-5.9708,-6.0729,-6.1252,-6.1252,-6.1252,-6.1252,-6.1252,-6.1252,-6.1252,-6.1252,-6.1252,-6.1397,-6.16,-6.16,-6.1746,-6.1949,-6.1687,-6.1775,-6.2123,-6.3169,-6.3576,-6.3751,-6.4769,-6.5292,-6.5467,-6.5467,-6.6368,-6.7448,-6.7448,-6.8171,-6.9015,-6.9015,-6.9015,-6.9015,-6.9015,-6.9015,-6.9015,-6.9015,-6.9015,-6.9015,-6.9015,-6.9015,-6.9015,-6.9015,-6.9015,-6.8549,-6.7273,-6.5263,-6.3838,-6.3605,-6.2617,-6.1891,-6.1629,-6.16,-6.103,-5.9479,-5.786,-5.6438,-5.5321,-5.6253,-5.5885,-5.3671,-5.4893,-5.4405,-5.1888,-5.15,-5.0696,-4.9275,-4.8983,-4.8881,-4.8881,-4.9173,-4.7933,0.0,0.0,0.0,0.0,0.0,0.0,0.0,0.0,0.0,0.0,0.0,-3.8644,-4.074,0.0,-4.389,-4.6513,-4.803,-4.9146,-4.9942,-5.1789,-5.203,-4.9142,-5.0466,-5.1899,-5.2591,-5.2689,-5.2951,-5.3591,-5.365,-5.365,-5.365,-5.429,-5.4639,-5.4639,-5.5869,-5.6538,-5.6538,-5.7789,-5.8399,-5.8428,-5.9708,-6.0235,-6.0264,-6.0932,-6.1252,-6.1252,-6.1252,-6.1252,-6.1252,-6.1252,-6.1252,-6.1252,-6.1252,-6.1252,-6.1252,-6.1252,-6.1252,-6.1339,-6.1978,-6.2181,-6.2298,-6.2937,-6.3634,-6.4158,-6.4158,-6.5059,-6.6048,-6.6048,-6.6543,-6.7212,-6.7851,-6.8026,-6.8171,-6.8869,-6.9015,-6.9015,-6.9015,-6.9015,-6.9015,-6.9015,-6.9015,-6.9015,-6.9015,-6.8462,-6.7357,-6.5408,-6.4012,-6.2965,-6.2269,-6.1629,-6.1252,-6.1252,-6.0572,-5.9769,-5.8955,-5.7351,-5.5633,-5.3979,-5.4171,-5.346,-5.1575,-5.2346,-5.1724,-4.9537,-4.9476,-4.8796,-4.7441,-4.7441,-4.7173,-4.6526,-4.5513,-4.4415,0.0,0.0,0.0,0.0,0.0,0.0,0.0,0.0,0.0,0.0,0.0,0.0,0.0,0.0,0.0,-4.3355,-4.482,-4.5884,-4.657,-4.8259,-4.8511,-4.6132,-4.7726,-4.9645,-5.1158,-5.1332,-5.1787,-5.2835,-5.3126,-5.3271,-5.3271,-5.3504,-5.365,-5.365,-5.4648,-5.5229,-5.5229,-5.648,-5.7201,-5.7201,-5.837,0.0,-5.8981,-6.0031,-6.0496,-6.0525,-6.0758,-6.0874,-6.0874,-6.1135,-6.1252,-6.1223,-6.0961,-6.0874,-6.0874,-6.1135,-6.1252,-6.1252,-6.1252,-6.1252,-6.1252,-6.1252,-6.1949,-6.2792,-6.2792,-6.3722,0.0,-6.474,-6.4914,-6.535,-6.6429,-6.672,-6.6921,-6.7997,-6.8462,-6.8637,-6.8637,-6.884,-6.9015,-6.9015,-6.9015,-6.8928,-6.8666,-6.7328,-6.5583,-6.3518,-6.2937,-6.2414,-6.1368,-6.1252,-6.1252,-6.1252,-5.9826,-5.8779,-5.8396,-5.6866,-5.509,-5.3159,-5.2294,-5.12,-4.9998,-4.9947,-4.9131,-4.7319,-4.7257,-4.6782,-4.5708,-4.5708,-4.5245,-4.4235,-4.1731,-4.0657,0.0,0.0,0.0,0.0,0.0,0.0,0.0,0.0,0.0,0.0,0.0,0.0,0.0,0.0,0.0,0.0,-4.1332,-4.1459,-4.3663,-4.3528,-4.3855,-4.5674,-4.6126,-4.729,-4.9762,-4.9994,-5.0052,-5.0198,-5.1274,-5.1885,-5.1885,-5.3038,0.0,0.0,0.0,-5.3853,-5.3853,-5.5142,-5.5811,-5.584,-5.7091,-5.7754,-5.7754,-5.79,-5.7934,-5.7992,-5.9039,-5.9505,-5.9621,-6.0758,-6.1252,-6.1135,-5.9999,-5.9505,-5.965,-6.0787,-6.1252,-6.1252,-6.1252,0.0,0.0,-6.1252,-6.1339,-6.1455,-6.1455,-6.2327,-6.3402,-6.3402,-6.4216,-6.5147,-6.5292,-6.5321,-6.535,-6.5525,-6.6426,-6.7302,-6.7302,-6.8171,-6.9015,-6.9015,-6.9015,-6.8637,-6.7506,-6.5234,-6.3518,-6.3198,-6.2181,-6.1397,-6.1252,-6.1252,-6.1252,-6.1252,-5.9826,0.0,-5.6805,-5.507,-5.3031,-5.0368,-5.0131,-4.9173,-4.7208,-4.711,-4.6058,-4.3951,-4.387,-4.339,-4.2316,-4.2316,-4.2267,-4.2048,-3.7997,-3.663,0.0,0.0,0.0,0.0,0.0,0.0,0.0,0.0,0.0,0.0,0.0,0.0,0.0,0.0,0.0,0.0,-3.8202,-3.9059,-3.9316,-4.034,-4.1444,-4.2491,-4.3276,-4.4439,-4.6272,-4.7086,-4.7842,-4.8583,-4.9849,-5.0576,-5.0576,-5.1768,-5.2543,-5.2543,-5.3271,-5.365,-5.365,-5.4203,-5.4494,-5.4494,-5.5753,-5.6393,-5.6422,-5.7149,-5.755,-5.7579,-5.805,-5.8254,-5.8283,-5.8865,-5.9097,-5.9039,0.0,0.0,0.0,0.0,-5.9534,-6.0089,-6.0089,-6.0089,-6.0089,-6.0089,-6.0089,-6.0089,-6.0089,-6.099,-6.2036,-6.2036,-6.2414,-6.3053,-6.3809,-6.4012,-6.4187,-6.4943,-6.5525,-6.5903,-6.5903,-6.6339,-6.6746,-6.6746,-6.6746,0.0,-6.503,-6.3925,-6.2936,-6.2152,-6.1571,-6.1252,-6.1252,-6.0429,-5.9884,-5.9884,-5.7532,-5.5696,-5.4944,-5.2789,0.0,0.0,0.0,-4.7563,-4.6685,-4.5966,0.0,0.0,0.0,-4.0974,-3.9876,-3.929,0.0,0.0,-3.5337,-3.4605,0.0,0.0,0.0,0.0,0.0,0.0,0.0,0.0,0.0,0.0,0.0,0.0,0.0,0.0,0.0,0.0,-3.4967,-3.6267,-3.4958,-3.7343,-3.9285,-3.9633,-4.0862,-4.2142,-4.3461,-4.4352,-4.5254,-4.62,-4.7493,-4.8366,-4.8686,-4.9936,-5.0809,-5.1158,-5.2107,-5.2776,-5.3126,-5.3126,-5.33,-5.365,-5.461,-5.5055,-5.5084,-5.6066,-5.6473,-5.6502,-5.6881,-5.7026,-5.7056,-5.7405,-5.755,-5.7463,-5.6357,-5.6386,-5.7026,-5.7026,-5.776,-5.8807,-5.8807,-5.8807,-5.8807,-5.8807,-5.8807,-5.8807,-5.8807,-5.9475,-6.0206,-6.0206,-6.0206,-6.0496,-6.1802,-6.2122,-6.2442,-6.3751,-6.4332,-6.4594,-6.4594,-6.4856,-6.5118,-6.5118,-6.3983,-6.2733,-6.1802,-6.1628,-6.1337,-6.0322,-6.0206,-6.0322,-6.0641,-5.9713,-5.8997,-5.8927,-5.6253,-5.4336,-5.3915,-5.132,-4.9637,-4.9345,-4.7636,-4.6514,-4.6196,-4.5064,-4.3967,-4.2951,-4.0535,-3.8753,0.0,0.0,0.0,0.0,0.0,0.0,0.0,0.0,0.0,0.0,0.0,0.0,0.0,0.0,0.0,0.0,0.0,0.0,0.0,0.0,0.0,0.0,0.0,0.0,-3.106,-3.4086,-3.6936,-3.8221,-3.9495,-4.0796,-4.2113,-4.2258,-4.2316,-4.2345,-4.3578,-4.48,-4.5923,-4.7217,-4.8525,-4.9791,-4.9878,-5.0489,-5.1739,-5.1787,-5.2427,-5.365,-5.3679,-5.3708,-5.3708,-5.3737,-5.3766,-5.3853,-5.5084,-5.5636,-5.5753,-5.7003,-5.755,-5.7172,-5.3339,-5.3426,-5.5636,-5.5636,-5.6451,-5.7609,-5.7609,-5.7609,-5.7609,-5.7609,-5.7609,-5.7609,-5.7609,-5.7638,-5.7667,-5.7667,-5.7667,-5.7905,-5.9097,-5.9417,-5.9737,-6.1048,-6.2298,-6.3256,-6.3256,-6.4216,-6.5118,-6.5118,-6.1104,-5.7783,-5.7725,-5.7725,-5.7725,-5.7667,-5.7667,0.0,-5.9214,-5.9305,-5.9189,-5.8932,-5.7351,-5.5633,-5.3979,-5.132,-4.9345,-4.8305,-4.727,-4.6172,-4.5015,-4.3943,-4.2926,-4.1907,-3.8704,-3.6509,-3.5483,0.0,0.0,0.0,0.0,0.0,0.0,0.0,0.0,0.0,0.0,0.0,0.0,0.0,0.0,0.0,0.0,0.0,0.0,0.0,0.0,0.0,0.0,0.0,0.0,-3.2486,-3.4226,-3.5565,-3.6878,-3.7837,-3.8274,-3.9902,-4.092,-4.092,-4.2113,-4.2985,-4.3392,-4.4643,-4.5545,-4.5981,-4.7639,-4.8699,-4.9106,-4.9994,-5.0634,-5.107,-5.199,-5.2369,-5.2398,-5.3271,-5.365,-5.365,-5.4115,-5.4319,-5.429,-5.3833,-5.3135,-5.2263,-5.0925,-5.0954,-5.1739,-5.1739,-5.203,-5.2495,-5.3368,-5.3679,-5.3679,-5.3679,-5.3679,-5.3679,-5.3679,-5.429,-5.496,-5.496,-5.56,-5.6334,-5.6742,-5.7469,-5.8428,-5.9679,-6.029,-6.0871,-6.1687,-6.1599,-6.125,-6.125,-5.8545,-5.5956,-5.5105,-5.5636,-5.5908,-5.4985,-5.6392,-5.6919,-5.5368,-5.5664,-5.5654,-5.4624,-5.3707,-5.293,-5.2365,-5.0082,-4.8549,-4.8208,-4.5879,-4.4293,-4.387,-4.2194,-4.0783,-3.9607,-3.7825,-3.5681,-3.317,0.0,0.0,0.0,0.0,0.0,0.0,0.0,0.0,0.0,0.0,0.0,0.0,0.0,0.0,0.0,0.0,0.0,0.0,0.0,0.0,0.0,0.0,0.0,0.0,0.0,0.0,-3.2863,-3.42,0.0,-3.5594,-3.7164,-3.8151,-3.8151,-3.8907,-3.9815,-4.0717,-4.1598,-4.2471,-4.3403,-4.4992,-4.6026,-4.6504,-4.7348,-4.8191,-4.9077,-4.9936,-5.0576,-5.1041,-5.1903,-5.2281,-5.2281,-5.2281,-5.2281,-5.2107,-4.9924,-4.8744,-4.8307,-4.7406,-4.7609,-4.8337,-4.79,-4.8017,-4.8511,-4.9325,-4.9616,-4.9616,-4.9616,-4.9616,-4.9616,-4.9616,-5.0198,-5.0884,-5.0884,-5.1827,-5.2961,-5.3397,-5.4822,-5.6473,-5.7672,-5.8341,-5.8894,-5.9766,-5.9272,-5.8109,-5.6247,-5.424,-5.2583,-5.171,-5.2263,-5.2522,-5.1665,-5.3338,-5.4015,-5.2104,-5.3024,-5.3461,-5.2382,-5.2315,-5.1952,-5.099,-4.9247,-4.8037,-4.7709,-4.4976,-4.3366,-4.3366,-4.0925,-3.9071,-3.7972,-3.6119,-3.3804,0.0,0.0,0.0,0.0,0.0,0.0,0.0,0.0,0.0,0.0,0.0,0.0,0.0,0.0,0.0,0.0,0.0,0.0,0.0,0.0,0.0,0.0,0.0,0.0,0.0,0.0,0.0,-3.0127,-3.1468,0.0,0.0,0.0,0.0,-3.4229,-3.4229,-3.5304,-3.7872,-3.8018,-3.9175,-4.1793,-4.1938,-4.2617,-4.3898,-4.3985,-4.5196,-4.7537,-4.7595,-4.8263,-4.95,-4.9558,-4.9587,-4.9587,-4.9587,-4.9587,-4.9296,-4.5586,-4.4713,-4.5457,-4.3102,-4.3625,-4.5545,-4.4451,-4.4742,-4.569,-4.569,-4.569,-4.569,-4.5632,-4.5574,-4.5574,-4.5515,-4.5545,0.0,0.0,-4.665,-4.7915,-4.918,-5.139,-5.3708,-5.4997,-5.6276,-5.7288,-5.7347,-5.7288,-5.5746,-5.0489,-4.8422,-4.7536,-4.7566,0.0,-4.7676,-4.7747,-4.8697,-4.9351,-4.9367,-5.1249,-5.2481,-5.214,-5.2993,-5.2519,-4.9962,-4.8783,-4.7709,-4.6636,-4.4513,-4.3244,-4.3122,-4.0047,-3.7826,-3.6729,-3.3585,0.0,0.0,0.0,0.0,0.0,0.0,0.0,0.0,0.0,0.0,0.0,0.0,0.0,0.0,0.0,0.0,0.0,0.0,0.0,0.0,0.0,0.0,0.0,0.0,0.0,0.0,-2.1809,-2.3138,-2.603,-2.7484,-2.8795,0.0,0.0,0.0,0.0,0.0,0.0,-3.3878,-3.3936,-3.5159,-3.7779,-3.8768,-3.9902,-4.124,-4.22,-4.2985,-4.3654,-4.4585,-4.5266,-4.5615,-4.6475,-4.6853,-4.6853,-4.6853,-4.6853,-4.665,-4.3829,-4.284,-4.3043,-4.2433,-4.2578,-4.3072,-4.2782,-4.284,-4.3131,-4.3131,-4.3131,-4.2956,-4.1996,-4.1706,-4.1502,-4.0513,0.0,0.0,0.0,0.0,-4.5179,-4.5499,-4.7435,-4.9674,-5.0954,-5.2234,-5.3426,-5.4436,-5.3883,-5.1652,-4.6576,-4.4682,-4.3844,-4.3679,-4.4439,0.0,-4.487,-4.6055,-4.6796,-4.6466,-4.7702,-4.8836,-4.9206,-4.9489,-4.9669,-4.9775,-4.81,-4.6587,-4.5405,-4.339,-4.1438,-3.9803,-3.7435,-3.5288,-3.3341,0.0,0.0,0.0,0.0,0.0,0.0,0.0,0.0,0.0,0.0,0.0,0.0,0.0,0.0,0.0,0.0,0.0,0.0,0.0,0.0,0.0,0.0,0.0,0.0,0.0,0.0,0.0,-1.8728,-2.0094,-2.2839,-2.3827,-2.4785,0.0,0.0,0.0,0.0,0.0,0.0,0.0,0.0,0.0,-3.4548,-3.5362,-3.635,-3.7687,-3.9001,-3.9902,-4.0484,-4.1793,-4.2733,-4.3316,-4.3945,-4.4265,-4.4265,-4.4265,-4.3276,-4.156,-3.9582,-3.8797,-3.8797,0.0,0.0,0.0,0.0,-3.8797,-3.8797,-3.8797,-3.8797,-3.8558,-3.728,0.0,0.0,0.0,0.0,0.0,0.0,0.0,-4.1569,-4.1569,-4.3858,-4.6388,-4.7115,-4.822,-4.9354,-5.0098,-4.8802,-4.6372,-4.2355,-4.112,-4.063,-4.0497,-4.1103,0.0,0.0,0.0,-4.4159,-4.381,-4.5172,-4.6727,-4.8065,-4.8184,-4.8427,-4.9052,-4.7148,-4.5381,-4.4284,-4.1779,-3.9778,-3.8534,-3.5556,-3.3317,0.0,0.0,0.0,0.0,0.0,0.0,0.0,0.0,0.0,0.0,0.0,0.0,0.0,0.0,0.0,0.0,0.0,0.0,0.0,0.0,0.0,0.0,0.0,0.0,0.0,0.0,0.0,0.0,0.0,-1.7841,-2.0223,0.0,0.0,0.0,0.0,0.0,0.0,0.0,0.0,0.0,0.0,0.0,0.0,0.0,-3.2339,-3.3648,-3.5101,-3.6412,-3.7518,-3.882,-4.0164,-4.1415,-4.1415,-4.1502,-4.1618,-4.1124,0.0,-3.574,-3.4432,0.0,0.0,0.0,0.0,0.0,0.0,0.0,0.0,0.0,0.0,0.0,0.0,0.0,0.0,0.0,0.0,0.0,0.0,0.0,0.0,0.0,0.0,-4.3345,-4.3345,-4.4422,-4.5196,-4.4527,-4.2548,-4.0306,-3.8186,-3.7681,-3.7612,0.0,0.0,0.0,0.0,0.0,0.0,-4.1755,-4.3285,-4.5161,-4.7501,-4.7769,-4.7818,-4.7964,-4.5966,-4.4187,-4.3024,-4.0144,-3.8241,-3.768,-3.3902,0.0,0.0,0.0,0.0,0.0,0.0,0.0,0.0,0.0,0.0,0.0,0.0,0.0,0.0,0.0,0.0,0.0,0.0,0.0,0.0,0.0,0.0,0.0,0.0,0.0,0.0,0.0,0.0,0.0,0.0,0.0,0.0,0.0,0.0,0.0,0.0,0.0,0.0,0.0,0.0,0.0,0.0,0.0,0.0,0.0,0.0,0.0,0.0,0.0,0.0,-3.4778,-3.6088,-3.7372,-3.7372,-3.7954,-3.8804,-3.5565,-3.3762,-3.3036,-3.1846,0.0,0.0,0.0,0.0,0.0,0.0,0.0,0.0,0.0,0.0,0.0,0.0,0.0,0.0,0.0,0.0,0.0,0.0,0.0,0.0,0.0,0.0,-3.9328,-3.9328,-4.1095,-4.1647,-3.7338,0.0,0.0,0.0,0.0,0.0,0.0,0.0,0.0,0.0,0.0,0.0,-4.1572,-4.141,-4.217,-4.5161,-4.5478,-4.5868,-4.6855,-4.4845,-4.2804,-4.0905,-3.9315,-3.6899,0.0,0.0,0.0,0.0,0.0,0.0,0.0,0.0,0.0,0.0,0.0,0.0,0.0,0.0,0.0,0.0,0.0,0.0,0.0,0.0,0.0,0.0,0.0,0.0,0.0,0.0,0.0,0.0,0.0,0.0,0.0,0.0,0.0,0.0,0.0,0.0,0.0,0.0,0.0,0.0,0.0,0.0,0.0,0.0,0.0,0.0,0.0,0.0,0.0,0.0,0.0,0.0,0.0,0.0,0.0,0.0,0.0,0.0,-3.2485,-3.019,0.0,0.0,0.0,0.0,0.0,0.0,0.0,0.0,0.0,0.0,0.0,0.0,0.0,0.0,0.0,0.0,0.0,0.0,0.0,0.0,0.0,0.0,0.0,0.0,0.0,0.0,0.0,0.0,0.0,0.0,0.0,0.0,0.0,0.0,0.0,0.0,0.0,0.0,0.0,0.0,-3.9782,-4.0202,-4.1467,-4.4577,-4.4918,-4.5137,-4.5673,-4.378,-4.1609,-3.9437,-3.7777,0.0,0.0,0.0,0.0,0.0,0.0,0.0,0.0,0.0,0.0,0.0,0.0,0.0,0.0,0.0,0.0,0.0,0.0,0.0,0.0,0.0,0.0,0.0,0.0,0.0,0.0,0.0,0.0,0.0,0.0,0.0,0.0,0.0,0.0,0.0,0.0,0.0,0.0,0.0,0.0,0.0,0.0,0.0,0.0,0.0,0.0,0.0,0.0,0.0,0.0,0.0,0.0,0.0,0.0,0.0,0.0,0.0,0.0,0.0,-2.9083,-2.6553,0.0,0.0,0.0,0.0,0.0,0.0,0.0,0.0,0.0,0.0,0.0,0.0,0.0,0.0,0.0,0.0,0.0,0.0,0.0,0.0,0.0,0.0,0.0,0.0,0.0,0.0,0.0,0.0,0.0,0.0,0.0,0.0,0.0,0.0,0.0,0.0,0.0,0.0,0.0,0.0,-3.7851,-3.9156,-4.1027,-4.3919,-4.4625,-4.482,-4.4601,-4.2658,-4.0486,-3.8314,-3.5971,0.0,0.0,0.0,0.0,0.0,0.0,0.0,0.0,0.0,0.0,0.0,0.0,0.0,0.0,0.0,0.0,0.0,0.0,0.0,0.0,0.0,0.0,0.0,0.0,0.0,0.0,0.0,0.0,0.0,0.0,0.0,0.0,0.0,0.0,0.0,0.0,0.0,0.0,0.0,0.0,0.0,0.0,0.0,0.0,0.0,0.0,0.0,0.0,0.0,0.0,0.0,0.0,0.0,0.0,0.0,0.0,0.0,0.0,0.0,0.0,0.0,0.0,0.0,0.0,0.0,0.0,0.0,0.0,0.0,0.0,0.0,0.0,0.0,0.0,0.0,0.0,0.0,0.0,0.0,0.0,0.0,0.0,0.0,0.0,0.0,0.0,0.0,0.0,0.0,0.0,0.0,0.0,0.0,0.0,0.0,0.0,0.0,0.0,0.0,0.0,0.0,-3.6763,-3.7988,-3.9534,-4.1828,-4.3748,-4.4503,-4.361,-4.1614,-3.9463,-3.7216,0.0,0.0,0.0,0.0,0.0,0.0,0.0,0.0,0.0,0.0,0.0,0.0,0.0,0.0,0.0,0.0,0.0,0.0,0.0,0.0,0.0,0.0,0.0,0.0,0.0,0.0,0.0,0.0,0.0,0.0,0.0,0.0,0.0,0.0,0.0,0.0,0.0,0.0,0.0,0.0,0.0,0.0,0.0,0.0,0.0,0.0,0.0,0.0,0.0,0.0,0.0,0.0,0.0,0.0,0.0,0.0,0.0,0.0,0.0,0.0,0.0,0.0,0.0,0.0,0.0,0.0,0.0,0.0,0.0,0.0,0.0,0.0,0.0,0.0,0.0,0.0,0.0,0.0,0.0,0.0,0.0,0.0,0.0,0.0,0.0,0.0,0.0,0.0,0.0,0.0,0.0,0.0,0.0,0.0,0.0,0.0,0.0,0.0,0.0,0.0,0.0,0.0,-3.6419,-3.7293,-3.8656,-4.1462,-4.2536,-4.2878,-4.2438,-4.0413,-3.8265,-3.6119,0.0,0.0,0.0,0.0,0.0,0.0,0.0,0.0,0.0,0.0,0.0,0.0,0.0,0.0,0.0,0.0,0.0,0.0,0.0,0.0,0.0,0.0,0.0,0.0,0.0,0.0,0.0,0.0,0.0,0.0,0.0,0.0,0.0,0.0,0.0,0.0,0.0,0.0,0.0,0.0,0.0,0.0,0.0,0.0,0.0,0.0,0.0,0.0,0.0,0.0,0.0,0.0,0.0,0.0,0.0,0.0,0.0,0.0,0.0,0.0,0.0,0.0,0.0,0.0,0.0,0.0,0.0,0.0,0.0,0.0,0.0,0.0,0.0,0.0,0.0,0.0,0.0,0.0,0.0,0.0,0.0,0.0,0.0,0.0,0.0,0.0,0.0,0.0,0.0,0.0,0.0,0.0,0.0,0.0,0.0,0.0,0.0,0.0,0.0,0.0,0.0,0.0,-3.5956,-3.6758,-3.8167,-4.1413,-4.1779,-4.1779,-4.1779,-3.9485,-3.7289,-3.5508,0.0,0.0,0.0,0.0,0.0,0.0,0.0,0.0,0.0,0.0,0.0,0.0,0.0,0.0,0.0,0.0,0.0,0.0,0.0,0.0,0.0,0.0,0.0,0.0,0.0,0.0,0.0,0.0,0.0,0.0,0.0,0.0,0.0,0.0,0.0,0.0,0.0,0.0,0.0,0.0,0.0,0.0,0.0,0.0,0.0,0.0,0.0,0.0,0.0,0.0,0.0,0.0,0.0,0.0,0.0,0.0,0.0,0.0,0.0,0.0,0.0,0.0,0.0,0.0,0.0,0.0,0.0,0.0,0.0,0.0,0.0,0.0,0.0,0.0,0.0,0.0,0.0,0.0,0.0,0.0,0.0,0.0,0.0,0.0,0.0,0.0,0.0,0.0,0.0,0.0,0.0,0.0,0.0,0.0,0.0,0.0,0.0,0.0,0.0,0.0,0.0,0.0,-3.5026,-3.6266,-3.8167,-4.1413,-4.1779,-4.1779,-4.1779,-3.8826,-3.6485,0.0,0.0,0.0,0.0,0.0,0.0,0.0,0.0,0.0,0.0,0.0,0.0,0.0,0.0,0.0,0.0,0.0,0.0,0.0,0.0,0.0,0.0,0.0,0.0,0.0,0.0,0.0,0.0,0.0,0.0,0.0,0.0,0.0,0.0,0.0,0.0,0.0,0.0,0.0,0.0,0.0,0.0,0.0,0.0,0.0,0.0,0.0,0.0,0.0,0.0,0.0,0.0,0.0,0.0,0.0,0.0,0.0,0.0,0.0,0.0,0.0,0.0,0.0,0.0,0.0,0.0,0.0,0.0,0.0,0.0,0.0,0.0,0.0,0.0,0.0,0.0,0.0,0.0,0.0,0.0,0.0,0.0,0.0,0.0,0.0,0.0,0.0,0.0,0.0,0.0,0.0,0.0,0.0,0.0,0.0,0.0,0.0,0.0,0.0,0.0,0.0,0.0,0.0,-3.5706,-3.6047,-3.7118,-4.0392,-4.005,-4.0144,-4.1633,-3.8168,-3.5705,-3.541,0.0,0.0,0.0,0.0,0.0,0.0,0.0,0.0,0.0,0.0,0.0,0.0,0.0,0.0,0.0,0.0,0.0,0.0,0.0,0.0,0.0,0.0,0.0,0.0,0.0,0.0,0.0,0.0,0.0,0.0,0.0,0.0,0.0,0.0,0.0,0.0,0.0,0.0,0.0,0.0,0.0,0.0,0.0,0.0,0.0,0.0,0.0,0.0,0.0,0.0,0.0,0.0,0.0,0.0,0.0,0.0,0.0,0.0,0.0,0.0,0.0,0.0,0.0,0.0,0.0,0.0,0.0,0.0,0.0,0.0,0.0,0.0,0.0,0.0,0.0,0.0,0.0,0.0,0.0,0.0,0.0,0.0,0.0,0.0,0.0,0.0,0.0,0.0,0.0,0.0,0.0,0.0,0.0,0.0,0.0,0.0,0.0,0.0,0.0,0.0,0.0,0.0,0.0,-3.5227,-3.6459,-3.9292,-3.89,-3.9046,-4.0413,-3.6948,-3.4753,-3.48,0.0,0.0,0.0,0.0,0.0,0.0,0.0,0.0,0.0,0.0,0.0,0.0,0.0,0.0,0.0,0.0,0.0,0.0,0.0,0.0,0.0,0.0,0.0,0.0,0.0,0.0,0.0,0.0,0.0,0.0,0.0,0.0,0.0,0.0,0.0,0.0,0.0,0.0,0.0,0.0,0.0,0.0,0.0,0.0,0.0,0.0,0.0,0.0,0.0,0.0,0.0,0.0,0.0,0.0,0.0,0.0,0.0,0.0,0.0,0.0,0.0,0.0,0.0,0.0,0.0,0.0,0.0,0.0,0.0,0.0,0.0,0.0,0.0,0.0,0.0,0.0,0.0,0.0,0.0,0.0,0.0,0.0,0.0,0.0,0.0,0.0,0.0,0.0,0.0,0.0,0.0,0.0,0.0,0.0,0.0,0.0,0.0,0.0,0.0,0.0,0.0,0.0,0.0,-3.4039,-3.6166,-3.8168,-3.8436,-3.8485,-3.8485,-3.555,-3.3796,-3.3804,-2.9732,0.0,0.0,0.0,0.0,0.0,0.0,0.0,0.0,0.0,0.0,0.0,0.0,0.0,0.0,0.0,0.0,0.0,0.0,0.0,0.0,0.0,0.0,0.0,0.0,0.0,0.0,0.0,0.0,0.0,0.0,0.0,0.0,0.0,0.0,0.0,0.0,0.0,0.0,0.0,0.0,0.0,0.0,0.0,0.0,0.0,0.0,0.0,0.0,0.0,0.0,0.0,0.0,0.0,0.0,0.0,0.0,0.0,0.0,0.0,0.0,0.0,0.0,0.0,0.0,0.0,0.0,0.0,0.0,0.0,0.0,0.0,0.0,0.0,0.0,0.0,0.0,0.0,0.0,0.0,0.0,0.0,0.0,0.0,0.0,0.0,0.0,0.0,0.0,0.0,0.0,0.0,0.0,0.0,0.0,0.0,0.0,0.0,0.0,0.0,0.0,0.0,0.0,-3.4001,-3.5874,-3.7167,-3.8021,-3.8485,-3.8485,-3.6319,-3.4625,-3.3848,-3.05,0.0,0.0,0.0,0.0,0.0,0.0,0.0,0.0,0.0,0.0,0.0,0.0,0.0,0.0,0.0,0.0,0.0,0.0,0.0,0.0,0.0,0.0,0.0,0.0,0.0,0.0,0.0,0.0,0.0,0.0,0.0,0.0,0.0,0.0,0.0,0.0,0.0,0.0,0.0,0.0,0.0,0.0,0.0,0.0,0.0,0.0,0.0,0.0,0.0,0.0,0.0,0.0,0.0,0.0,0.0,0.0,0.0,0.0,0.0,0.0,0.0,0.0,0.0,0.0,0.0,0.0,0.0,0.0,0.0,0.0,0.0,0.0,0.0,0.0,0.0,0.0,0.0,0.0,0.0,0.0,0.0,0.0,0.0,0.0,0.0,0.0,0.0,0.0,0.0,0.0,0.0,0.0,0.0,0.0,0.0,0.0,0.0,0.0,0.0,0.0,0.0,0.0,-3.1608,-3.3409,-3.5924,-3.7143,-3.7606,-3.7118,-3.5526,-3.4134,-3.3073,-2.993,0.0,0.0,0.0,0.0,0.0,0.0,0.0,0.0,0.0,0.0,0.0,0.0,0.0,0.0,0.0,0.0,0.0,0.0,0.0,0.0,0.0,0.0,0.0,0.0,0.0,0.0,0.0,0.0,0.0,0.0,0.0,0.0,0.0,0.0,0.0,0.0,0.0,0.0,0.0,0.0,0.0,0.0,0.0,0.0,0.0,0.0,0.0,0.0,0.0,0.0,0.0,0.0,0.0,0.0,0.0,0.0,0.0,0.0,0.0,0.0,0.0,0.0,0.0,0.0,0.0,0.0,0.0,0.0,0.0,0.0,0.0,0.0,0.0,0.0,0.0,0.0,0.0,0.0,0.0,0.0,0.0,0.0,0.0,0.0,0.0,0.0,0.0,0.0,0.0,0.0,0.0,0.0,0.0,0.0,0.0,0.0,0.0,0.0,0.0,0.0,0.0,0.0,0.0,-3.0544,-3.4702,-3.6071,-3.6266,-3.5239,-3.4055,-3.2997,-3.2154,0.0,0.0,0.0,0.0,0.0,0.0,0.0,0.0,0.0,0.0,0.0,0.0,0.0,0.0,0.0,0.0,0.0,0.0,0.0,0.0,0.0,0.0,0.0,0.0,0.0,0.0,0.0,0.0,0.0,0.0,0.0,0.0,0.0,0.0,0.0,0.0,0.0,0.0,0.0,0.0,0.0,0.0,0.0,0.0,0.0,0.0,0.0,0.0,0.0,0.0,0.0,0.0,0.0,0.0,0.0,0.0,0.0,0.0,0.0,0.0,0.0,0.0,0.0,0.0,0.0,0.0,0.0,0.0,0.0,0.0,0.0,0.0,0.0,0.0,0.0,0.0,0.0,0.0,0.0,0.0,0.0,0.0,0.0,0.0,0.0,0.0,0.0,0.0,0.0,0.0,0.0,0.0,0.0,0.0,0.0,0.0,0.0,0.0,0.0,0.0,0.0,0.0,0.0,0.0,-3.0251,-3.3721,-3.4995,-3.519,-3.4161,-3.2897,-3.2107,-3.2081,0.0,0.0,0.0,0.0,0.0,0.0,0.0,0.0,0.0,0.0,0.0,0.0,0.0,0.0]}],[{"header":{"parameterUnit":"kt","parameterCategory":2,"dx":1,"dy":1,"la1":29.285339999999998,"la2":30.599998999999997,"lo1":-89.70041500000002,"lo2":-87.6738589999976,"nx":112,"ny":82,"refTime":"2022-11-02T00:00:00:Z","depth":0,"parameterNumber":2,"parameterNumberName":"V-component_of_WINDS"},"data":[4.2365,4.0779,3.9412,3.8387,3.6508,3.4751,3.3975,3.2975,3.1823,3.0358,3.008,2.986,2.9078,2.8431,2.7819,2.7488,2.5877,2.4518,0.0,2.4689,0.0,0.0,0.0,0.0,0.0,0.0,0.0,0.0,0.0,0.0,0.0,0.0,5.3127,5.4591,5.6373,5.7495,5.791,5.791,5.791,5.791,5.791,5.791,5.791,5.791,5.791,5.7935,5.8301,5.9082,6.0131,6.1156,6.223,6.3279,6.4011,6.4388,6.4388,6.4388,6.4388,6.4388,6.4388,6.4388,6.4388,6.4388,6.4388,6.4388,6.4388,6.4388,6.4388,6.4388,6.4388,6.4388,6.4388,6.4388,6.4388,6.4388,6.4388,6.4388,6.4388,6.4388,6.4388,6.4388,6.4388,6.4388,6.4388,6.4388,6.4388,6.4388,6.4388,6.4388,6.4388,6.4388,6.4388,6.4388,6.4388,6.5532,6.8469,7.3533,7.6564,7.6564,7.6564,7.6564,7.6564,7.6564,7.6564,7.6564,7.6564,7.6564,7.6564,7.6564,7.6564,7.6477,7.3261,7.076,3.9583,3.8021,3.6655,3.5559,3.3995,3.2384,3.1286,3.048,2.9714,2.8651,2.8431,2.8333,2.7894,2.727,2.6718,2.6351,2.5356,2.4518,0.0,0.0,0.0,0.0,0.0,0.0,0.0,0.0,0.0,0.0,0.0,0.0,0.0,5.2395,5.4079,5.5128,5.6959,5.791,5.791,5.791,5.791,5.791,5.791,5.791,5.791,5.791,5.791,5.791,5.791,5.852,5.9594,6.0595,6.1668,6.2742,6.3865,6.4388,6.4388,6.4388,6.4388,6.4388,6.4388,6.4388,6.4388,6.4388,6.4388,6.4388,6.4388,6.4388,6.4388,6.4388,6.4388,6.4388,6.4388,6.4388,6.4388,6.4388,6.4388,6.4388,6.4388,6.4388,6.4388,6.4388,6.4388,6.4388,6.4388,6.4388,6.4388,6.4388,6.4388,6.4388,6.4388,6.4388,6.4388,6.4388,6.4388,6.4388,6.4388,7.184,7.6564,7.6564,7.6564,7.6564,7.6564,7.6564,7.6564,7.6564,7.6564,7.6564,7.6564,7.6564,7.5693,7.3959,7.0585,6.9015,3.707,3.5312,3.3458,3.2244,3.1237,3.0163,2.9152,2.8883,2.8627,2.755,2.7365,2.7036,2.5908,2.5703,2.5363,2.4396,2.5128,0.0,0.0,0.0,0.0,0.0,0.0,0.0,0.0,0.0,0.0,0.0,0.0,0.0,5.1388,5.3493,5.5128,5.6129,5.7325,5.791,5.791,5.791,5.791,5.791,5.791,5.791,5.791,5.791,5.791,5.791,5.791,5.8496,5.9545,6.0546,6.1595,6.2669,6.3816,6.4255,6.4388,6.4388,6.4388,6.4388,6.4388,6.4388,6.4388,6.4388,6.4388,6.4388,6.4388,6.4388,6.4388,6.4388,6.4388,6.4388,6.4388,6.4388,6.4388,6.4388,6.429,6.4168,6.4168,6.4168,6.4217,6.4363,6.4388,6.4388,6.4388,6.4388,6.4388,6.4388,6.4388,6.4388,6.4388,6.4388,6.4388,6.4388,6.4388,6.4388,6.4388,7.1614,7.6324,7.6564,7.6564,7.6564,7.6564,7.6564,7.6564,7.6564,7.6564,7.6477,7.6303,7.6303,7.3843,6.9015,6.9015,6.9015,3.3902,3.2975,3.2115,3.0261,2.9616,2.9103,2.8064,2.7855,2.7526,2.6381,2.6127,0.0,0.0,0.0,2.7075,2.7563,0.0,2.7942,0.0,2.815,0.0,0.0,0.0,0.0,0.0,0.0,0.0,0.0,0.0,4.9979,5.2536,5.3884,5.5128,5.6129,5.7325,5.791,5.791,5.791,5.791,5.791,5.791,5.791,5.791,5.791,5.791,5.791,5.791,5.8081,5.8423,5.9497,6.0522,6.1571,6.2645,6.3572,6.4388,6.4388,6.4388,6.4388,6.4388,6.4388,6.4388,6.4388,6.4388,6.4388,6.4388,6.4388,6.4388,6.4388,6.4388,6.4388,6.4388,6.4388,6.4388,6.4388,6.1913,5.9667,5.9667,5.9667,6.057,6.3777,6.4388,6.4388,6.4388,6.4388,6.4388,6.4388,6.4388,6.4388,6.4388,6.4388,6.4388,6.4388,6.4388,6.4388,6.4388,6.6381,7.0239,7.6254,7.6564,7.6564,7.6564,7.6564,7.6564,7.6564,7.6564,7.4802,7.1109,7.1109,7.0382,6.9015,6.9015,6.9015,3.1359,3.0773,3.0358,2.8725,2.8309,2.8039,2.6928,2.6684,2.661,2.6429,0.0,0.0,0.0,0.0,0.0,0.0,2.9029,0.0,0.0,0.0,3.2035,0.0,0.0,0.0,0.0,0.0,0.0,0.0,4.9515,5.1419,5.3591,5.4713,5.5739,5.691,5.7569,5.791,5.791,5.791,5.791,5.791,5.791,5.791,5.791,5.791,5.791,5.791,5.791,5.791,5.7984,5.9057,6.0107,6.1083,6.1693,6.262,6.3645,6.4133,6.4388,6.4388,6.4388,6.4388,6.4388,6.4388,6.4388,6.4388,6.4388,6.4388,6.4388,6.4388,6.4388,6.4388,6.4388,6.2962,6.162,6.162,5.9716,5.791,5.791,5.791,5.8642,6.1132,6.306,6.4388,6.4388,6.4388,6.4388,6.4388,6.4388,6.4388,6.4388,6.4388,6.4388,6.4388,6.4388,6.4388,6.4388,6.7541,7.1538,7.6324,7.6564,7.6564,7.6564,7.6564,7.6564,7.6564,7.4443,7.1981,6.9015,6.9015,6.9015,6.9015,6.9015,6.9015,2.9323,2.8798,2.8553,2.7452,2.7208,2.6987,2.6054,0.0,2.6176,2.7354,0.0,2.7893,2.8932,0.0,0.0,0.0,0.0,0.0,2.9811,3.2499,3.5264,3.7241,3.9315,4.0685,0.0,4.3488,4.638,4.9515,5.0973,5.2561,5.4518,5.5593,5.6763,5.7886,5.791,5.791,5.791,5.791,5.791,5.791,5.791,5.791,5.791,5.791,5.791,5.791,5.791,5.791,5.7984,5.8935,5.9936,6.0863,6.0961,6.1668,6.2742,6.3889,6.4388,6.4388,6.4388,6.4388,6.4388,6.4388,6.4388,6.4388,6.4388,6.4388,6.4388,6.4388,6.4388,6.4388,6.4388,6.1132,5.791,5.791,5.791,5.791,5.791,5.791,5.791,5.791,6.0961,6.3718,6.429,6.4388,6.4388,6.4388,6.4388,6.4388,6.4388,6.4388,6.4388,6.4388,6.4388,6.4388,6.4388,7.1006,7.5629,7.6535,7.6564,7.6564,7.6564,7.6564,7.6274,7.5693,7.1312,6.9015,6.9015,6.9015,6.9015,6.9015,6.9015,6.9015,2.8039,2.7672,2.7428,2.6307,2.5981,2.621,0.0,0.0,0.0,2.8455,2.8676,2.8994,3.0031,3.092,0.0,3.2475,0.0,0.0,0.0,3.6947,0.0,4.0706,4.1975,4.3439,4.522,4.5952,4.727,4.9564,5.159,5.3298,5.4567,5.5593,5.6763,5.7886,5.791,5.791,5.791,5.791,5.791,5.791,5.791,5.791,5.791,5.791,5.791,5.791,5.791,5.791,5.7935,5.813,5.8838,5.9887,6.0692,6.1668,6.2742,6.3889,6.4388,6.4388,6.4388,6.4388,6.4388,6.4388,6.4388,6.4388,6.4388,6.4388,6.4388,6.4388,6.4388,6.4388,6.4388,6.1132,5.791,5.791,5.791,5.791,5.791,5.791,5.791,5.791,5.8569,6.0229,6.3694,6.4388,6.4388,6.4388,6.4388,6.4388,6.4388,6.4388,6.4388,6.4388,6.4388,6.4388,6.4388,6.5778,6.9542,7.6154,7.6564,7.6564,7.6564,7.6564,7.4686,7.0556,6.9538,6.9015,6.9015,6.9015,6.9015,6.9015,6.9015,6.9015,2.6024,2.5755,2.5755,2.5688,2.6103,0.0,0.0,2.7795,2.848,2.9518,3.0139,3.0846,3.1986,3.3018,3.4117,3.5215,3.5849,3.6899,3.9095,4.1242,4.2975,4.4098,4.5171,4.6245,4.7343,4.7905,4.8637,4.9662,5.2273,5.4299,5.53,5.647,5.7325,5.7886,5.791,5.791,5.791,5.791,5.791,5.791,5.791,5.791,5.791,5.791,5.791,5.791,5.791,5.791,5.791,5.791,5.8228,5.8813,5.9863,6.0912,6.1937,6.306,6.3816,6.4388,6.4388,6.4388,6.4388,6.4388,6.4388,6.4388,6.4388,6.4388,6.4388,6.4388,6.4388,6.4388,6.4388,6.1132,5.791,5.791,5.791,5.791,5.791,5.791,5.791,5.791,5.791,5.8594,6.0741,6.297,6.4388,6.4388,6.4388,6.4388,6.4388,6.4388,6.4388,6.4388,6.4388,6.4388,6.4388,6.4388,6.6081,7.0162,7.432,7.6564,7.6564,7.6564,7.4221,6.9102,6.9015,6.9015,6.9015,6.9015,6.9015,6.9015,6.9015,6.9015,2.4275,2.4104,2.4396,2.5688,2.6534,0.0,2.7857,2.8635,2.9588,3.0879,3.1993,3.3049,3.4214,3.5288,3.6337,3.7387,3.7728,3.9361,4.3732,4.5015,4.5966,4.7124,4.8027,4.8574,4.8856,4.9613,5.0101,5.0101,5.2712,5.4884,5.6105,5.73,5.791,5.791,5.791,5.791,5.791,5.791,5.791,5.791,5.791,5.791,5.791,5.791,5.791,5.791,5.791,5.791,5.791,5.791,5.791,5.8008,5.9106,6.0009,6.0888,6.2157,6.3182,6.3987,6.429,6.4388,6.4388,6.4388,6.4388,6.4388,6.4388,6.4388,6.4388,6.4388,6.4192,6.3962,6.4231,6.1132,5.791,5.791,5.791,5.791,5.791,5.791,5.791,5.791,5.791,5.791,5.791,6.1449,6.4388,6.4388,6.4388,6.4388,6.4388,6.4388,6.4388,6.4388,6.4388,6.4388,6.4388,6.4388,6.4388,6.4388,7.0547,7.3795,7.2978,7.4303,7.3203,6.9102,6.9015,6.9015,6.9015,6.9015,6.9015,6.9015,6.9015,6.9015,2.3891,2.4104,2.4623,2.6694,2.6449,0.0,2.9506,3.019,3.0791,3.2992,3.4287,3.5361,3.6388,3.7411,3.8509,3.9683,4.0661,4.2756,4.7038,4.7745,4.8246,4.9296,4.9515,4.9979,5.1046,5.1241,5.1315,5.1315,5.2536,5.4079,5.6056,5.73,5.791,5.791,5.791,5.791,5.791,5.791,5.791,5.791,5.791,5.791,5.791,5.791,5.791,5.791,5.791,5.791,5.791,5.791,5.791,5.8008,5.9106,5.9594,5.9911,6.1888,6.2693,6.2962,6.3938,6.4388,6.4388,6.4388,6.4388,6.4388,6.4388,6.4388,6.4388,6.4388,6.3459,6.2693,6.4046,6.1132,5.791,5.791,5.791,5.791,5.791,5.791,5.791,5.791,5.791,5.791,5.791,6.1449,6.4388,6.4388,6.4388,6.4388,6.4388,6.4388,6.4388,6.4388,6.4388,6.4388,6.4388,6.4388,6.4388,6.4388,6.5227,6.4028,6.0203,6.6337,6.9596,6.9015,6.9015,6.9015,6.9015,6.9015,6.9015,6.9015,6.9015,6.9015,2.2122,2.3003,2.414,2.6771,0.0,0.0,3.0969,3.1925,3.3005,3.5196,3.6484,3.7533,3.8631,4.0193,4.1682,4.2804,4.4415,4.6367,4.8783,4.9125,4.9515,5.0679,5.0801,5.0973,5.1461,5.151,5.151,5.151,5.3074,5.4347,5.525,5.6959,5.791,5.791,5.791,5.791,5.791,5.791,5.791,5.791,5.791,5.791,5.791,5.791,5.791,5.791,5.791,5.791,5.791,5.791,5.791,5.7959,5.8398,5.896,5.9692,6.1132,6.2083,6.2791,6.3914,6.4388,6.4388,6.4388,6.4388,6.4388,6.4388,6.4388,6.4388,6.4388,6.3948,6.3337,6.2547,6.0155,5.791,5.791,5.791,5.791,5.791,5.791,5.791,5.791,5.791,5.791,5.791,5.9399,6.1424,6.3997,6.4388,6.4388,6.4388,6.4388,6.4388,6.4388,6.4388,6.4388,6.4388,6.4388,6.323,6.0741,6.057,5.9765,5.7984,6.5063,6.9015,6.9015,6.9015,6.9015,6.9015,6.9015,6.9015,6.9015,6.9015,6.9015,2.0573,0.0,0.0,0.0,0.0,0.0,3.1652,3.305,3.4576,3.6367,3.821,3.9729,4.0905,4.256,4.4308,4.5966,4.788,4.9393,5.0125,5.0223,5.0582,5.1412,5.151,5.151,5.151,5.151,5.151,0.0,5.3221,5.4323,5.4616,5.6422,5.7593,5.7886,5.791,5.791,5.791,5.791,5.791,5.791,5.791,5.791,5.791,5.791,5.791,5.791,5.791,5.791,5.791,5.791,5.791,5.791,5.791,5.8398,5.9204,6.0229,6.1278,6.2327,6.345,6.4036,6.4388,6.4388,6.4388,6.4388,6.4388,6.4388,6.4388,6.4388,6.4084,6.3401,6.1498,5.9472,5.791,5.791,5.791,5.791,5.791,5.791,5.791,5.791,5.791,5.791,5.791,5.791,5.896,6.2059,6.2604,6.3044,6.4158,6.4388,6.4388,6.4388,6.323,6.2604,6.2604,6.2604,6.1205,5.8106,5.791,5.791,5.791,6.3047,6.6942,6.8952,6.9015,6.9015,6.9015,6.9015,6.9015,6.9015,6.9015,6.9015,0.0,0.0,0.0,2.6907,2.7822,2.8856,3.1166,3.318,3.493,3.6125,3.9226,4.1999,4.3073,4.4113,4.5893,4.9101,5.0655,5.1412,5.1437,5.1437,5.1461,5.151,5.151,5.151,5.151,5.151,5.151,5.151,5.2512,5.3542,5.4591,5.569,5.6714,5.7886,5.791,5.791,5.791,5.791,5.791,5.791,5.791,5.791,5.791,5.791,5.791,5.791,5.791,5.791,5.791,5.791,5.791,5.791,5.791,5.7935,5.8081,5.9155,6.0204,6.1229,6.2303,6.3377,6.4388,6.4388,6.4388,6.4388,6.4388,6.4388,6.4388,6.4388,6.3499,6.2401,6.1302,5.9472,5.791,5.791,5.791,5.791,5.791,5.791,5.791,5.791,5.791,5.791,5.791,5.791,5.7959,5.8081,5.8106,5.9594,6.385,6.4388,6.4388,6.4388,6.057,5.8106,5.8106,5.8106,5.8057,5.791,5.791,5.791,5.791,5.8111,6.1664,6.8888,6.9015,6.9015,6.9015,6.9015,6.9015,6.9015,6.9015,6.9015,2.0223,2.275,2.5427,2.8572,2.9934,3.153,3.5336,3.5989,3.6429,3.8823,4.1214,4.3026,4.3759,4.5664,4.7647,4.9467,5.0777,5.151,5.151,5.151,5.151,5.151,5.151,5.151,5.151,5.151,5.151,5.151,5.2488,0.0,5.4567,5.5593,5.6763,5.7886,5.791,5.791,5.791,5.791,5.791,5.791,5.791,5.791,5.791,5.791,5.791,5.791,5.791,5.791,5.791,5.791,5.791,5.791,5.791,5.791,5.8032,5.9106,5.9716,6.0277,6.201,6.2864,6.3304,6.406,6.4388,6.4388,6.4388,6.4388,6.4388,6.4388,6.3499,6.2376,6.1302,6.018,5.9082,5.8154,5.791,5.791,5.791,5.791,5.791,5.791,5.791,5.791,5.791,5.791,5.791,5.791,5.791,5.8447,5.9863,6.0058,6.0058,6.0058,5.8764,5.791,5.791,5.791,5.791,5.791,5.791,5.791,5.791,6.2627,6.6453,6.8952,6.9015,6.9015,6.9015,6.9015,6.9015,6.9015,6.9015,6.9015,2.032,2.3539,2.6913,2.9283,3.1209,3.3438,3.6926,3.7445,3.7913,4.0423,4.2523,4.4116,4.4886,4.7096,4.9125,5.0199,5.1021,5.151,5.151,5.151,5.151,5.151,5.151,5.151,5.151,5.151,5.151,5.151,5.2145,5.3103,5.4543,5.5299,5.6348,5.7861,5.791,5.791,5.791,5.791,5.791,5.791,5.791,5.791,5.791,5.791,5.791,5.791,5.791,5.791,5.791,5.791,5.791,5.791,5.791,5.791,5.7984,5.8691,5.9179,5.9716,6.1058,6.1986,6.2742,6.345,6.3962,6.4388,6.4388,6.4388,6.4388,6.4388,6.3206,6.1888,6.1205,6.0155,5.9057,5.813,5.791,5.791,5.791,5.791,5.791,5.791,5.791,5.791,5.791,5.791,5.791,5.791,5.791,5.791,5.791,5.791,5.791,5.791,5.791,5.791,5.791,5.791,5.791,5.791,5.791,5.9105,6.1806,6.6453,6.9015,6.9015,6.9015,6.9015,6.9015,6.9015,6.9015,6.9015,6.9015,6.9015,2.0236,2.4544,2.9014,2.9101,3.1597,3.4479,3.6198,3.7681,3.9127,4.0813,4.32,4.5356,4.6393,4.833,5.0125,5.1315,5.151,5.151,5.151,5.151,5.151,5.151,5.151,5.151,5.151,5.151,5.151,5.151,5.151,5.2414,5.4445,5.4591,5.5616,5.7764,5.7886,5.791,5.791,5.791,5.791,5.791,5.791,5.791,5.791,5.791,5.791,5.791,5.791,5.791,5.791,5.791,5.791,5.791,5.791,5.791,5.791,5.791,5.8545,5.9423,5.9497,6.0814,6.2474,6.2571,6.3352,6.429,6.4363,6.4388,6.4363,6.4231,6.2669,6.101,6.0961,5.9423,5.791,5.791,5.791,5.791,5.791,5.791,5.791,5.791,5.791,5.791,5.791,5.791,5.791,5.791,5.791,5.791,5.791,5.791,5.791,5.791,5.791,5.791,5.791,5.791,5.791,5.791,5.791,6.1046,6.81,6.8796,6.8825,6.8449,6.8796,6.9015,6.9015,6.9015,6.9015,6.9015,6.9015,6.9015,2.3154,2.6493,2.9408,3.1249,3.288,3.5005,3.8819,3.9161,3.9025,4.0115,4.3452,4.6174,4.5976,4.8002,5.0125,5.1315,5.151,5.151,5.151,5.151,5.151,5.151,5.151,5.151,5.151,5.151,5.151,5.151,5.151,5.2097,5.3371,5.4201,5.5275,5.6617,5.7471,5.791,5.791,5.791,5.791,5.791,5.791,5.791,5.791,5.791,5.791,5.791,5.791,5.791,5.791,5.791,5.791,5.791,5.791,5.791,5.791,5.791,5.8081,5.8447,5.9228,5.9863,6.057,6.2108,6.2815,6.3206,6.4036,6.4388,6.4133,6.3279,6.2059,6.0839,6.0107,5.8911,5.791,5.791,5.791,5.791,5.791,5.791,5.791,5.791,5.791,5.791,5.791,5.791,5.791,5.791,5.791,5.791,5.791,5.791,5.791,5.791,5.791,5.791,5.791,5.791,5.791,5.791,5.791,5.8759,6.0686,6.6095,6.6387,6.083,6.6161,6.9015,6.9015,6.9015,6.9015,6.9015,6.9015,6.9015,2.326,2.7139,3.0749,3.2831,3.43,3.6174,3.9984,3.9436,3.8756,4.072,4.3543,4.5339,4.4698,4.7434,5.0125,5.1315,5.151,5.151,5.151,5.151,5.151,5.151,5.151,5.151,5.151,5.151,5.151,5.151,5.151,5.1974,5.305,5.4054,5.5128,5.6129,5.7325,5.791,5.791,5.791,5.791,5.791,5.791,5.791,5.791,5.791,5.791,5.791,5.791,5.791,5.791,5.791,5.791,5.791,5.791,5.791,5.791,5.791,5.791,5.7984,5.8594,5.9106,5.9789,6.14,6.223,6.284,6.3962,6.4388,6.406,6.2937,6.1839,6.079,5.9789,5.8716,5.791,5.791,5.791,5.791,5.791,5.791,5.791,5.791,5.791,5.791,5.791,5.791,5.791,5.791,5.791,5.791,5.791,5.791,5.791,5.791,5.791,5.791,5.791,5.791,5.791,5.791,5.791,5.791,5.791,6.1948,6.2161,5.7986,6.2019,6.5762,6.9015,6.9015,6.9015,6.9015,6.9015,6.9015,2.2423,2.7063,3.1793,3.3609,3.524,3.7178,3.975,3.8901,3.8324,4.1285,4.288,4.3632,4.3234,4.6757,5.0125,5.1315,5.151,5.151,5.151,5.151,5.151,5.151,5.151,5.151,5.151,5.151,5.151,5.151,5.151,5.1901,5.2854,5.3981,5.5055,5.591,5.7251,5.791,5.791,5.791,5.791,5.791,5.791,5.791,5.791,5.791,5.791,5.791,5.791,5.791,5.791,5.791,5.791,5.791,5.791,5.791,5.791,5.791,5.791,5.791,5.791,5.852,5.9472,6.0497,6.1546,6.2596,6.3718,6.4084,6.384,6.2718,6.1644,6.0595,5.957,5.8618,5.791,5.791,5.791,5.791,5.791,5.791,5.791,5.791,5.791,5.791,5.791,5.791,5.791,5.791,5.791,5.791,5.791,5.791,5.791,5.791,5.791,5.791,5.791,5.791,5.791,5.791,5.791,5.791,5.791,5.791,5.791,5.791,5.8883,6.2557,6.9015,6.9015,6.9015,6.9015,6.9015,6.9015,2.4236,2.6768,2.9408,3.249,3.4104,3.549,3.7573,3.7775,3.7706,3.8281,4.0341,4.2264,4.3035,4.6757,5.0125,5.1315,5.151,5.151,5.151,5.151,5.151,5.151,5.151,5.151,5.151,5.151,5.151,5.151,5.151,5.1583,5.1779,5.3566,5.4713,5.4909,5.6861,5.791,5.791,5.791,5.791,5.791,5.791,5.791,5.791,5.791,5.791,5.791,5.791,5.791,5.791,5.791,5.791,5.791,5.791,5.791,5.791,5.791,5.791,5.791,5.791,5.8032,5.8374,5.9423,6.0448,6.1498,6.2571,6.2913,6.2669,6.1595,6.0546,5.9521,5.8472,5.8057,5.791,5.791,5.791,5.791,5.791,5.791,5.791,5.791,5.791,5.791,5.791,5.791,5.791,5.791,5.791,5.791,5.791,5.791,5.791,5.791,5.791,5.791,5.791,5.791,5.791,5.791,5.791,5.791,5.791,5.791,5.791,5.791,6.3946,6.7686,6.9015,6.9015,6.9015,6.9015,6.9015,6.9015,2.4071,2.6624,2.9191,3.0819,3.2937,3.5129,3.7042,3.6824,3.6194,3.6194,3.7925,4.0041,4.2028,4.4816,4.7634,5.0231,5.063,5.0826,5.1412,5.151,5.151,5.151,5.151,5.151,5.151,5.151,5.151,5.151,5.151,5.151,5.151,5.2932,5.4054,5.4616,5.6202,5.7325,5.791,5.791,5.791,5.791,5.791,5.791,5.791,5.791,5.791,5.791,5.791,5.791,5.791,5.791,5.791,5.791,5.791,5.791,5.791,5.791,5.791,5.791,5.791,5.791,5.8081,5.9155,5.9838,6.0424,6.1473,6.1791,6.1571,6.0522,5.9887,5.9277,5.8179,5.791,5.791,5.791,5.791,5.791,5.791,5.791,5.791,5.791,5.791,5.791,5.791,5.791,5.791,5.791,5.791,5.791,5.791,5.791,5.791,5.791,5.791,5.791,5.791,5.791,5.791,5.791,5.791,5.791,5.791,5.791,5.9105,6.1735,6.6519,6.9015,6.9015,6.9015,6.9015,6.9015,6.9015,6.9015,2.4042,2.6586,2.889,2.9022,3.1371,3.4143,3.6231,3.5835,3.5004,3.5004,3.6325,3.8359,4.1073,4.2998,4.5355,4.9136,4.9759,5.015,5.1339,5.151,5.151,5.151,5.151,5.151,5.151,5.151,5.151,5.151,5.151,5.151,5.151,5.2512,5.3542,5.4591,5.5593,5.6763,5.7886,5.791,5.791,5.791,5.791,5.791,5.791,5.791,5.791,5.791,5.791,5.791,5.791,5.791,5.791,5.791,5.791,5.791,5.791,5.791,5.791,5.791,5.791,5.791,5.8057,5.8886,5.9326,5.9667,6.0448,6.0692,6.0522,5.9741,5.935,5.896,5.813,5.791,5.791,5.791,5.791,5.791,5.791,5.791,5.791,5.791,5.791,5.791,5.791,5.791,5.791,5.791,5.791,5.791,5.791,5.791,5.791,5.791,5.791,5.791,5.791,5.791,5.791,5.791,5.791,5.791,5.791,5.8411,6.0495,6.4289,6.6623,6.8008,6.8385,6.8385,6.8576,6.9015,6.9015,6.9015,2.5787,2.653,2.6688,2.7433,2.8998,3.1003,3.3566,3.4603,3.5004,3.5004,3.6325,3.8359,4.1073,4.2998,4.5355,4.9136,4.9759,5.015,5.1339,5.151,5.151,5.151,5.151,5.151,5.151,5.151,5.151,5.151,5.151,5.151,5.151,5.2512,5.3542,5.4591,5.5593,5.6763,5.7886,5.791,5.791,5.791,5.791,5.791,5.791,5.791,5.791,5.791,5.791,5.791,5.791,5.791,5.791,5.791,5.791,5.791,5.791,5.791,5.791,5.791,5.791,5.791,5.7935,5.8032,5.8716,5.9521,5.9619,5.9643,5.9619,5.9545,5.8813,5.8032,5.7935,5.791,5.791,5.791,5.791,5.791,5.791,5.791,5.791,5.791,5.791,5.791,5.791,5.791,5.791,5.791,5.791,5.791,5.791,5.791,5.791,5.791,5.791,5.791,5.791,5.791,5.791,5.791,5.791,5.791,5.791,6.0058,6.121,6.1086,6.2897,6.4683,6.6341,6.6341,6.7276,6.9015,6.9015,6.9015,2.4529,2.5589,2.6462,2.7227,2.8667,3.0505,3.2556,3.2878,3.3011,3.4074,3.5231,3.6619,3.8739,4.0528,4.2694,4.585,4.7737,4.9223,5.0272,5.107,5.151,5.151,5.151,5.151,5.151,5.151,5.151,5.151,5.151,5.151,5.151,5.1901,5.2927,5.4591,5.5055,5.6104,5.7886,5.791,5.791,5.791,5.791,5.791,5.791,5.791,5.791,5.791,5.791,5.791,5.791,5.791,5.791,5.791,5.791,5.791,5.791,5.791,5.791,5.791,5.791,5.791,5.791,5.791,5.8203,5.8545,5.8545,5.8545,5.8545,5.8545,5.8252,5.791,5.791,5.791,5.791,5.791,5.791,5.791,5.791,5.791,5.791,5.791,5.791,5.791,5.791,5.791,5.791,5.791,5.791,5.791,5.791,5.791,5.791,5.791,5.791,5.791,5.791,5.791,5.791,5.791,5.791,5.791,5.791,5.9887,6.0897,6.0681,6.2478,6.3728,6.4479,6.5517,6.6501,6.7276,6.8449,6.9015,2.3494,2.4764,2.6082,2.6867,2.8117,2.9614,3.1319,3.1284,3.1324,3.2788,3.3884,3.5147,3.6808,3.8704,4.0955,4.3679,4.6432,4.8612,4.9613,5.0801,5.151,5.151,5.151,5.151,5.151,5.151,5.151,5.151,5.151,5.151,5.151,5.151,5.2488,5.4567,5.464,5.569,5.7886,5.791,5.791,5.791,5.791,5.791,5.791,5.791,5.791,5.791,5.791,5.791,5.791,5.791,5.791,5.791,5.791,5.791,5.791,5.791,5.791,5.791,5.791,5.791,5.791,5.791,5.791,5.791,5.791,5.791,5.791,5.791,5.791,5.791,5.791,5.791,5.791,5.791,5.791,5.791,5.791,5.791,5.791,5.791,5.791,5.791,5.791,5.791,5.791,5.791,5.791,5.791,5.791,5.791,5.791,5.791,5.791,5.791,5.791,5.791,5.791,5.791,5.791,5.791,5.791,5.9129,5.9862,5.9862,6.1112,6.2293,6.3356,6.4683,6.5878,6.6988,6.8356,6.9015,2.3494,2.4393,2.5247,2.6063,2.6829,2.789,2.9557,2.9974,3.0202,3.1134,3.2674,3.428,3.5877,3.826,4.0955,4.3679,4.6432,4.8612,4.9613,5.0801,5.151,5.151,5.151,5.151,5.151,5.151,5.151,5.151,5.151,5.151,5.151,5.151,5.2488,5.4567,5.464,5.569,5.7886,5.791,5.791,5.791,5.791,5.791,5.791,5.791,5.791,5.791,5.791,5.791,5.791,5.791,5.791,5.791,5.791,5.791,5.791,5.791,5.791,5.791,5.791,5.791,5.791,5.791,5.791,5.791,5.791,5.791,5.791,5.791,5.791,5.791,5.791,5.791,5.791,5.791,5.791,5.791,5.791,5.791,5.791,5.791,5.791,5.791,5.791,5.791,5.791,5.791,5.791,5.791,5.791,5.791,5.791,5.791,5.791,5.791,5.791,5.791,5.791,5.791,5.791,5.791,5.791,5.791,5.791,5.791,5.7986,5.9766,6.3356,6.3356,6.5344,6.9015,6.9015,6.9015,2.2689,2.352,2.446,2.5912,2.6462,2.6734,2.7316,2.7795,2.8439,2.9347,3.0391,3.163,3.3327,3.6659,3.9375,4.0231,4.4226,4.7514,4.8588,4.9613,5.063,5.1412,5.151,5.151,5.151,5.151,5.151,5.151,5.151,5.151,5.151,5.151,5.2145,5.3493,5.425,5.5323,5.6763,5.752,5.791,5.791,5.791,5.791,5.791,5.791,5.791,5.791,5.791,5.791,5.791,5.791,5.791,5.791,5.791,5.791,5.791,5.791,5.791,5.791,5.791,5.791,5.791,5.791,5.791,5.791,5.791,5.791,5.791,5.791,5.791,5.791,5.791,5.791,5.791,5.791,5.791,5.791,5.791,5.791,5.791,5.791,5.791,5.791,5.791,5.791,5.791,5.791,5.791,5.791,5.791,5.791,5.791,5.791,5.791,5.791,5.791,5.791,5.791,5.791,5.791,5.791,5.791,5.791,5.791,5.791,5.791,5.9154,6.1515,6.2758,6.4642,6.7053,6.8385,6.9015,2.189,2.2855,2.3968,2.501,2.5551,2.5798,2.5798,2.6424,2.7113,2.7696,2.8455,2.9387,3.0789,3.4214,3.7245,3.8517,4.2327,4.5762,4.7366,4.8856,5.0003,5.0777,5.1241,5.151,5.151,5.151,5.151,5.151,5.151,5.151,5.151,5.151,5.1999,5.3005,5.4079,5.5153,5.6153,5.7349,5.791,5.791,5.791,5.791,5.791,5.791,5.791,5.791,5.791,5.791,5.791,5.791,5.791,5.791,5.791,5.791,5.791,5.791,5.791,5.791,5.791,5.791,5.791,5.791,5.791,5.791,5.791,5.791,5.791,5.791,5.791,5.791,5.791,5.791,5.791,5.791,5.791,5.791,5.791,5.791,5.791,5.791,5.791,5.791,5.791,5.791,5.791,5.791,5.791,5.791,5.791,5.791,5.791,5.791,5.791,5.791,5.791,5.791,5.791,5.791,5.791,5.791,5.791,5.791,5.791,5.791,5.791,5.9129,6.1702,6.2827,6.471,6.7211,6.8449,6.9015,2.1145,2.2376,2.3646,2.3722,2.4412,2.5086,2.5086,2.5627,2.6177,2.6177,2.6772,2.7568,2.8417,3.1219,3.4451,3.7719,4.0649,4.3326,4.5859,4.8068,4.9468,4.9541,5.0736,5.151,5.151,5.151,5.151,5.151,5.151,5.151,5.151,5.151,5.1974,5.2952,5.403,5.5104,5.6031,5.73,5.791,5.791,5.791,5.791,5.791,5.791,5.791,5.791,5.791,5.791,5.791,5.791,5.791,5.791,5.791,5.791,5.791,5.791,5.791,5.791,5.791,5.791,5.791,5.791,5.791,5.791,5.791,5.791,5.791,5.791,5.791,5.791,5.791,5.791,5.791,5.791,5.791,5.791,5.791,5.791,5.791,5.791,5.791,5.791,5.791,5.791,5.791,5.791,5.791,5.791,5.791,5.791,5.791,5.791,5.791,5.791,5.791,5.791,5.791,5.791,5.791,5.791,5.791,5.791,5.791,5.791,5.791,5.9619,6.3175,6.3175,6.5143,6.8796,6.8796,6.8859,2.1033,2.1982,2.2931,2.357,2.4412,2.5086,2.5086,2.5238,2.5323,2.5323,2.5968,2.6545,2.6804,2.7971,3.0045,3.3375,3.7128,4.0175,4.1694,4.4629,4.6897,4.7714,5.0025,5.151,5.151,5.151,5.151,5.151,5.151,5.151,5.151,5.151,5.1608,5.1877,5.364,5.4762,5.5006,5.6934,5.791,5.791,5.791,5.791,5.791,5.791,5.791,5.791,5.791,5.791,5.791,5.791,5.791,5.791,5.791,5.791,5.791,5.791,5.791,5.791,5.791,5.791,5.791,5.791,5.791,5.791,5.791,5.791,5.791,5.791,5.791,5.791,5.791,5.791,5.791,5.791,5.791,5.791,5.791,5.791,5.791,5.791,5.791,5.791,5.791,5.791,5.791,5.791,5.791,5.791,5.791,5.791,5.791,5.791,5.791,5.791,5.791,5.791,5.791,5.791,5.791,5.791,5.791,5.791,5.791,5.791,5.791,5.9006,6.1301,6.1301,6.3175,6.6792,6.6792,6.7564,2.0539,2.1586,2.2727,2.3513,2.4412,2.5086,2.5086,2.4735,2.445,2.445,2.4811,2.5067,2.5067,2.6052,2.7459,2.9319,3.3643,3.7433,3.9353,4.2904,4.5607,4.6417,4.904,5.0924,5.1437,5.151,5.151,5.151,5.151,5.151,5.151,5.151,5.151,5.151,5.3518,5.464,5.464,5.6812,5.791,5.791,5.791,5.791,5.791,5.791,5.791,5.791,5.791,5.791,5.791,5.791,5.791,5.791,5.791,5.791,5.791,5.791,5.791,5.791,5.791,5.791,5.791,5.791,5.791,5.791,5.791,5.791,5.791,5.791,5.791,5.791,5.791,5.791,5.791,5.791,5.791,5.791,5.791,5.791,5.791,5.791,5.791,5.791,5.791,5.791,5.791,5.791,5.791,5.791,5.791,5.791,5.791,5.791,5.791,5.791,5.791,5.791,5.791,5.791,5.791,5.791,5.791,5.791,5.791,5.791,5.791,5.8784,6.0681,6.0681,6.2548,6.6077,6.6077,6.7146,2.0217,2.1434,2.2898,2.3532,2.4317,2.4849,2.4849,2.4184,2.3532,2.3532,2.3532,2.3532,2.3532,2.4783,2.5863,2.6044,3.0222,3.458,3.7697,4.18,4.4835,4.558,4.8113,5.0264,5.1388,5.151,5.151,5.151,5.151,5.151,5.151,5.151,5.151,5.151,5.3518,5.464,5.464,5.6812,5.791,5.791,5.791,5.791,5.791,5.791,5.791,5.791,5.791,5.791,5.791,5.791,5.791,5.791,5.791,5.791,5.791,5.791,5.791,5.791,5.791,5.791,5.791,5.791,5.791,5.791,5.791,5.791,5.791,5.791,5.791,5.791,5.791,5.791,5.791,5.791,5.791,5.791,5.791,5.791,5.791,5.791,5.791,5.791,5.791,5.791,5.791,5.791,5.791,5.791,5.791,5.791,5.791,5.791,5.791,5.791,5.791,5.791,5.791,5.791,5.791,5.791,5.791,5.791,5.791,5.791,5.791,5.866,6.02,6.0537,6.2408,6.5651,6.5917,6.7146,2.1014,2.2225,2.357,2.3684,2.3816,2.393,2.393,2.3292,2.2708,2.2708,2.2708,2.2708,2.2708,2.3482,2.4347,2.5114,2.7092,3.0144,3.491,3.9818,4.3596,4.5451,4.8113,5.0264,5.1388,5.151,5.151,5.151,5.151,5.151,5.151,5.151,5.151,5.151,5.3518,5.464,5.464,5.6812,5.791,5.791,5.791,5.791,5.791,5.791,5.791,5.791,5.791,5.791,5.791,5.791,5.791,5.791,5.791,5.791,5.791,5.791,5.791,5.791,5.791,5.791,5.791,5.791,5.791,5.791,5.791,5.791,5.791,5.791,5.791,5.791,5.791,5.791,5.791,5.791,5.791,5.791,5.791,5.791,5.791,5.791,5.791,5.791,5.791,5.791,5.791,5.791,5.791,5.791,5.791,5.791,5.791,5.791,5.791,5.791,5.791,5.791,5.791,5.791,5.791,5.791,5.791,5.791,5.791,5.791,5.791,5.8036,5.8312,5.9862,6.1702,6.3796,6.5384,6.7146,2.1814,2.3184,2.4469,2.4469,2.4469,2.4336,2.3835,2.3102,2.2427,2.1929,2.1814,2.1814,2.1814,2.2874,2.3854,2.4298,2.5741,2.8005,3.1564,3.723,4.216,4.5312,4.757,4.9589,5.1339,5.151,5.151,5.151,5.151,5.151,5.151,5.151,5.151,5.151,5.3518,5.464,5.464,5.6812,5.791,5.791,5.791,5.791,5.791,5.791,5.791,5.791,5.791,5.791,5.791,5.791,5.791,5.791,5.791,5.791,5.791,5.791,5.791,5.791,5.791,5.791,5.791,5.791,5.791,5.791,5.791,5.791,5.791,5.791,5.791,5.791,5.791,5.791,5.791,5.791,5.791,5.791,5.791,5.791,5.791,5.791,5.791,5.791,5.791,5.791,5.791,5.791,5.791,5.791,5.791,5.791,5.791,5.791,5.791,5.791,5.791,5.791,5.791,5.791,5.791,5.791,5.791,5.791,5.791,5.791,5.791,5.791,5.791,5.8784,6.0635,6.3356,6.4207,6.6171,2.2879,0.0,2.5086,2.5086,2.4933,2.4507,0.0,2.2798,2.1986,2.109,2.0919,2.0919,2.0919,2.2324,2.3418,2.3418,2.5038,2.7018,2.9243,3.4569,3.9944,4.4444,4.6566,4.8475,5.0598,5.1218,5.151,5.151,5.151,5.151,5.151,5.151,5.151,5.151,5.3274,5.4372,5.464,5.6544,5.7642,5.791,5.791,5.791,5.791,5.791,5.791,5.791,5.791,5.791,5.791,5.791,5.791,5.791,5.791,5.791,5.791,5.791,5.791,5.791,5.791,5.791,5.791,5.791,5.791,5.791,5.791,5.791,5.791,5.791,5.791,5.791,5.791,5.791,5.791,5.791,5.791,5.791,5.791,5.791,5.791,5.791,5.791,5.791,5.791,5.791,5.791,5.791,5.791,5.791,5.791,5.791,5.791,5.791,5.791,5.791,5.791,5.791,5.791,5.791,5.791,5.791,5.791,5.791,5.791,5.791,5.791,5.791,5.791,5.8386,6.0033,6.2758,6.359,6.5344,0.0,2.4991,2.5086,2.5086,2.445,2.3589,2.2803,2.1948,0.0,2.0274,2.0122,2.0122,2.0122,2.1491,2.2613,2.2613,2.4686,2.7018,2.9243,3.2236,3.6385,4.2289,4.4662,4.6649,4.8626,5.0429,5.151,5.151,5.151,5.151,5.151,5.151,5.151,5.151,5.261,5.364,5.4616,5.569,5.6885,5.791,5.791,5.791,5.791,5.791,5.791,5.791,5.791,5.791,5.791,5.791,5.791,5.791,5.791,5.791,5.791,5.791,5.791,5.791,5.791,5.791,5.791,5.791,5.791,5.791,5.791,5.791,5.791,5.791,5.791,5.791,5.791,5.791,5.791,5.791,5.791,5.791,5.791,5.791,5.791,5.791,5.791,5.791,5.791,5.791,5.791,5.791,5.791,5.791,5.791,5.791,5.791,5.791,5.791,5.791,5.791,5.791,5.791,5.791,5.791,5.791,5.791,5.791,5.791,5.791,5.791,5.791,5.791,5.9668,6.0609,6.0943,6.4343,6.5115,2.4991,2.5086,2.5086,2.5086,2.4838,2.4336,2.3482,2.2609,2.1795,2.0919,2.0331,2.0027,2.0027,2.1396,2.2561,2.2561,2.423,2.6145,2.7958,3.095,3.4233,3.755,4.2508,4.6888,5.0103,5.1084,5.151,5.151,5.151,5.151,5.151,5.151,5.151,5.151,5.2536,5.3542,5.4616,5.5617,5.6714,5.791,5.791,5.791,5.791,5.791,5.791,5.791,5.791,5.791,0.0,5.791,5.791,5.791,5.791,5.791,5.791,5.791,5.791,5.791,5.791,5.791,5.791,5.791,5.791,5.791,5.791,5.791,5.791,5.791,5.791,5.791,5.791,5.791,5.791,5.791,5.791,5.791,5.791,5.791,5.791,5.791,5.791,5.791,5.791,5.791,5.791,5.791,5.791,5.791,5.791,5.791,5.791,5.791,5.791,5.791,5.791,5.791,5.791,5.791,5.791,5.791,5.791,5.791,5.791,5.791,5.791,5.791,5.791,5.8586,5.9521,6.0681,6.2056,6.2967,2.5418,2.5418,2.5418,2.5418,2.5276,2.483,2.393,2.3102,2.2313,2.1375,2.0558,2.0027,2.0027,2.1396,2.2561,2.2561,2.4173,2.5912,2.7227,3.0606,3.3221,3.4102,4.0484,4.5823,4.8592,5.0472,5.151,5.151,5.151,5.151,5.151,5.151,5.151,5.151,5.2219,5.32,5.4616,5.5348,5.647,5.791,5.791,5.791,5.791,5.791,5.791,5.791,5.791,5.791,5.791,5.791,5.791,5.791,5.791,5.791,5.791,5.791,5.791,5.791,5.791,5.791,5.791,5.791,5.791,5.791,5.791,5.791,5.791,5.791,5.791,5.791,5.791,5.791,5.791,5.791,5.791,5.791,5.791,5.791,5.791,5.791,5.791,5.791,5.791,5.791,5.791,5.791,5.791,5.791,5.791,5.791,5.791,5.791,5.791,5.791,5.791,5.791,5.791,5.791,5.791,5.791,5.791,5.791,5.791,5.791,5.791,5.791,5.791,5.791,5.8586,5.9789,5.9789,6.0753,2.6272,2.6272,2.6272,2.6253,2.5646,2.483,2.393,2.3121,2.229,2.1394,2.0558,2.0046,2.0046,2.1436,2.2561,2.2561,2.4602,2.6488,2.7303,3.1071,3.3473,3.2587,3.8566,4.2834,4.3144,4.8207,5.1419,5.1486,5.1486,5.151,5.151,5.151,5.151,5.151,5.151,5.2512,5.4591,5.464,5.5738,5.7886,5.791,5.791,5.791,5.791,5.791,5.791,5.791,5.791,5.791,5.791,5.791,5.791,5.791,5.791,5.791,5.791,5.791,5.791,5.791,5.791,5.791,5.791,5.791,5.791,5.791,5.791,5.791,5.791,5.791,5.791,5.791,5.791,5.791,5.791,5.791,5.791,5.791,5.791,5.791,5.791,5.791,5.791,5.791,5.791,5.791,5.791,5.791,5.791,5.791,5.791,5.791,5.791,5.791,5.791,5.791,5.791,5.791,5.791,5.791,5.791,5.791,5.791,5.791,5.791,5.791,5.791,5.791,5.791,5.791,5.791,5.7886,5.8907,2.6905,2.7056,2.6924,2.6405,2.6082,2.5684,2.4849,2.4013,2.314,2.2328,2.1472,2.0843,2.0843,2.1776,2.2708,2.3292,2.5,2.6488,2.7303,3.1071,3.3473,3.2587,3.8566,4.2834,4.3144,4.5725,4.8004,4.9385,5.0723,5.151,5.151,5.151,5.151,5.151,5.151,5.217,5.3493,5.425,5.5348,5.6739,5.752,5.791,5.791,5.791,5.791,5.791,5.791,5.791,5.791,5.791,5.791,5.791,5.791,5.791,5.791,5.791,5.791,5.791,5.791,5.791,5.791,5.791,5.791,5.791,5.791,5.791,5.791,5.791,5.791,5.791,5.791,5.791,5.791,5.791,5.791,5.791,5.791,5.791,5.791,5.791,5.791,5.791,5.791,5.791,5.791,5.791,5.791,5.791,5.791,5.791,5.791,5.791,5.791,5.791,5.791,5.791,5.791,5.791,5.791,5.791,5.791,5.791,5.791,5.791,5.791,5.791,5.791,5.791,5.791,5.7886,5.7105,5.7593,2.77,2.7928,2.7867,2.7373,2.6747,2.612,2.5627,2.4574,2.357,2.3102,2.2347,2.1716,2.1716,2.2442,2.3159,2.3646,2.5389,2.698,2.7867,3.1609,3.408,3.3561,3.8936,4.3008,4.3624,4.5602,4.7656,4.959,5.0858,5.151,5.151,5.151,5.151,5.151,5.151,5.2023,5.3005,5.4079,5.5177,5.6178,5.7373,5.791,5.791,5.791,5.791,5.791,5.791,5.791,5.791,5.791,5.791,5.791,5.791,5.791,5.791,5.791,5.791,5.791,5.791,5.791,5.791,5.791,5.791,5.791,5.791,5.791,5.791,5.791,5.791,5.791,5.791,5.791,5.791,5.791,5.791,5.791,5.791,5.791,5.791,5.791,5.791,5.791,5.791,5.791,5.791,5.791,5.791,5.791,5.791,5.791,5.791,5.791,5.791,5.791,5.791,5.791,5.791,5.791,5.791,5.791,5.791,5.791,5.791,5.791,5.791,5.7691,5.7251,5.7251,5.7007,5.6592,5.5909,5.6451,2.8512,2.8851,2.8889,2.8759,2.7544,2.6348,2.6272,2.4972,2.3816,2.3741,2.314,2.2675,2.2675,2.3235,2.3778,2.393,2.5976,2.7833,2.874,3.2549,3.5166,3.5012,3.948,4.3132,4.4387,4.6674,4.9018,5.1352,5.1352,5.1285,5.151,5.151,5.151,5.151,5.151,5.1974,5.2952,5.3957,5.5031,5.6031,5.7227,5.7813,5.791,5.791,5.791,5.791,5.791,5.791,5.791,5.791,5.791,5.791,5.791,5.791,5.791,5.791,5.791,5.791,5.791,5.791,5.791,5.791,5.791,5.791,5.791,5.791,5.791,5.791,5.791,5.791,5.791,5.791,5.791,5.791,5.791,5.791,5.791,5.791,5.791,5.791,5.791,5.791,5.791,5.791,5.791,5.791,5.791,5.791,5.791,5.791,5.791,5.791,5.791,5.791,5.791,5.791,5.791,5.791,5.791,5.791,5.791,5.791,5.7861,5.7764,5.7764,5.7203,5.6007,5.6007,5.552,5.464,5.4543,5.5474,2.8512,2.9215,2.9556,2.8946,2.7981,2.6999,2.6405,2.5494,2.4583,2.3873,2.357,2.3437,2.3437,2.3589,2.4157,2.5465,2.7278,2.8759,2.9575,3.3922,3.6468,3.5145,3.8897,4.2321,4.4293,4.4223,4.6134,5.1127,5.009,4.9886,5.1419,5.151,5.151,5.151,5.151,5.1608,5.1828,5.2834,5.3908,5.4982,5.608,5.7056,5.791,5.791,5.791,5.791,5.791,5.791,5.791,5.791,5.791,5.791,5.791,5.791,5.791,5.791,5.791,5.791,5.791,5.791,5.791,5.791,5.791,5.791,5.791,5.791,5.791,5.791,5.791,5.791,5.791,5.791,5.791,5.791,5.791,5.791,5.791,5.791,5.791,5.791,5.791,5.791,5.791,5.791,5.791,5.791,5.791,5.791,5.791,5.791,5.791,5.791,5.791,5.791,5.791,5.791,5.791,5.791,5.791,5.791,5.791,5.791,5.7495,5.6519,5.6519,5.6056,5.4982,5.4982,5.486,5.4616,5.3762,5.4262,2.8398,2.9044,2.9366,2.9328,2.8702,2.7867,2.698,2.6215,2.538,2.4545,2.4393,2.4393,2.4393,2.465,2.5199,2.612,2.7981,2.9613,3.0448,3.3896,3.6245,3.6242,3.8423,4.0959,4.3464,4.3999,4.5851,4.9794,5.0022,5.0429,5.1419,5.151,5.151,5.151,5.151,5.151,5.151,5.2561,5.3322,5.3884,5.5398,5.647,5.7129,5.7666,5.791,5.791,5.791,5.791,5.791,5.791,5.791,5.791,5.791,5.791,5.791,5.791,5.791,5.791,5.791,5.791,5.791,5.791,5.791,5.791,5.791,5.791,5.791,5.791,5.791,5.791,5.791,5.791,5.791,5.791,5.791,5.791,5.791,5.791,5.791,5.791,5.791,5.791,5.791,5.791,5.791,5.791,5.791,5.791,5.791,5.791,5.791,5.791,5.791,5.791,5.791,5.791,5.791,5.791,5.791,5.7666,5.7129,5.7105,5.6592,5.5494,5.547,5.4933,5.3859,5.3859,5.3591,5.3147,5.2585,5.2765,2.8095,2.8626,2.8949,2.9765,2.9347,2.855,2.7795,2.6905,2.6063,2.5399,2.5247,2.5247,2.5247,2.5912,2.6557,2.6842,2.874,3.0524,3.159,3.3846,3.5953,3.7339,3.8616,4.0393,4.3049,4.5065,4.7003,4.8949,5.0588,5.151,5.151,5.151,5.151,5.151,5.151,5.151,5.151,5.239,5.2903,5.3123,5.4835,5.5788,5.6202,5.7203,5.7715,5.791,5.791,5.791,5.791,5.791,5.791,5.791,5.791,5.791,5.791,5.791,5.791,5.791,5.791,5.791,5.791,5.791,5.791,5.791,5.791,5.791,5.791,5.791,5.791,5.791,5.791,5.791,5.791,5.791,5.791,5.791,5.791,5.791,5.791,5.791,5.791,5.791,5.791,5.791,5.791,5.791,5.791,5.791,5.791,5.791,5.791,5.791,5.791,5.791,5.791,5.791,5.791,5.791,5.7715,5.7203,5.6202,5.5983,5.5446,5.4372,5.4347,5.3835,5.283,5.283,5.2365,5.151,5.151,5.151,2.734,2.817,2.8949,2.9765,2.9347,2.8702,2.8607,2.7373,2.6215,2.612,2.6082,2.6082,2.6082,2.6715,2.7738,2.9178,3.0373,3.1685,3.3283,3.5593,3.7244,3.7472,4.031,4.306,4.5137,4.7096,4.9018,5.1017,5.1352,5.151,5.151,5.151,5.151,5.151,5.151,5.151,5.151,5.1632,5.217,5.303,5.3322,5.4421,5.6153,5.63,5.6983,5.791,5.791,5.791,5.791,5.791,5.791,5.791,5.791,5.791,5.791,5.791,5.791,5.791,5.791,5.791,5.791,5.791,5.791,5.791,5.791,5.791,5.791,5.791,5.791,5.791,5.791,5.791,5.791,5.791,5.791,5.791,5.791,5.791,5.791,5.791,5.791,5.791,5.791,5.791,5.791,5.791,5.791,5.791,5.791,5.791,5.791,5.791,5.791,5.791,5.791,5.791,5.791,5.791,5.6983,5.63,5.6153,5.5323,5.4347,5.3274,5.3249,5.2781,5.1706,5.1706,5.1632,5.151,5.151,5.151,2.6507,2.734,2.8227,2.9063,2.9347,2.9309,2.8835,2.817,2.7506,2.698,2.6886,2.6886,2.6886,2.762,2.8569,2.9765,3.1075,3.2385,3.3619,3.5517,3.696,3.7434,3.9222,4.1434,4.3797,4.5779,4.7796,4.9726,5.0858,5.151,5.151,5.151,5.151,5.151,5.151,5.151,5.151,5.151,5.173,5.2194,5.2805,5.3542,5.4469,5.5617,5.6421,5.7007,5.7642,5.791,5.791,5.791,5.791,5.791,5.791,5.791,5.791,5.791,5.791,5.791,5.791,5.791,5.791,5.791,5.791,5.791,5.791,5.791,5.791,5.791,5.791,5.791,5.791,5.791,5.791,5.791,5.791,5.791,5.791,5.791,5.791,5.791,5.791,5.791,5.791,5.791,5.791,5.791,5.791,5.791,5.791,5.791,5.791,5.791,5.791,5.791,5.791,5.791,5.7642,5.7007,5.6421,5.5617,5.4494,5.3981,5.3225,5.2219,5.2194,5.1974,5.151,5.151,5.151,5.151,5.151,5.1993,2.6025,2.6658,2.7463,2.8938,2.9452,2.9649,2.9633,2.9164,2.855,2.7871,2.7738,2.7738,2.7738,2.8664,2.9651,3.0467,3.1812,3.3144,3.3979,3.5327,3.6397,3.7092,3.8491,4.0211,4.2284,4.4865,4.7026,4.8466,5.0385,5.151,5.151,5.151,5.151,5.151,5.151,5.151,5.151,5.151,5.151,5.151,5.2316,5.283,5.3147,5.4689,5.5568,5.5812,5.7007,5.7495,5.7495,5.7788,5.791,5.791,5.791,5.791,5.791,5.791,5.791,5.791,5.791,5.791,5.791,5.791,5.791,5.791,5.791,5.791,5.791,5.791,5.791,5.791,5.791,5.791,5.791,5.791,5.791,5.791,5.791,5.791,5.791,5.791,5.791,5.791,5.791,5.791,5.791,5.791,5.791,5.791,5.791,5.791,5.791,5.791,5.791,5.7788,5.7495,5.7495,5.7007,5.5812,5.5568,5.4689,5.3103,5.2854,5.2316,5.151,5.151,5.151,5.151,5.151,5.151,5.151,5.151,5.2126,2.6025,2.6291,2.7042,3.0041,2.978,2.9369,3.1431,3.0261,2.8721,2.8737,2.8664,2.8664,2.8664,3.0069,3.1438,3.2191,3.3144,3.4017,3.4833,3.562,3.617,3.6208,3.9286,4.1532,4.1644,4.5769,4.8466,4.8605,5.0385,5.151,5.151,5.151,5.151,5.151,5.151,5.151,5.151,5.151,5.151,5.151,5.1559,5.2121,5.303,5.3221,5.3762,5.4787,5.5788,5.6251,5.6324,5.7471,5.791,5.791,5.791,5.791,5.791,5.791,5.791,5.791,5.791,5.791,5.791,5.791,5.791,5.791,5.791,5.791,5.791,5.791,5.791,5.791,5.791,5.791,5.791,5.791,5.791,5.791,5.791,5.791,5.791,5.791,5.791,5.791,5.791,5.791,5.791,5.791,5.791,5.791,5.791,5.791,5.791,5.791,5.791,5.7471,5.6348,5.6251,5.5788,5.4787,5.3762,5.3221,5.303,5.2121,5.1559,5.151,5.151,5.151,5.151,5.151,5.151,5.151,5.151,5.1552,2.7471,2.7586,2.7641,2.8736,2.9061,2.9294,2.9839,2.9331,2.8892,2.9404,2.9518,2.9689,3.0297,3.0867,3.1742,3.3106,3.36,3.4074,3.489,3.5184,3.5563,3.6094,3.7286,3.9019,4.1339,4.2691,4.4115,4.5834,4.7723,4.9596,5.1394,5.151,5.151,5.151,5.151,5.151,5.151,5.151,5.151,5.151,5.151,5.1706,5.2097,5.2781,5.3249,5.3664,5.4738,5.552,5.6202,5.6592,5.7251,5.791,5.791,5.791,5.791,5.791,5.791,5.791,5.791,5.791,5.791,5.791,5.791,5.791,5.791,5.791,5.791,5.791,5.791,5.791,5.791,5.791,5.791,5.791,5.791,5.791,5.791,5.791,5.791,5.791,5.791,5.791,5.791,5.791,5.791,5.791,5.791,5.791,5.791,5.791,5.791,5.791,5.7251,5.6592,5.6202,5.552,5.4738,5.3664,5.3249,5.2805,5.2097,5.1706,5.151,5.151,5.151,5.151,5.151,5.151,5.206,5.2995,5.2995,5.4145,2.6876,2.731,2.7764,2.8216,2.8645,2.9021,2.9568,2.8976,2.855,2.9385,2.9556,2.9803,3.0696,3.1077,3.1742,3.3125,3.36,3.4074,3.489,3.5004,3.5213,3.5677,3.5999,3.712,3.9556,3.9898,4.1332,4.4517,4.6335,4.8336,5.0809,5.129,5.151,5.151,5.151,5.151,5.151,5.151,5.151,5.151,5.151,5.151,5.1535,5.2243,5.2561,5.261,5.364,5.4494,5.5177,5.5543,5.6348,5.7349,5.7349,5.7569,5.791,5.791,5.791,5.791,5.791,5.791,5.791,5.791,5.791,5.791,5.791,5.791,5.791,5.791,5.791,5.791,5.791,5.791,5.791,5.791,5.791,5.791,5.791,5.791,5.791,5.791,5.791,5.791,5.791,5.791,5.791,5.791,5.791,5.791,5.791,5.7569,5.7349,5.7349,5.6348,5.5543,5.5201,5.4518,5.364,5.2634,5.2561,5.2243,5.1535,5.151,5.151,5.151,5.206,5.2299,5.2299,5.2865,5.3657,5.4717,5.4107,5.5384,2.4297,2.5501,2.7329,2.8551,2.8377,2.857,3.0848,2.9314,2.7625,2.8585,2.8756,2.8968,2.9803,3.0677,3.1552,3.2323,3.3239,3.4074,3.4871,3.5051,3.507,3.5004,3.5707,3.6181,3.625,3.7951,4.0806,4.4939,4.6429,4.7869,4.9622,5.085,5.1437,5.1437,5.1486,5.151,5.151,5.151,5.151,5.151,5.151,5.151,5.151,5.151,5.151,5.1559,5.261,5.3005,5.3103,5.4152,5.5201,5.6105,5.6105,5.6861,5.7861,5.7813,5.7813,5.7813,5.7861,5.7861,5.7861,5.7886,5.791,5.791,5.791,5.791,5.791,5.791,5.791,5.791,5.791,5.791,5.791,5.791,5.791,5.791,5.791,5.791,5.791,5.791,5.791,5.791,5.791,5.791,5.791,5.791,5.7886,5.7861,5.7861,5.6885,5.6105,5.6105,5.5226,5.4177,5.3127,5.3074,5.261,5.1626,5.151,5.151,5.1552,5.151,5.151,5.1552,5.3035,5.385,5.3915,5.5571,5.6376,5.6438,5.4781,5.4907,2.7418,2.737,2.7047,2.6642,2.6923,2.7427,2.8012,2.7324,2.7076,2.8851,2.8438,2.8212,2.9633,3.0145,3.079,3.2229,3.3239,3.3865,3.4093,3.5692,3.639,3.5136,3.6279,3.7621,3.8828,3.9467,4.1062,4.4186,4.4762,4.6038,4.8486,4.9662,5.0223,5.0223,5.107,5.151,5.151,5.151,5.151,5.151,5.151,5.151,5.151,5.151,5.151,5.151,5.1828,5.239,5.3123,5.3347,5.4103,5.5079,5.5079,5.5738,5.6519,5.5812,5.5543,5.5641,5.6422,5.6616,5.6837,5.7642,5.791,5.791,5.791,5.791,5.791,5.791,5.791,5.791,5.791,5.791,5.791,5.791,5.791,5.791,5.791,5.791,5.791,5.791,5.791,5.791,5.791,5.791,5.791,5.791,5.7227,5.6616,5.6616,5.5738,5.5079,5.5079,5.4128,5.3347,5.3054,5.239,5.2314,5.3125,5.2126,5.1993,5.3165,5.2126,5.206,5.3165,5.3593,5.4464,5.5696,5.613,5.6988,5.8218,5.7713,5.8337,2.6131,2.61,2.5591,2.4266,2.4878,2.5824,2.5817,2.5866,2.6353,2.7824,2.7891,2.7882,2.8718,2.9215,2.9879,3.1168,3.2157,3.3265,3.4586,3.5476,3.6232,3.7043,3.8578,4.0025,4.1016,4.046,4.1262,4.424,4.4255,4.5167,4.7415,4.8564,4.9125,4.9125,5.0174,5.0801,5.0801,5.1266,5.151,5.151,5.151,5.151,5.151,5.151,5.151,5.151,5.151,5.1852,5.2439,5.2439,5.3005,5.3957,5.3957,5.4616,5.5421,5.4347,5.425,5.4713,5.5348,5.5568,5.5593,5.6324,5.6837,5.7203,5.7203,5.7544,5.791,5.791,5.791,5.791,5.791,5.791,5.791,5.791,5.791,5.791,5.791,5.791,5.791,5.791,5.791,5.791,5.791,5.791,5.7739,5.7276,5.6568,5.6007,5.5544,5.5006,5.4445,5.4006,5.3396,5.2927,5.2463,5.2497,5.2628,5.2865,5.2603,5.2865,5.3786,5.2995,5.323,5.4907,5.5571,5.6438,5.7412,5.8099,5.8896,5.9884,5.9189,5.92,2.2236,2.2866,2.3204,2.1721,2.2473,2.3674,0.0,2.4596,2.5182,2.5898,2.6851,2.7461,2.7185,2.7991,2.8903,2.967,3.0697,3.2379,3.5454,3.4967,3.5887,3.9949,4.1593,4.2531,4.2828,4.1446,4.1813,4.4659,4.4483,4.4843,4.6404,4.749,4.8013,4.8013,4.9052,4.9589,4.9589,5.0753,5.1315,5.1315,5.1437,5.151,5.151,5.151,5.151,5.151,5.151,5.151,5.151,5.151,5.2072,5.2927,5.2927,5.3444,5.4152,5.32,5.3444,5.4299,5.4421,5.4445,5.4469,5.4591,5.5275,5.5983,5.5983,5.6837,5.7715,5.7715,5.7813,5.791,5.791,5.791,5.791,5.791,5.791,5.791,5.791,5.791,5.791,5.791,5.791,5.791,5.791,5.791,5.752,5.6324,5.5958,5.5519,5.4567,5.4347,5.3908,5.3025,5.2927,5.2605,5.1826,5.323,5.3593,5.2431,5.3489,5.4157,5.4219,5.4028,5.4646,5.6217,5.7684,5.8534,5.8737,6.014,6.0816,6.076,5.94,5.8175,0.0,0.0,0.0,0.0,0.0,0.0,0.0,2.2103,2.2348,2.354,2.4201,2.4765,2.539,2.6955,2.8316,2.8884,3.0562,3.2258,3.3766,3.615,3.8953,4.2326,4.1804,4.2014,4.421,4.4164,4.4223,4.4859,4.4794,4.4915,4.5235,4.6343,4.6953,4.6953,4.8002,4.8539,4.8539,4.9564,5.0077,5.0101,5.107,5.151,5.151,5.151,5.151,5.151,5.151,5.151,5.151,5.151,5.1632,5.1803,5.1803,5.1926,5.2097,5.1877,5.195,5.2243,5.3123,5.3347,5.3493,5.4347,5.4787,5.4933,5.4933,5.569,5.647,5.647,5.7203,5.791,5.791,5.791,5.791,5.791,5.791,5.791,5.791,5.791,5.791,5.791,5.791,5.791,5.791,5.791,5.752,5.6324,5.4762,5.3566,5.3371,5.2659,5.2048,5.1828,5.1803,5.224,5.332,5.4907,5.6315,5.7412,5.6499,5.6008,5.6311,5.5013,5.4643,5.528,5.559,5.6427,5.7821,5.8118,5.8254,5.8254,5.7958,5.662,0.0,0.0,0.0,0.0,0.0,0.0,0.0,0.0,0.0,0.0,0.0,2.3914,2.3818,0.0,2.7626,2.8294,3.0598,3.2916,3.4646,3.6179,3.8062,4.06,4.1141,4.2027,4.3934,4.4113,4.4333,4.4869,4.4918,4.4918,4.4918,4.5454,4.5746,4.5746,4.688,4.7441,4.7441,4.849,4.9003,4.9027,5.0101,5.0655,5.0679,5.1241,5.151,5.151,5.151,5.151,5.151,5.151,5.151,5.151,5.151,5.151,5.151,5.151,5.151,5.1583,5.2121,5.2292,5.239,5.2927,5.3396,5.3835,5.3835,5.4591,5.5421,5.5421,5.5836,5.6397,5.6934,5.7081,5.7203,5.7788,5.791,5.791,5.791,5.791,5.791,5.791,5.791,5.791,5.791,5.7447,5.6519,5.4884,5.3713,5.2834,5.2365,5.1828,5.151,5.151,5.2192,5.2995,5.3786,5.5384,5.7109,5.8779,5.7459,5.6459,5.6038,5.5161,5.5226,5.6238,5.6292,5.6381,5.6538,5.6538,5.6218,5.5571,5.424,5.2932,0.0,0.0,0.0,0.0,0.0,0.0,0.0,0.0,0.0,0.0,0.0,0.0,0.0,0.0,0.0,2.762,3.0232,3.2956,3.5413,3.5628,3.6307,3.8283,4.0047,4.1657,4.2926,4.3073,4.3358,4.4235,4.4479,4.4601,4.4601,4.4796,4.4918,4.4918,4.5855,4.6343,4.6343,4.7392,4.7891,4.7891,4.8978,0.0,4.9491,5.0484,5.0875,5.0899,5.1095,5.1192,5.1192,5.1412,5.151,5.1486,5.1266,5.1192,5.1192,5.1412,5.151,5.151,5.151,5.151,5.151,5.151,5.2097,5.2805,5.2805,5.3469,0.0,5.4323,5.4469,5.4835,5.5617,5.5861,5.6153,5.7056,5.7447,5.7593,5.7593,5.7764,5.791,5.791,5.791,5.7837,5.7617,5.6495,5.5031,5.3298,5.2927,5.2488,5.1608,5.151,5.151,5.151,5.293,5.3979,5.4336,5.5882,5.7423,5.8909,5.7951,5.6739,5.5164,5.5108,5.5533,5.6393,5.6444,5.5753,5.4473,5.4473,5.3921,5.2835,4.9733,4.8453,0.0,0.0,0.0,0.0,0.0,0.0,0.0,0.0,0.0,0.0,0.0,0.0,0.0,0.0,0.0,0.0,2.8807,3.103,3.3277,3.4624,3.6151,3.824,3.8704,3.9681,4.1755,4.195,4.1999,4.2121,4.3024,4.3536,4.3536,4.4406,0.0,0.0,0.0,4.5088,4.5088,4.627,4.6831,4.6855,4.7905,4.8354,4.8354,4.8476,4.8612,4.8661,4.954,4.993,5.0028,5.1095,5.151,5.1412,5.0345,4.993,5.0052,5.1119,5.151,5.151,5.151,0.0,0.0,5.151,5.1583,5.1681,5.1681,5.2414,5.32,5.32,5.3884,5.4665,5.4787,5.4811,5.4835,5.4982,5.5738,5.6348,5.6348,5.7203,5.791,5.791,5.791,5.7593,5.6519,5.4738,5.3298,5.3147,5.2292,5.1632,5.151,5.151,5.151,5.151,5.293,0.0,5.5944,5.7653,5.8768,5.9234,5.9087,5.7958,5.5642,5.5526,5.4526,5.2379,5.2398,5.171,5.0431,5.0431,5.0372,5.0111,4.5283,4.3654,0.0,0.0,0.0,0.0,0.0,0.0,0.0,0.0,0.0,0.0,0.0,0.0,0.0,0.0,0.0,0.0,2.8918,3.1278,3.1625,3.3253,3.4775,3.5654,3.6313,3.7289,3.8826,3.951,4.0144,4.0856,4.1828,4.2438,4.2438,4.3439,4.3992,4.3992,4.4601,4.4918,4.4918,4.5381,4.5625,4.5625,4.6782,4.7319,4.7343,4.7954,4.8184,4.8208,4.871,4.8881,4.8905,4.9393,4.9589,4.954,0.0,0.0,0.0,0.0,4.9955,5.0533,5.0533,5.0533,5.0533,5.0533,5.0533,5.0533,5.0533,5.129,5.217,5.217,5.2488,5.2908,5.3542,5.3713,5.3859,5.4494,5.4982,5.5299,5.5299,5.5665,5.6007,5.6007,5.6007,0.0,5.4567,5.364,5.281,5.2268,5.1779,5.151,5.151,5.2299,5.2865,5.2865,5.5196,5.7048,5.7773,5.8629,0.0,0.0,0.0,5.6683,5.5636,5.4901,0.0,0.0,0.0,4.8831,4.7522,4.6824,0.0,0.0,4.2113,4.124,0.0,0.0,0.0,0.0,0.0,0.0,0.0,0.0,0.0,0.0,0.0,0.0,0.0,0.0,0.0,0.0,2.8127,3.0432,2.9333,3.1335,3.3037,3.333,3.4287,3.5361,3.6388,3.7216,3.7972,3.8853,3.9851,4.0584,4.0852,4.1901,4.2634,4.2926,4.3626,4.4187,4.4479,4.4479,4.4625,4.4918,4.5722,4.6196,4.6221,4.6941,4.7282,4.7306,4.7623,4.7745,4.7769,4.8062,4.8184,4.8111,4.7184,4.7209,4.7745,4.7745,4.8466,4.9345,4.9345,4.9345,4.9345,4.9345,4.9345,4.9345,4.9345,4.9906,5.063,5.063,5.063,5.0875,5.1858,5.2127,5.2395,5.3493,5.3981,5.4201,5.4201,5.4421,5.464,5.464,5.3688,5.2639,5.1858,5.1712,5.1468,5.0728,5.063,5.0728,5.0997,5.2023,5.3005,5.3761,5.6499,5.8396,5.8837,5.9167,5.9156,5.8807,5.6771,5.5433,5.5055,5.3824,5.2514,5.1187,4.8307,4.6184,0.0,0.0,0.0,0.0,0.0,0.0,0.0,0.0,0.0,0.0,0.0,0.0,0.0,0.0,0.0,0.0,0.0,0.0,0.0,0.0,0.0,0.0,0.0,0.0,2.5947,2.8601,3.0993,3.2001,3.314,3.4308,3.5337,3.5459,3.5508,3.5532,3.6485,3.7509,3.8534,3.9708,4.0807,4.1779,4.1853,4.2365,4.3414,4.3358,4.3894,4.4918,4.4942,4.4967,4.4967,4.4991,4.5015,4.5088,4.6221,4.6685,4.6782,4.7832,4.8184,4.7867,4.4757,4.483,4.6685,4.6685,4.7368,4.8232,4.8232,4.8232,4.8232,4.8232,4.8232,4.8232,4.8232,4.8257,4.8281,4.8281,4.8281,4.8588,4.9589,4.9857,5.0125,5.1339,5.239,5.3078,5.3078,5.3884,5.464,5.464,5.1272,4.8379,4.833,4.833,4.833,4.8281,4.8281,0.0,4.9686,4.9873,5.0888,5.353,5.5384,5.7109,5.8779,5.9167,5.8807,5.7696,5.6334,5.5026,5.3766,5.2485,5.1158,4.9832,4.6126,4.3607,4.2287,0.0,0.0,0.0,0.0,0.0,0.0,0.0,0.0,0.0,0.0,0.0,0.0,0.0,0.0,0.0,0.0,0.0,0.0,0.0,0.0,0.0,0.0,0.0,0.0,2.7259,2.8847,2.9909,3.0944,3.1749,3.2115,3.3482,3.4336,3.4336,3.5337,3.6069,3.6411,3.746,3.8216,3.8582,3.9973,4.0954,4.1296,4.195,4.2487,4.2853,4.3529,4.3845,4.387,4.4601,4.4918,4.4918,4.5308,4.5478,4.5454,4.5171,4.4586,4.3854,4.2731,4.2756,4.3414,4.3414,4.3658,4.4049,4.4781,4.4942,4.4942,4.4942,4.4942,4.4942,4.4942,4.5454,4.6015,4.6015,4.6551,4.727,4.7612,4.8222,4.9027,5.0077,5.0589,5.1077,5.1877,5.1687,5.1394,5.1394,4.9125,4.6953,4.6136,4.6685,4.754,4.8433,4.8376,4.9044,5.1293,5.2478,5.3862,5.5707,5.81,5.9826,6.0372,5.9029,5.7987,5.7579,5.4677,5.2786,5.2398,5.0285,4.8496,4.7202,4.5179,4.2617,3.9619,0.0,0.0,0.0,0.0,0.0,0.0,0.0,0.0,0.0,0.0,0.0,0.0,0.0,0.0,0.0,0.0,0.0,0.0,0.0,0.0,0.0,0.0,0.0,0.0,0.0,0.0,2.7637,2.8761,0.0,2.9934,3.1253,3.2084,3.2084,3.2719,3.3409,3.4165,3.4828,3.5559,3.6339,3.7753,3.8706,3.9022,3.9729,4.0437,4.1272,4.1901,4.2438,4.2829,4.3455,4.3772,4.3772,4.3772,4.3772,4.3626,4.1798,4.0901,4.0535,3.9778,3.9949,4.0559,4.0193,4.0291,4.0706,4.1389,4.1633,4.1633,4.1633,4.1633,4.1633,4.1633,4.2121,4.2602,4.2602,4.3488,4.4439,4.4805,4.6001,4.7282,4.8393,4.8954,4.9418,5.015,4.9735,4.8759,4.7197,4.5513,4.4122,4.339,4.3854,4.4957,4.6622,4.7086,4.821,5.0869,5.2909,5.4879,5.6791,5.9002,6.0427,6.0499,5.869,5.7376,5.6858,5.3601,5.1681,5.1681,4.8773,4.6562,4.5254,4.3141,4.0376,0.0,0.0,0.0,0.0,0.0,0.0,0.0,0.0,0.0,0.0,0.0,0.0,0.0,0.0,0.0,0.0,0.0,0.0,0.0,0.0,0.0,0.0,0.0,0.0,0.0,0.0,0.0,2.5168,2.6464,0.0,0.0,0.0,0.0,2.8785,2.8785,2.9689,3.1708,3.183,3.2872,3.5068,3.519,3.5681,3.6753,3.6826,3.7924,3.9977,4.0025,4.0587,4.1535,4.1584,4.1609,4.1609,4.1609,4.1609,4.1364,3.8167,3.7436,3.8143,3.6166,3.6606,3.8216,3.7216,3.746,3.8338,3.8338,3.8338,3.8338,3.829,3.8241,3.8241,3.8192,3.8216,0.0,0.0,3.9144,4.0294,4.1267,4.3122,4.4967,4.6148,4.7221,4.7964,4.8013,4.7964,4.6673,4.2365,4.0811,4.0154,4.0001,0.0,4.081,4.3086,4.4525,4.6222,4.8725,5.1249,5.3873,5.6653,5.8086,5.8972,5.9279,5.8138,5.6858,5.5578,5.3048,5.1536,5.139,4.7726,4.5079,4.3869,4.0114,0.0,0.0,0.0,0.0,0.0,0.0,0.0,0.0,0.0,0.0,0.0,0.0,0.0,0.0,0.0,0.0,0.0,0.0,0.0,0.0,0.0,0.0,0.0,0.0,0.0,0.0,1.8834,2.0025,2.1841,2.3062,2.4216,0.0,0.0,0.0,0.0,0.0,0.0,2.8553,2.8602,2.9567,3.1701,3.253,3.3482,3.4605,3.541,3.6069,3.663,3.7411,3.7899,3.8191,3.8997,3.9315,3.9315,3.9315,3.9315,3.9144,3.6777,3.5947,3.6118,3.5605,3.5727,3.6142,3.5898,3.5947,3.6191,3.6191,3.6191,3.6044,3.5239,3.4995,3.4824,3.3995,0.0,0.0,0.0,0.0,3.7825,3.8094,3.9803,4.1682,4.2756,4.3829,4.483,4.5576,4.5113,4.3341,3.8995,3.8585,3.845,3.6895,3.7289,0.0,4.1116,4.2295,4.4505,4.8965,5.0931,5.3295,5.698,5.7688,5.8284,5.9189,5.7323,5.552,5.4232,5.171,4.9384,4.7435,4.4614,4.2055,3.9822,0.0,0.0,0.0,0.0,0.0,0.0,0.0,0.0,0.0,0.0,0.0,0.0,0.0,0.0,0.0,0.0,0.0,0.0,0.0,0.0,0.0,0.0,0.0,0.0,0.0,0.0,0.0,1.6244,1.7276,1.9206,2.0037,2.0844,0.0,0.0,0.0,0.0,0.0,0.0,0.0,0.0,0.0,2.9054,2.9738,3.0569,3.1693,3.2726,3.3482,3.397,3.5068,3.5778,3.6266,3.6874,3.7143,3.7143,3.7143,3.6313,3.4873,3.3214,3.2555,3.2555,0.0,0.0,0.0,0.0,3.2555,3.2555,3.2555,3.2555,3.2426,3.1351,0.0,0.0,0.0,0.0,0.0,0.0,0.0,3.4803,3.4803,3.6801,3.8924,3.9534,4.0462,4.1413,4.1944,4.095,3.8825,3.5461,3.5275,3.5319,3.4132,3.4413,0.0,0.0,0.0,4.3679,4.7705,5.0722,5.3753,5.7155,5.755,5.7841,5.8458,5.6189,5.4203,5.2893,4.9791,4.7406,4.5923,4.2374,3.9793,0.0,0.0,0.0,0.0,0.0,0.0,0.0,0.0,0.0,0.0,0.0,0.0,0.0,0.0,0.0,0.0,0.0,0.0,0.0,0.0,0.0,0.0,0.0,0.0,0.0,0.0,0.0,0.0,0.0,1.5003,1.7007,0.0,0.0,0.0,0.0,0.0,0.0,0.0,0.0,0.0,0.0,0.0,0.0,0.0,2.7256,2.8296,2.9518,3.0554,3.1481,3.2646,3.3702,3.4751,3.4751,3.4824,3.4922,3.4507,0.0,3.0056,2.8956,0.0,0.0,0.0,0.0,0.0,0.0,0.0,0.0,0.0,0.0,0.0,0.0,0.0,0.0,0.0,0.0,0.0,0.0,0.0,0.0,0.0,0.0,3.629,3.629,3.7192,3.7924,3.7362,3.594,3.4122,3.2042,3.1758,3.1841,0.0,0.0,0.0,0.0,0.0,0.0,4.5468,4.9904,5.3941,5.6735,5.7056,5.7114,5.7288,5.4901,5.2776,5.1274,4.7842,4.5574,4.4905,4.0492,0.0,0.0,0.0,0.0,0.0,0.0,0.0,0.0,0.0,0.0,0.0,0.0,0.0,0.0,0.0,0.0,0.0,0.0,0.0,0.0,0.0,0.0,0.0,0.0,0.0,0.0,0.0,0.0,0.0,0.0,0.0,0.0,0.0,0.0,0.0,0.0,0.0,0.0,0.0,0.0,0.0,0.0,0.0,0.0,0.0,0.0,0.0,0.0,0.0,0.0,2.9312,3.0349,3.1359,3.1359,3.1847,3.2488,2.9909,2.8455,2.7844,2.6722,0.0,0.0,0.0,0.0,0.0,0.0,0.0,0.0,0.0,0.0,0.0,0.0,0.0,0.0,0.0,0.0,0.0,0.0,0.0,0.0,0.0,0.0,3.2927,3.2927,3.4483,3.4946,3.14,0.0,0.0,0.0,0.0,0.0,0.0,0.0,0.0,0.0,0.0,0.0,4.2768,4.6497,5.0256,5.3941,5.4319,5.4785,5.584,5.3562,5.1012,4.8641,4.6853,4.3974,0.0,0.0,0.0,0.0,0.0,0.0,0.0,0.0,0.0,0.0,0.0,0.0,0.0,0.0,0.0,0.0,0.0,0.0,0.0,0.0,0.0,0.0,0.0,0.0,0.0,0.0,0.0,0.0,0.0,0.0,0.0,0.0,0.0,0.0,0.0,0.0,0.0,0.0,0.0,0.0,0.0,0.0,0.0,0.0,0.0,0.0,0.0,0.0,0.0,0.0,0.0,0.0,0.0,0.0,0.0,0.0,0.0,0.0,2.7319,2.5389,0.0,0.0,0.0,0.0,0.0,0.0,0.0,0.0,0.0,0.0,0.0,0.0,0.0,0.0,0.0,0.0,0.0,0.0,0.0,0.0,0.0,0.0,0.0,0.0,0.0,0.0,0.0,0.0,0.0,0.0,0.0,0.0,0.0,0.0,0.0,0.0,0.0,0.0,0.0,0.0,4.2013,4.564,4.9309,5.3242,5.365,5.3912,5.4552,5.2176,4.9587,4.6999,4.5021,0.0,0.0,0.0,0.0,0.0,0.0,0.0,0.0,0.0,0.0,0.0,0.0,0.0,0.0,0.0,0.0,0.0,0.0,0.0,0.0,0.0,0.0,0.0,0.0,0.0,0.0,0.0,0.0,0.0,0.0,0.0,0.0,0.0,0.0,0.0,0.0,0.0,0.0,0.0,0.0,0.0,0.0,0.0,0.0,0.0,0.0,0.0,0.0,0.0,0.0,0.0,0.0,0.0,0.0,0.0,0.0,0.0,0.0,0.0,2.4404,2.2281,0.0,0.0,0.0,0.0,0.0,0.0,0.0,0.0,0.0,0.0,0.0,0.0,0.0,0.0,0.0,0.0,0.0,0.0,0.0,0.0,0.0,0.0,0.0,0.0,0.0,0.0,0.0,0.0,0.0,0.0,0.0,0.0,0.0,0.0,0.0,0.0,0.0,0.0,0.0,0.0,4.1579,4.5243,4.8786,5.2456,5.33,5.3533,5.3271,5.0838,4.8249,4.5661,4.2869,0.0,0.0,0.0,0.0,0.0,0.0,0.0,0.0,0.0,0.0,0.0,0.0,0.0,0.0,0.0,0.0,0.0,0.0,0.0,0.0,0.0,0.0,0.0,0.0,0.0,0.0,0.0,0.0,0.0,0.0,0.0,0.0,0.0,0.0,0.0,0.0,0.0,0.0,0.0,0.0,0.0,0.0,0.0,0.0,0.0,0.0,0.0,0.0,0.0,0.0,0.0,0.0,0.0,0.0,0.0,0.0,0.0,0.0,0.0,0.0,0.0,0.0,0.0,0.0,0.0,0.0,0.0,0.0,0.0,0.0,0.0,0.0,0.0,0.0,0.0,0.0,0.0,0.0,0.0,0.0,0.0,0.0,0.0,0.0,0.0,0.0,0.0,0.0,0.0,0.0,0.0,0.0,0.0,0.0,0.0,0.0,0.0,0.0,0.0,0.0,0.0,4.0207,4.3893,4.7115,4.9849,5.2252,5.3155,5.1972,4.9484,4.6927,4.4451,0.0,0.0,0.0,0.0,0.0,0.0,0.0,0.0,0.0,0.0,0.0,0.0,0.0,0.0,0.0,0.0,0.0,0.0,0.0,0.0,0.0,0.0,0.0,0.0,0.0,0.0,0.0,0.0,0.0,0.0,0.0,0.0,0.0,0.0,0.0,0.0,0.0,0.0,0.0,0.0,0.0,0.0,0.0,0.0,0.0,0.0,0.0,0.0,0.0,0.0,0.0,0.0,0.0,0.0,0.0,0.0,0.0,0.0,0.0,0.0,0.0,0.0,0.0,0.0,0.0,0.0,0.0,0.0,0.0,0.0,0.0,0.0,0.0,0.0,0.0,0.0,0.0,0.0,0.0,0.0,0.0,0.0,0.0,0.0,0.0,0.0,0.0,0.0,0.0,0.0,0.0,0.0,0.0,0.0,0.0,0.0,0.0,0.0,0.0,0.0,0.0,0.0,4.0007,4.309,4.6068,4.9413,5.0692,5.1099,5.0576,4.8162,4.5603,4.3141,0.0,0.0,0.0,0.0,0.0,0.0,0.0,0.0,0.0,0.0,0.0,0.0,0.0,0.0,0.0,0.0,0.0,0.0,0.0,0.0,0.0,0.0,0.0,0.0,0.0,0.0,0.0,0.0,0.0,0.0,0.0,0.0,0.0,0.0,0.0,0.0,0.0,0.0,0.0,0.0,0.0,0.0,0.0,0.0,0.0,0.0,0.0,0.0,0.0,0.0,0.0,0.0,0.0,0.0,0.0,0.0,0.0,0.0,0.0,0.0,0.0,0.0,0.0,0.0,0.0,0.0,0.0,0.0,0.0,0.0,0.0,0.0,0.0,0.0,0.0,0.0,0.0,0.0,0.0,0.0,0.0,0.0,0.0,0.0,0.0,0.0,0.0,0.0,0.0,0.0,0.0,0.0,0.0,0.0,0.0,0.0,0.0,0.0,0.0,0.0,0.0,0.0,4.0373,4.2849,4.5586,4.9354,4.9791,4.9791,4.9791,4.7057,4.4439,4.2316,0.0,0.0,0.0,0.0,0.0,0.0,0.0,0.0,0.0,0.0,0.0,0.0,0.0,0.0,0.0,0.0,0.0,0.0,0.0,0.0,0.0,0.0,0.0,0.0,0.0,0.0,0.0,0.0,0.0,0.0,0.0,0.0,0.0,0.0,0.0,0.0,0.0,0.0,0.0,0.0,0.0,0.0,0.0,0.0,0.0,0.0,0.0,0.0,0.0,0.0,0.0,0.0,0.0,0.0,0.0,0.0,0.0,0.0,0.0,0.0,0.0,0.0,0.0,0.0,0.0,0.0,0.0,0.0,0.0,0.0,0.0,0.0,0.0,0.0,0.0,0.0,0.0,0.0,0.0,0.0,0.0,0.0,0.0,0.0,0.0,0.0,0.0,0.0,0.0,0.0,0.0,0.0,0.0,0.0,0.0,0.0,0.0,0.0,0.0,0.0,0.0,0.0,4.1282,4.3316,4.5586,4.9354,4.9791,4.9791,4.9791,4.6272,4.3578,0.0,0.0,0.0,0.0,0.0,0.0,0.0,0.0,0.0,0.0,0.0,0.0,0.0,0.0,0.0,0.0,0.0,0.0,0.0,0.0,0.0,0.0,0.0,0.0,0.0,0.0,0.0,0.0,0.0,0.0,0.0,0.0,0.0,0.0,0.0,0.0,0.0,0.0,0.0,0.0,0.0,0.0,0.0,0.0,0.0,0.0,0.0,0.0,0.0,0.0,0.0,0.0,0.0,0.0,0.0,0.0,0.0,0.0,0.0,0.0,0.0,0.0,0.0,0.0,0.0,0.0,0.0,0.0,0.0,0.0,0.0,0.0,0.0,0.0,0.0,0.0,0.0,0.0,0.0,0.0,0.0,0.0,0.0,0.0,0.0,0.0,0.0,0.0,0.0,0.0,0.0,0.0,0.0,0.0,0.0,0.0,0.0,0.0,0.0,0.0,0.0,0.0,0.0,3.829,4.1103,4.4236,4.8031,4.7624,4.7842,4.9616,4.5486,4.2646,4.22,0.0,0.0,0.0,0.0,0.0,0.0,0.0,0.0,0.0,0.0,0.0,0.0,0.0,0.0,0.0,0.0,0.0,0.0,0.0,0.0,0.0,0.0,0.0,0.0,0.0,0.0,0.0,0.0,0.0,0.0,0.0,0.0,0.0,0.0,0.0,0.0,0.0,0.0,0.0,0.0,0.0,0.0,0.0,0.0,0.0,0.0,0.0,0.0,0.0,0.0,0.0,0.0,0.0,0.0,0.0,0.0,0.0,0.0,0.0,0.0,0.0,0.0,0.0,0.0,0.0,0.0,0.0,0.0,0.0,0.0,0.0,0.0,0.0,0.0,0.0,0.0,0.0,0.0,0.0,0.0,0.0,0.0,0.0,0.0,0.0,0.0,0.0,0.0,0.0,0.0,0.0,0.0,0.0,0.0,0.0,0.0,0.0,0.0,0.0,0.0,0.0,0.0,0.0,4.0257,4.3451,4.6723,4.6359,4.6533,4.8162,4.4822,4.2252,4.1473,0.0,0.0,0.0,0.0,0.0,0.0,0.0,0.0,0.0,0.0,0.0,0.0,0.0,0.0,0.0,0.0,0.0,0.0,0.0,0.0,0.0,0.0,0.0,0.0,0.0,0.0,0.0,0.0,0.0,0.0,0.0,0.0,0.0,0.0,0.0,0.0,0.0,0.0,0.0,0.0,0.0,0.0,0.0,0.0,0.0,0.0,0.0,0.0,0.0,0.0,0.0,0.0,0.0,0.0,0.0,0.0,0.0,0.0,0.0,0.0,0.0,0.0,0.0,0.0,0.0,0.0,0.0,0.0,0.0,0.0,0.0,0.0,0.0,0.0,0.0,0.0,0.0,0.0,0.0,0.0,0.0,0.0,0.0,0.0,0.0,0.0,0.0,0.0,0.0,0.0,0.0,0.0,0.0,0.0,0.0,0.0,0.0,0.0,0.0,0.0,0.0,0.0,0.0,4.0476,4.3102,4.5486,4.5806,4.5864,4.5864,4.4295,4.2392,4.0376,3.7378,0.0,0.0,0.0,0.0,0.0,0.0,0.0,0.0,0.0,0.0,0.0,0.0,0.0,0.0,0.0,0.0,0.0,0.0,0.0,0.0,0.0,0.0,0.0,0.0,0.0,0.0,0.0,0.0,0.0,0.0,0.0,0.0,0.0,0.0,0.0,0.0,0.0,0.0,0.0,0.0,0.0,0.0,0.0,0.0,0.0,0.0,0.0,0.0,0.0,0.0,0.0,0.0,0.0,0.0,0.0,0.0,0.0,0.0,0.0,0.0,0.0,0.0,0.0,0.0,0.0,0.0,0.0,0.0,0.0,0.0,0.0,0.0,0.0,0.0,0.0,0.0,0.0,0.0,0.0,0.0,0.0,0.0,0.0,0.0,0.0,0.0,0.0,0.0,0.0,0.0,0.0,0.0,0.0,0.0,0.0,0.0,0.0,0.0,0.0,0.0,0.0,0.0,3.9461,4.2753,4.4393,4.5312,4.5864,4.5864,4.3766,4.1817,4.0339,3.6754,0.0,0.0,0.0,0.0,0.0,0.0,0.0,0.0,0.0,0.0,0.0,0.0,0.0,0.0,0.0,0.0,0.0,0.0,0.0,0.0,0.0,0.0,0.0,0.0,0.0,0.0,0.0,0.0,0.0,0.0,0.0,0.0,0.0,0.0,0.0,0.0,0.0,0.0,0.0,0.0,0.0,0.0,0.0,0.0,0.0,0.0,0.0,0.0,0.0,0.0,0.0,0.0,0.0,0.0,0.0,0.0,0.0,0.0,0.0,0.0,0.0,0.0,0.0,0.0,0.0,0.0,0.0,0.0,0.0,0.0,0.0,0.0,0.0,0.0,0.0,0.0,0.0,0.0,0.0,0.0,0.0,0.0,0.0,0.0,0.0,0.0,0.0,0.0,0.0,0.0,0.0,0.0,0.0,0.0,0.0,0.0,0.0,0.0,0.0,0.0,0.0,0.0,3.6361,3.9815,4.2908,4.4364,4.4817,4.4236,4.3288,4.1778,3.9502,3.6633,0.0,0.0,0.0,0.0,0.0,0.0,0.0,0.0,0.0,0.0,0.0,0.0,0.0,0.0,0.0,0.0,0.0,0.0,0.0,0.0,0.0,0.0,0.0,0.0,0.0,0.0,0.0,0.0,0.0,0.0,0.0,0.0,0.0,0.0,0.0,0.0,0.0,0.0,0.0,0.0,0.0,0.0,0.0,0.0,0.0,0.0,0.0,0.0,0.0,0.0,0.0,0.0,0.0,0.0,0.0,0.0,0.0,0.0,0.0,0.0,0.0,0.0,0.0,0.0,0.0,0.0,0.0,0.0,0.0,0.0,0.0,0.0,0.0,0.0,0.0,0.0,0.0,0.0,0.0,0.0,0.0,0.0,0.0,0.0,0.0,0.0,0.0,0.0,0.0,0.0,0.0,0.0,0.0,0.0,0.0,0.0,0.0,0.0,0.0,0.0,0.0,0.0,0.0,3.6321,4.1357,4.3083,4.3316,4.1996,4.2622,4.1669,3.8489,0.0,0.0,0.0,0.0,0.0,0.0,0.0,0.0,0.0,0.0,0.0,0.0,0.0,0.0,0.0,0.0,0.0,0.0,0.0,0.0,0.0,0.0,0.0,0.0,0.0,0.0,0.0,0.0,0.0,0.0,0.0,0.0,0.0,0.0,0.0,0.0,0.0,0.0,0.0,0.0,0.0,0.0,0.0,0.0,0.0,0.0,0.0,0.0,0.0,0.0,0.0,0.0,0.0,0.0,0.0,0.0,0.0,0.0,0.0,0.0,0.0,0.0,0.0,0.0,0.0,0.0,0.0,0.0,0.0,0.0,0.0,0.0,0.0,0.0,0.0,0.0,0.0,0.0,0.0,0.0,0.0,0.0,0.0,0.0,0.0,0.0,0.0,0.0,0.0,0.0,0.0,0.0,0.0,0.0,0.0,0.0,0.0,0.0,0.0,0.0,0.0,0.0,0.0,0.0,3.5972,4.0098,4.1706,4.1938,4.0621,4.1264,4.0727,3.8402,0.0,0.0,0.0,0.0,0.0,0.0,0.0,0.0,0.0,0.0,0.0,0.0,0.0,0.0]}]]]